<?xml version="1.0" encoding="UTF-8" standalone="no" ?>
<gpx xmlns="http://www.topografix.com/GPX/1/1" xmlns:xsi="http://www.w3.org/2001/XMLSchema-instance" xsi:schemaLocation="http://www.topografix.com/GPX/1/1 http://www.topografix.com/GPX/1/1/gpx.xsd" version="1.1" creator="VisuGPX - https://www.visugpx.com">
  <metadata>
    <name>carroyage</name>
  </metadata>
  <trk>
    <name><![CDATA[carroyage]]></name>
    <trkseg>
      <trkpt lat="46.67054" lon="5.55158">
        <ele>261.362827</ele>
        <time>2022-04-01T16:00:35.900Z</time>
      </trkpt>
      <trkpt lat="46.67074" lon="5.55161">
        <ele>261.362827</ele>
        <time>2022-04-01T16:00:38.183Z</time>
      </trkpt>
      <trkpt lat="46.67138" lon="5.55172">
        <ele>261.362827</ele>
        <time>2022-04-01T16:00:46.304Z</time>
      </trkpt>
      <trkpt lat="46.67141" lon="5.55172">
        <ele>261.362827</ele>
        <time>2022-04-01T16:00:46.762Z</time>
      </trkpt>
      <trkpt lat="46.67144" lon="5.55173">
        <ele>261.360075</ele>
        <time>2022-04-01T16:00:47.132Z</time>
      </trkpt>
      <trkpt lat="46.67177" lon="5.55178">
        <ele>261.171168</ele>
        <time>2022-04-01T16:00:51.419Z</time>
      </trkpt>
      <trkpt lat="46.67203" lon="5.55182">
        <ele>261.027075</ele>
        <time>2022-04-01T16:00:54.638Z</time>
      </trkpt>
      <trkpt lat="46.67219" lon="5.55082">
        <ele>260.629541</ele>
        <time>2022-04-01T16:01:03.704Z</time>
      </trkpt>
      <trkpt lat="46.67225" lon="5.55054">
        <ele>260.515881</ele>
        <time>2022-04-01T16:01:06.542Z</time>
      </trkpt>
      <trkpt lat="46.67229" lon="5.55043">
        <ele>260.468593</ele>
        <time>2022-04-01T16:01:07.693Z</time>
      </trkpt>
      <trkpt lat="46.67252" lon="5.54962">
        <ele>259.851117</ele>
        <time>2022-04-01T16:01:16.472Z</time>
      </trkpt>
      <trkpt lat="46.67255" lon="5.5492">
        <ele>259.486144</ele>
        <time>2022-04-01T16:01:20.380Z</time>
      </trkpt>
      <trkpt lat="46.67255" lon="5.54865">
        <ele>259.012376</ele>
        <time>2022-04-01T16:01:24.814Z</time>
      </trkpt>
      <trkpt lat="46.67273" lon="5.54773">
        <ele>258.174202</ele>
        <time>2022-04-01T16:01:31.915Z</time>
      </trkpt>
      <trkpt lat="46.67386" lon="5.54821">
        <ele>255.703882</ele>
        <time>2022-04-01T16:01:44.801Z</time>
      </trkpt>
      <trkpt lat="46.67409" lon="5.54822">
        <ele>255.212386</ele>
        <time>2022-04-01T16:01:47.294Z</time>
      </trkpt>
      <trkpt lat="46.67369" lon="5.54689">
        <ele>253.05151</ele>
        <time>2022-04-01T16:01:57.899Z</time>
      </trkpt>
      <trkpt lat="46.67355" lon="5.54639">
        <ele>252.245222</ele>
        <time>2022-04-01T16:02:01.841Z</time>
      </trkpt>
      <trkpt lat="46.67399" lon="5.54585">
        <ele>250.986001</ele>
        <time>2022-04-01T16:02:08.214Z</time>
      </trkpt>
      <trkpt lat="46.674" lon="5.54583">
        <ele>250.954028</ele>
        <time>2022-04-01T16:02:08.375Z</time>
      </trkpt>
      <trkpt lat="46.67431" lon="5.54541">
        <ele>250.074814</ele>
        <time>2022-04-01T16:02:12.989Z</time>
      </trkpt>
      <trkpt lat="46.67455" lon="5.54508">
        <ele>249.480688</ele>
        <time>2022-04-01T16:02:16.615Z</time>
      </trkpt>
      <trkpt lat="46.67481" lon="5.54473">
        <ele>248.870672</ele>
        <time>2022-04-01T16:02:20.350Z</time>
      </trkpt>
      <trkpt lat="46.67509" lon="5.54435">
        <ele>248.201565</ele>
        <time>2022-04-01T16:02:24.594Z</time>
      </trkpt>
      <trkpt lat="46.67514" lon="5.54419">
        <ele>247.990704</ele>
        <time>2022-04-01T16:02:25.976Z</time>
      </trkpt>
      <trkpt lat="46.67516" lon="5.54396">
        <ele>247.709366</ele>
        <time>2022-04-01T16:02:27.856Z</time>
      </trkpt>
      <trkpt lat="46.6752" lon="5.54365">
        <ele>247.336111</ele>
        <time>2022-04-01T16:02:30.397Z</time>
      </trkpt>
      <trkpt lat="46.6754" lon="5.54337">
        <ele>246.970741</ele>
        <time>2022-04-01T16:02:33.869Z</time>
      </trkpt>
      <trkpt lat="46.67549" lon="5.54344">
        <ele>246.884356</ele>
        <time>2022-04-01T16:02:35.071Z</time>
      </trkpt>
      <trkpt lat="46.67558" lon="5.54343">
        <ele>246.797394</ele>
        <time>2022-04-01T16:02:36.278Z</time>
      </trkpt>
      <trkpt lat="46.67566" lon="5.54333">
        <ele>246.704246</ele>
        <time>2022-04-01T16:02:37.593Z</time>
      </trkpt>
      <trkpt lat="46.67568" lon="5.54318">
        <ele>246.611247</ele>
        <time>2022-04-01T16:02:38.850Z</time>
      </trkpt>
      <trkpt lat="46.67567" lon="5.54312">
        <ele>246.577208</ele>
        <time>2022-04-01T16:02:39.306Z</time>
      </trkpt>
      <trkpt lat="46.6756" lon="5.543">
        <ele>246.477463</ele>
        <time>2022-04-01T16:02:40.723Z</time>
      </trkpt>
      <trkpt lat="46.67552" lon="5.54297">
        <ele>246.402275</ele>
        <time>2022-04-01T16:02:41.791Z</time>
      </trkpt>
      <trkpt lat="46.67549" lon="5.54243">
        <ele>246.069641</ele>
        <time>2022-04-01T16:02:46.456Z</time>
      </trkpt>
      <trkpt lat="46.67567" lon="5.54174">
        <ele>245.614658</ele>
        <time>2022-04-01T16:02:52.875Z</time>
      </trkpt>
      <trkpt lat="46.67573" lon="5.54152">
        <ele>245.474987</ele>
        <time>2022-04-01T16:02:54.949Z</time>
      </trkpt>
      <trkpt lat="46.67572" lon="5.54136">
        <ele>245.38164</ele>
        <time>2022-04-01T16:02:56.372Z</time>
      </trkpt>
      <trkpt lat="46.6758" lon="5.54133">
        <ele>245.309748</ele>
        <time>2022-04-01T16:02:57.426Z</time>
      </trkpt>
      <trkpt lat="46.67589" lon="5.54121">
        <ele>245.211239</ele>
        <time>2022-04-01T16:02:58.920Z</time>
      </trkpt>
      <trkpt lat="46.67632" lon="5.54019">
        <ele>244.530342</ele>
        <time>2022-04-01T16:03:08.950Z</time>
      </trkpt>
      <trkpt lat="46.6766" lon="5.53841">
        <ele>243.94847</ele>
        <time>2022-04-01T16:03:24.980Z</time>
      </trkpt>
      <trkpt lat="46.67665" lon="5.53819">
        <ele>243.933223</ele>
        <time>2022-04-01T16:03:27.154Z</time>
      </trkpt>
      <trkpt lat="46.67682" lon="5.53789">
        <ele>243.907366</ele>
        <time>2022-04-01T16:03:30.861Z</time>
      </trkpt>
      <trkpt lat="46.6769" lon="5.53789">
        <ele>243.899737</ele>
        <time>2022-04-01T16:03:31.980Z</time>
      </trkpt>
      <trkpt lat="46.67691" lon="5.53787">
        <ele>243.898111</ele>
        <time>2022-04-01T16:03:32.226Z</time>
      </trkpt>
      <trkpt lat="46.67726" lon="5.53859">
        <ele>243.840848</ele>
        <time>2022-04-01T16:03:45.062Z</time>
      </trkpt>
      <trkpt lat="46.67764" lon="5.53945">
        <ele>245.167784</ele>
        <time>2022-04-01T16:04:02.642Z</time>
      </trkpt>
      <trkpt lat="46.67773" lon="5.53957">
        <ele>245.412046</ele>
        <time>2022-04-01T16:04:05.884Z</time>
      </trkpt>
      <trkpt lat="46.67789" lon="5.53969">
        <ele>245.788777</ele>
        <time>2022-04-01T16:04:11.386Z</time>
      </trkpt>
      <trkpt lat="46.6784" lon="5.53969">
        <ele>246.814724</ele>
        <time>2022-04-01T16:04:26.113Z</time>
      </trkpt>
      <trkpt lat="46.6793" lon="5.53976">
        <ele>250.094476</ele>
        <time>2022-04-01T16:04:57.160Z</time>
      </trkpt>
      <trkpt lat="46.67932" lon="5.53966">
        <ele>250.419648</ele>
        <time>2022-04-01T16:04:59.304Z</time>
      </trkpt>
      <trkpt lat="46.67937" lon="5.53939">
        <ele>251.297123</ele>
        <time>2022-04-01T16:05:05.549Z</time>
      </trkpt>
      <trkpt lat="46.6796" lon="5.53831">
        <ele>254.808744</ele>
        <time>2022-04-01T16:05:33.472Z</time>
      </trkpt>
      <trkpt lat="46.6798" lon="5.5381">
        <ele>256.032728</ele>
        <time>2022-04-01T16:05:42.219Z</time>
      </trkpt>
      <trkpt lat="46.68009" lon="5.53802">
        <ele>257.88593</ele>
        <time>2022-04-01T16:05:53.160Z</time>
      </trkpt>
      <trkpt lat="46.68093" lon="5.53788">
        <ele>263.147974</ele>
        <time>2022-04-01T16:06:26.513Z</time>
      </trkpt>
      <trkpt lat="46.6817" lon="5.53762">
        <ele>268.226326</ele>
        <time>2022-04-01T16:07:00.225Z</time>
      </trkpt>
      <trkpt lat="46.68305" lon="5.53758">
        <ele>277.457557</ele>
        <time>2022-04-01T16:07:59.056Z</time>
      </trkpt>
      <trkpt lat="46.68366" lon="5.53727">
        <ele>280.864975</ele>
        <time>2022-04-01T16:08:24.095Z</time>
      </trkpt>
      <trkpt lat="46.68385" lon="5.53716">
        <ele>281.755748</ele>
        <time>2022-04-01T16:08:31.350Z</time>
      </trkpt>
      <trkpt lat="46.6843" lon="5.53714">
        <ele>283.688718</ele>
        <time>2022-04-01T16:08:45.789Z</time>
      </trkpt>
      <trkpt lat="46.68501" lon="5.53711">
        <ele>286.726116</ele>
        <time>2022-04-01T16:09:05.851Z</time>
      </trkpt>
      <trkpt lat="46.68513" lon="5.53712">
        <ele>287.063648</ele>
        <time>2022-04-01T16:09:09.072Z</time>
      </trkpt>
      <trkpt lat="46.68531" lon="5.53723">
        <ele>287.374249</ele>
        <time>2022-04-01T16:09:13.518Z</time>
      </trkpt>
      <trkpt lat="46.68544" lon="5.53734">
        <ele>287.605119</ele>
        <time>2022-04-01T16:09:16.739Z</time>
      </trkpt>
      <trkpt lat="46.68558" lon="5.53743">
        <ele>287.851051</ele>
        <time>2022-04-01T16:09:20.066Z</time>
      </trkpt>
      <trkpt lat="46.68598" lon="5.53771">
        <ele>288.554768</ele>
        <time>2022-04-01T16:09:29.910Z</time>
      </trkpt>
      <trkpt lat="46.68615" lon="5.53783">
        <ele>288.854693</ele>
        <time>2022-04-01T16:09:34.243Z</time>
      </trkpt>
      <trkpt lat="46.68679" lon="5.53775">
        <ele>289.713791</ele>
        <time>2022-04-01T16:09:45.925Z</time>
      </trkpt>
      <trkpt lat="46.68755" lon="5.53767">
        <ele>288.550597</ele>
        <time>2022-04-01T16:09:56.357Z</time>
      </trkpt>
      <trkpt lat="46.68804" lon="5.53696">
        <ele>287.505101</ele>
        <time>2022-04-01T16:10:03.838Z</time>
      </trkpt>
      <trkpt lat="46.68902" lon="5.53576">
        <ele>282.993262</ele>
        <time>2022-04-01T16:10:16.412Z</time>
      </trkpt>
      <trkpt lat="46.68951" lon="5.53534">
        <ele>280.642054</ele>
        <time>2022-04-01T16:10:21.816Z</time>
      </trkpt>
      <trkpt lat="46.69004" lon="5.53517">
        <ele>278.939187</ele>
        <time>2022-04-01T16:10:26.934Z</time>
      </trkpt>
      <trkpt lat="46.69022" lon="5.53497">
        <ele>278.382352</ele>
        <time>2022-04-01T16:10:29.252Z</time>
      </trkpt>
      <trkpt lat="46.69053" lon="5.53433">
        <ele>277.092636</ele>
        <time>2022-04-01T16:10:34.810Z</time>
      </trkpt>
      <trkpt lat="46.69094" lon="5.53352">
        <ele>275.424871</ele>
        <time>2022-04-01T16:10:42.959Z</time>
      </trkpt>
      <trkpt lat="46.69164" lon="5.5324">
        <ele>275.912841</ele>
        <time>2022-04-01T16:11:00.806Z</time>
      </trkpt>
      <trkpt lat="46.6918" lon="5.5323">
        <ele>276.014198</ele>
        <time>2022-04-01T16:11:04.710Z</time>
      </trkpt>
      <trkpt lat="46.692" lon="5.53237">
        <ele>276.139834</ele>
        <time>2022-04-01T16:11:08.493Z</time>
      </trkpt>
      <trkpt lat="46.69302" lon="5.53302">
        <ele>276.093475</ele>
        <time>2022-04-01T16:11:28.833Z</time>
      </trkpt>
      <trkpt lat="46.69334" lon="5.5331">
        <ele>275.949552</ele>
        <time>2022-04-01T16:11:33.098Z</time>
      </trkpt>
      <trkpt lat="46.69427" lon="5.53296">
        <ele>275.23035</ele>
        <time>2022-04-01T16:11:44.093Z</time>
      </trkpt>
      <trkpt lat="46.69561" lon="5.5332">
        <ele>271.79599</ele>
        <time>2022-04-01T16:11:58.357Z</time>
      </trkpt>
      <trkpt lat="46.69648" lon="5.53328">
        <ele>268.948933</ele>
        <time>2022-04-01T16:12:07.044Z</time>
      </trkpt>
      <trkpt lat="46.69738" lon="5.53348">
        <ele>265.651957</ele>
        <time>2022-04-01T16:12:15.967Z</time>
      </trkpt>
      <trkpt lat="46.69766" lon="5.53347">
        <ele>264.633157</ele>
        <time>2022-04-01T16:12:18.750Z</time>
      </trkpt>
      <trkpt lat="46.69817" lon="5.53331">
        <ele>263.229512</ele>
        <time>2022-04-01T16:12:23.994Z</time>
      </trkpt>
      <trkpt lat="46.69935" lon="5.53276">
        <ele>259.967408</ele>
        <time>2022-04-01T16:12:37.070Z</time>
      </trkpt>
      <trkpt lat="46.69969" lon="5.53252">
        <ele>259.496139</ele>
        <time>2022-04-01T16:12:41.406Z</time>
      </trkpt>
      <trkpt lat="46.70206" lon="5.52982">
        <ele>257.888666</ele>
        <time>2022-04-01T16:13:20.665Z</time>
      </trkpt>
      <trkpt lat="46.70227" lon="5.52973">
        <ele>257.850647</ele>
        <time>2022-04-01T16:13:24.754Z</time>
      </trkpt>
      <trkpt lat="46.70278" lon="5.52972">
        <ele>258.476191</ele>
        <time>2022-04-01T16:13:35.224Z</time>
      </trkpt>
      <trkpt lat="46.70296" lon="5.5297">
        <ele>258.735362</ele>
        <time>2022-04-01T16:13:38.787Z</time>
      </trkpt>
      <trkpt lat="46.70352" lon="5.52962">
        <ele>259.551424</ele>
        <time>2022-04-01T16:13:51.002Z</time>
      </trkpt>
      <trkpt lat="46.70457" lon="5.52902">
        <ele>260.215554</ele>
        <time>2022-04-01T16:14:16.038Z</time>
      </trkpt>
      <trkpt lat="46.7054" lon="5.52886">
        <ele>259.827059</ele>
        <time>2022-04-01T16:14:26.971Z</time>
      </trkpt>
      <trkpt lat="46.7057" lon="5.52874">
        <ele>259.683679</ele>
        <time>2022-04-01T16:14:30.264Z</time>
      </trkpt>
      <trkpt lat="46.70608" lon="5.52843">
        <ele>258.97585</ele>
        <time>2022-04-01T16:14:34.642Z</time>
      </trkpt>
      <trkpt lat="46.70712" lon="5.52711">
        <ele>255.954097</ele>
        <time>2022-04-01T16:14:49.304Z</time>
      </trkpt>
      <trkpt lat="46.70732" lon="5.52741">
        <ele>255.918763</ele>
        <time>2022-04-01T16:14:52.662Z</time>
      </trkpt>
      <trkpt lat="46.70776" lon="5.52774">
        <ele>256.635432</ele>
        <time>2022-04-01T16:14:59.461Z</time>
      </trkpt>
      <trkpt lat="46.70793" lon="5.52801">
        <ele>257.005674</ele>
        <time>2022-04-01T16:15:05.073Z</time>
      </trkpt>
      <trkpt lat="46.70819" lon="5.5286">
        <ele>257.700149</ele>
        <time>2022-04-01T16:15:17.942Z</time>
      </trkpt>
      <trkpt lat="46.70836" lon="5.52948">
        <ele>259.03652</ele>
        <time>2022-04-01T16:15:36.016Z</time>
      </trkpt>
      <trkpt lat="46.70845" lon="5.52976">
        <ele>259.747046</ele>
        <time>2022-04-01T16:15:42.542Z</time>
      </trkpt>
      <trkpt lat="46.70903" lon="5.53148">
        <ele>264.13692</ele>
        <time>2022-04-01T16:16:18.857Z</time>
      </trkpt>
      <trkpt lat="46.70966" lon="5.53315">
        <ele>269.522752</ele>
        <time>2022-04-01T16:16:55.836Z</time>
      </trkpt>
      <trkpt lat="46.71012" lon="5.53389">
        <ele>272.580641</ele>
        <time>2022-04-01T16:17:21.864Z</time>
      </trkpt>
      <trkpt lat="46.71109" lon="5.53567">
        <ele>281.481192</ele>
        <time>2022-04-01T16:18:24.558Z</time>
      </trkpt>
      <trkpt lat="46.71177" lon="5.53642">
        <ele>283.098104</ele>
        <time>2022-04-01T16:18:47.984Z</time>
      </trkpt>
      <trkpt lat="46.71199" lon="5.53669">
        <ele>283.522237</ele>
        <time>2022-04-01T16:18:53.695Z</time>
      </trkpt>
      <trkpt lat="46.71218" lon="5.53699">
        <ele>283.913111</ele>
        <time>2022-04-01T16:18:57.808Z</time>
      </trkpt>
      <trkpt lat="46.71226" lon="5.53713">
        <ele>284.096362</ele>
        <time>2022-04-01T16:18:59.451Z</time>
      </trkpt>
      <trkpt lat="46.71238" lon="5.53733">
        <ele>284.354174</ele>
        <time>2022-04-01T16:19:01.602Z</time>
      </trkpt>
      <trkpt lat="46.7124" lon="5.53736">
        <ele>284.389789</ele>
        <time>2022-04-01T16:19:01.895Z</time>
      </trkpt>
      <trkpt lat="46.71265" lon="5.53713">
        <ele>284.263888</ele>
        <time>2022-04-01T16:19:05.358Z</time>
      </trkpt>
      <trkpt lat="46.71274" lon="5.53708">
        <ele>284.075448</ele>
        <time>2022-04-01T16:19:06.398Z</time>
      </trkpt>
      <trkpt lat="46.7131" lon="5.53696">
        <ele>283.333721</ele>
        <time>2022-04-01T16:19:10.384Z</time>
      </trkpt>
      <trkpt lat="46.71405" lon="5.5368">
        <ele>281.405988</ele>
        <time>2022-04-01T16:19:20.813Z</time>
      </trkpt>
      <trkpt lat="46.71436" lon="5.5366">
        <ele>280.653562</ele>
        <time>2022-04-01T16:19:24.385Z</time>
      </trkpt>
      <trkpt lat="46.71439" lon="5.53656">
        <ele>280.53005</ele>
        <time>2022-04-01T16:19:24.853Z</time>
      </trkpt>
      <trkpt lat="46.71538" lon="5.53544">
        <ele>277.207294</ele>
        <time>2022-04-01T16:19:37.904Z</time>
      </trkpt>
      <trkpt lat="46.71556" lon="5.53531">
        <ele>276.673299</ele>
        <time>2022-04-01T16:19:39.906Z</time>
      </trkpt>
      <trkpt lat="46.71602" lon="5.53505">
        <ele>275.536582</ele>
        <time>2022-04-01T16:19:45.077Z</time>
      </trkpt>
      <trkpt lat="46.71645" lon="5.53476">
        <ele>274.537259</ele>
        <time>2022-04-01T16:19:50.128Z</time>
      </trkpt>
      <trkpt lat="46.71671" lon="5.53449">
        <ele>273.864027</ele>
        <time>2022-04-01T16:19:53.599Z</time>
      </trkpt>
      <trkpt lat="46.71681" lon="5.53426">
        <ele>273.470434</ele>
        <time>2022-04-01T16:19:55.614Z</time>
      </trkpt>
      <trkpt lat="46.71704" lon="5.53339">
        <ele>272.201026</ele>
        <time>2022-04-01T16:20:03.113Z</time>
      </trkpt>
      <trkpt lat="46.71728" lon="5.53264">
        <ele>271.33281</ele>
        <time>2022-04-01T16:20:09.814Z</time>
      </trkpt>
      <trkpt lat="46.71766" lon="5.53146">
        <ele>269.959533</ele>
        <time>2022-04-01T16:20:20.260Z</time>
      </trkpt>
      <trkpt lat="46.71781" lon="5.53074">
        <ele>269.240361</ele>
        <time>2022-04-01T16:20:25.820Z</time>
      </trkpt>
      <trkpt lat="46.71791" lon="5.53022">
        <ele>268.761077</ele>
        <time>2022-04-01T16:20:29.728Z</time>
      </trkpt>
      <trkpt lat="46.71803" lon="5.5296">
        <ele>268.183038</ele>
        <time>2022-04-01T16:20:34.578Z</time>
      </trkpt>
      <trkpt lat="46.71807" lon="5.52941">
        <ele>268.006651</ele>
        <time>2022-04-01T16:20:36.175Z</time>
      </trkpt>
      <trkpt lat="46.71822" lon="5.5287">
        <ele>267.338438</ele>
        <time>2022-04-01T16:20:43.236Z</time>
      </trkpt>
      <trkpt lat="46.71827" lon="5.52844">
        <ele>267.323442</ele>
        <time>2022-04-01T16:20:46.174Z</time>
      </trkpt>
      <trkpt lat="46.71842" lon="5.52761">
        <ele>267.43308</ele>
        <time>2022-04-01T16:20:57.830Z</time>
      </trkpt>
      <trkpt lat="46.71867" lon="5.5267">
        <ele>267.559088</ele>
        <time>2022-04-01T16:21:08.063Z</time>
      </trkpt>
      <trkpt lat="46.71905" lon="5.52583">
        <ele>267.760935</ele>
        <time>2022-04-01T16:21:17.239Z</time>
      </trkpt>
      <trkpt lat="46.71955" lon="5.52505">
        <ele>268.053703</ele>
        <time>2022-04-01T16:21:29.429Z</time>
      </trkpt>
      <trkpt lat="46.71966" lon="5.52465">
        <ele>268.173015</ele>
        <time>2022-04-01T16:21:33.660Z</time>
      </trkpt>
      <trkpt lat="46.71984" lon="5.52456">
        <ele>268.249704</ele>
        <time>2022-04-01T16:21:36.735Z</time>
      </trkpt>
      <trkpt lat="46.72002" lon="5.52437">
        <ele>268.339158</ele>
        <time>2022-04-01T16:21:40.870Z</time>
      </trkpt>
      <trkpt lat="46.72033" lon="5.52425">
        <ele>269.295758</ele>
        <time>2022-04-01T16:21:45.731Z</time>
      </trkpt>
      <trkpt lat="46.72206" lon="5.52401">
        <ele>274.822781</ele>
        <time>2022-04-01T16:22:41.763Z</time>
      </trkpt>
      <trkpt lat="46.72298" lon="5.52407">
        <ele>276.396228</ele>
        <time>2022-04-01T16:23:05.895Z</time>
      </trkpt>
      <trkpt lat="46.72429" lon="5.52376">
        <ele>276.156298</ele>
        <time>2022-04-01T16:23:22.421Z</time>
      </trkpt>
      <trkpt lat="46.72506" lon="5.52364">
        <ele>274.583729</ele>
        <time>2022-04-01T16:23:30.573Z</time>
      </trkpt>
      <trkpt lat="46.72603" lon="5.52361">
        <ele>271.783118</ele>
        <time>2022-04-01T16:23:40.399Z</time>
      </trkpt>
      <trkpt lat="46.72649" lon="5.52383">
        <ele>270.158924</ele>
        <time>2022-04-01T16:23:45.255Z</time>
      </trkpt>
      <trkpt lat="46.72679" lon="5.52411">
        <ele>268.984853</ele>
        <time>2022-04-01T16:23:48.824Z</time>
      </trkpt>
      <trkpt lat="46.72715" lon="5.5243">
        <ele>267.669636</ele>
        <time>2022-04-01T16:23:52.700Z</time>
      </trkpt>
      <trkpt lat="46.72772" lon="5.52432">
        <ele>265.587461</ele>
        <time>2022-04-01T16:23:58.289Z</time>
      </trkpt>
      <trkpt lat="46.73136" lon="5.52318">
        <ele>253.379749</ele>
        <time>2022-04-01T16:24:35.148Z</time>
      </trkpt>
      <trkpt lat="46.73166" lon="5.5232">
        <ele>252.861567</ele>
        <time>2022-04-01T16:24:38.895Z</time>
      </trkpt>
      <trkpt lat="46.73208" lon="5.52341">
        <ele>252.113054</ele>
        <time>2022-04-01T16:24:45.212Z</time>
      </trkpt>
      <trkpt lat="46.73239" lon="5.52364">
        <ele>251.572786</ele>
        <time>2022-04-01T16:24:51.368Z</time>
      </trkpt>
      <trkpt lat="46.7331" lon="5.52389">
        <ele>251.369749</ele>
        <time>2022-04-01T16:25:00.854Z</time>
      </trkpt>
      <trkpt lat="46.73366" lon="5.52449">
        <ele>251.175072</ele>
        <time>2022-04-01T16:25:09.382Z</time>
      </trkpt>
      <trkpt lat="46.73428" lon="5.52527">
        <ele>251.621966</ele>
        <time>2022-04-01T16:25:24.230Z</time>
      </trkpt>
      <trkpt lat="46.73429" lon="5.52554">
        <ele>251.828459</ele>
        <time>2022-04-01T16:25:28.797Z</time>
      </trkpt>
      <trkpt lat="46.73412" lon="5.52593">
        <ele>252.183581</ele>
        <time>2022-04-01T16:25:36.439Z</time>
      </trkpt>
      <trkpt lat="46.73365" lon="5.52692">
        <ele>253.122148</ele>
        <time>2022-04-01T16:25:57.118Z</time>
      </trkpt>
      <trkpt lat="46.73365" lon="5.52712">
        <ele>253.065713</ele>
        <time>2022-04-01T16:26:01.704Z</time>
      </trkpt>
      <trkpt lat="46.7342" lon="5.52755">
        <ele>252.802101</ele>
        <time>2022-04-01T16:26:20.009Z</time>
      </trkpt>
      <trkpt lat="46.73501" lon="5.52853">
        <ele>252.301411</ele>
        <time>2022-04-01T16:26:36.863Z</time>
      </trkpt>
      <trkpt lat="46.73516" lon="5.52866">
        <ele>251.791965</ele>
        <time>2022-04-01T16:26:39.222Z</time>
      </trkpt>
      <trkpt lat="46.73538" lon="5.5287">
        <ele>251.123238</ele>
        <time>2022-04-01T16:26:42.439Z</time>
      </trkpt>
      <trkpt lat="46.73581" lon="5.52838">
        <ele>249.69091</ele>
        <time>2022-04-01T16:26:49.274Z</time>
      </trkpt>
      <trkpt lat="46.73592" lon="5.52833">
        <ele>249.328614</ele>
        <time>2022-04-01T16:26:51.036Z</time>
      </trkpt>
      <trkpt lat="46.73609" lon="5.52838">
        <ele>248.817662</ele>
        <time>2022-04-01T16:26:53.474Z</time>
      </trkpt>
      <trkpt lat="46.73715" lon="5.52949">
        <ele>246.44593</ele>
        <time>2022-04-01T16:27:13.554Z</time>
      </trkpt>
      <trkpt lat="46.73784" lon="5.53009">
        <ele>245.798884</ele>
        <time>2022-04-01T16:27:29.679Z</time>
      </trkpt>
      <trkpt lat="46.73845" lon="5.53049">
        <ele>245.909377</ele>
        <time>2022-04-01T16:27:44.522Z</time>
      </trkpt>
      <trkpt lat="46.73872" lon="5.53059">
        <ele>246.180605</ele>
        <time>2022-04-01T16:27:51.185Z</time>
      </trkpt>
      <trkpt lat="46.73899" lon="5.53053">
        <ele>246.445348</ele>
        <time>2022-04-01T16:27:57.768Z</time>
      </trkpt>
      <trkpt lat="46.73904" lon="5.53049">
        <ele>246.504143</ele>
        <time>2022-04-01T16:27:59.139Z</time>
      </trkpt>
      <trkpt lat="46.73917" lon="5.53043">
        <ele>246.635637</ele>
        <time>2022-04-01T16:28:02.251Z</time>
      </trkpt>
      <trkpt lat="46.73952" lon="5.53049">
        <ele>246.972176</ele>
        <time>2022-04-01T16:28:10.632Z</time>
      </trkpt>
      <trkpt lat="46.74084" lon="5.53127">
        <ele>249.342749</ele>
        <time>2022-04-01T16:28:49.624Z</time>
      </trkpt>
      <trkpt lat="46.74152" lon="5.53159">
        <ele>250.691925</ele>
        <time>2022-04-01T16:29:10.034Z</time>
      </trkpt>
      <trkpt lat="46.74304" lon="5.53232">
        <ele>255.28941</ele>
        <time>2022-04-01T16:29:55.519Z</time>
      </trkpt>
      <trkpt lat="46.74369" lon="5.53286">
        <ele>259.607599</ele>
        <time>2022-04-01T16:30:29.915Z</time>
      </trkpt>
      <trkpt lat="46.74377" lon="5.53303">
        <ele>260.58044</ele>
        <time>2022-04-01T16:30:36.913Z</time>
      </trkpt>
      <trkpt lat="46.74381" lon="5.53337">
        <ele>262.217891</ele>
        <time>2022-04-01T16:30:51.310Z</time>
      </trkpt>
      <trkpt lat="46.74371" lon="5.53398">
        <ele>265.113363</ele>
        <time>2022-04-01T16:31:12.661Z</time>
      </trkpt>
      <trkpt lat="46.74368" lon="5.53413">
        <ele>265.882684</ele>
        <time>2022-04-01T16:31:17.586Z</time>
      </trkpt>
      <trkpt lat="46.7436" lon="5.53436">
        <ele>267.064892</ele>
        <time>2022-04-01T16:31:27.319Z</time>
      </trkpt>
      <trkpt lat="46.74327" lon="5.53462">
        <ele>268.506891</ele>
        <time>2022-04-01T16:31:44.388Z</time>
      </trkpt>
      <trkpt lat="46.74328" lon="5.53514">
        <ele>269.219291</ele>
        <time>2022-04-01T16:31:59.315Z</time>
      </trkpt>
      <trkpt lat="46.74367" lon="5.53669">
        <ele>271.46135</ele>
        <time>2022-04-01T16:32:27.960Z</time>
      </trkpt>
      <trkpt lat="46.74369" lon="5.53721">
        <ele>270.414019</ele>
        <time>2022-04-01T16:32:32.852Z</time>
      </trkpt>
      <trkpt lat="46.74344" lon="5.53824">
        <ele>267.132356</ele>
        <time>2022-04-01T16:32:42.725Z</time>
      </trkpt>
      <trkpt lat="46.74337" lon="5.53898">
        <ele>264.912538</ele>
        <time>2022-04-01T16:32:49.613Z</time>
      </trkpt>
      <trkpt lat="46.74331" lon="5.53924">
        <ele>264.100046</ele>
        <time>2022-04-01T16:32:52.193Z</time>
      </trkpt>
      <trkpt lat="46.74287" lon="5.53995">
        <ele>262.652914</ele>
        <time>2022-04-01T16:33:01.947Z</time>
      </trkpt>
      <trkpt lat="46.74282" lon="5.54004">
        <ele>262.505483</ele>
        <time>2022-04-01T16:33:03.068Z</time>
      </trkpt>
      <trkpt lat="46.74212" lon="5.54099">
        <ele>260.656022</ele>
        <time>2022-04-01T16:33:19.361Z</time>
      </trkpt>
      <trkpt lat="46.742" lon="5.54122">
        <ele>260.313006</ele>
        <time>2022-04-01T16:33:22.881Z</time>
      </trkpt>
      <trkpt lat="46.74183" lon="5.54179">
        <ele>260.277</ele>
        <time>2022-04-01T16:33:30.671Z</time>
      </trkpt>
      <trkpt lat="46.7418" lon="5.54193">
        <ele>260.267994</ele>
        <time>2022-04-01T16:33:32.705Z</time>
      </trkpt>
      <trkpt lat="46.74184" lon="5.54216">
        <ele>260.254005</ele>
        <time>2022-04-01T16:33:35.914Z</time>
      </trkpt>
      <trkpt lat="46.74225" lon="5.543">
        <ele>260.19389</ele>
        <time>2022-04-01T16:33:49.584Z</time>
      </trkpt>
      <trkpt lat="46.7423" lon="5.54311">
        <ele>260.185558</ele>
        <time>2022-04-01T16:33:51.485Z</time>
      </trkpt>
      <trkpt lat="46.74327" lon="5.54512">
        <ele>262.562224</ele>
        <time>2022-04-01T16:34:32.601Z</time>
      </trkpt>
      <trkpt lat="46.7443" lon="5.54725">
        <ele>268.275176</ele>
        <time>2022-04-01T16:35:36.295Z</time>
      </trkpt>
      <trkpt lat="46.74477" lon="5.54759">
        <ele>270.040459</ele>
        <time>2022-04-01T16:35:55.023Z</time>
      </trkpt>
      <trkpt lat="46.74473" lon="5.54772">
        <ele>270.236113</ele>
        <time>2022-04-01T16:35:58.219Z</time>
      </trkpt>
      <trkpt lat="46.74473" lon="5.548">
        <ele>270.62852</ele>
        <time>2022-04-01T16:36:04.242Z</time>
      </trkpt>
      <trkpt lat="46.74475" lon="5.54832">
        <ele>271.08653</ele>
        <time>2022-04-01T16:36:11.338Z</time>
      </trkpt>
      <trkpt lat="46.74455" lon="5.54959">
        <ele>272.905094</ele>
        <time>2022-04-01T16:36:34.954Z</time>
      </trkpt>
      <trkpt lat="46.74452" lon="5.55072">
        <ele>274.01022</ele>
        <time>2022-04-01T16:36:53.380Z</time>
      </trkpt>
      <trkpt lat="46.74426" lon="5.55182">
        <ele>274.85835</ele>
        <time>2022-04-01T16:37:12.671Z</time>
      </trkpt>
      <trkpt lat="46.74345" lon="5.55461">
        <ele>277.314251</ele>
        <time>2022-04-01T16:38:04.371Z</time>
      </trkpt>
      <trkpt lat="46.74314" lon="5.55538">
        <ele>278.478339</ele>
        <time>2022-04-01T16:38:20.431Z</time>
      </trkpt>
      <trkpt lat="46.74309" lon="5.55554">
        <ele>278.744929</ele>
        <time>2022-04-01T16:38:23.430Z</time>
      </trkpt>
      <trkpt lat="46.74248" lon="5.55546">
        <ele>280.151897</ele>
        <time>2022-04-01T16:38:37.118Z</time>
      </trkpt>
      <trkpt lat="46.74115" lon="5.55542">
        <ele>284.375689</ele>
        <time>2022-04-01T16:39:14.365Z</time>
      </trkpt>
      <trkpt lat="46.73919" lon="5.55508">
        <ele>291.991844</ele>
        <time>2022-04-01T16:40:20.244Z</time>
      </trkpt>
      <trkpt lat="46.73691" lon="5.55481">
        <ele>297.100844</ele>
        <time>2022-04-01T16:41:16.467Z</time>
      </trkpt>
      <trkpt lat="46.73585" lon="5.55491">
        <ele>296.661124</ele>
        <time>2022-04-01T16:41:29.171Z</time>
      </trkpt>
      <trkpt lat="46.73544" lon="5.55501">
        <ele>295.858484</ele>
        <time>2022-04-01T16:41:33.716Z</time>
      </trkpt>
      <trkpt lat="46.735" lon="5.55516">
        <ele>294.989025</ele>
        <time>2022-04-01T16:41:38.505Z</time>
      </trkpt>
      <trkpt lat="46.73372" lon="5.55584">
        <ele>290.962993</ele>
        <time>2022-04-01T16:41:52.504Z</time>
      </trkpt>
      <trkpt lat="46.73318" lon="5.55603">
        <ele>289.087182</ele>
        <time>2022-04-01T16:41:58.153Z</time>
      </trkpt>
      <trkpt lat="46.73318" lon="5.55603">
        <ele>289.087182</ele>
        <time>2022-04-01T16:41:58.160Z</time>
      </trkpt>
      <trkpt lat="46.73331" lon="5.55653">
        <ele>287.785396</ele>
        <time>2022-04-01T16:42:01.754Z</time>
      </trkpt>
      <trkpt lat="46.73351" lon="5.55696">
        <ele>286.430235</ele>
        <time>2022-04-01T16:42:05.104Z</time>
      </trkpt>
      <trkpt lat="46.73358" lon="5.55734">
        <ele>285.390182</ele>
        <time>2022-04-01T16:42:07.666Z</time>
      </trkpt>
      <trkpt lat="46.73351" lon="5.55853">
        <ele>282.256482</ele>
        <time>2022-04-01T16:42:15.614Z</time>
      </trkpt>
      <trkpt lat="46.73356" lon="5.55882">
        <ele>281.460809</ele>
        <time>2022-04-01T16:42:17.780Z</time>
      </trkpt>
      <trkpt lat="46.7336" lon="5.55908">
        <ele>281.191722</ele>
        <time>2022-04-01T16:42:19.835Z</time>
      </trkpt>
      <trkpt lat="46.73367" lon="5.55939">
        <ele>280.950488</ele>
        <time>2022-04-01T16:42:22.228Z</time>
      </trkpt>
      <trkpt lat="46.7337" lon="5.55949">
        <ele>280.875616</ele>
        <time>2022-04-01T16:42:23.022Z</time>
      </trkpt>
      <trkpt lat="46.73374" lon="5.55966">
        <ele>280.741841</ele>
        <time>2022-04-01T16:42:24.448Z</time>
      </trkpt>
      <trkpt lat="46.73394" lon="5.56053">
        <ele>280.072967</ele>
        <time>2022-04-01T16:42:32.375Z</time>
      </trkpt>
      <trkpt lat="46.73414" lon="5.56072">
        <ele>279.815537</ele>
        <time>2022-04-01T16:42:35.688Z</time>
      </trkpt>
      <trkpt lat="46.73454" lon="5.56056">
        <ele>279.413761</ele>
        <time>2022-04-01T16:42:42.347Z</time>
      </trkpt>
      <trkpt lat="46.73493" lon="5.56054">
        <ele>279.247947</ele>
        <time>2022-04-01T16:42:48.903Z</time>
      </trkpt>
      <trkpt lat="46.7367" lon="5.56093">
        <ele>278.351861</ele>
        <time>2022-04-01T16:43:11.816Z</time>
      </trkpt>
      <trkpt lat="46.73704" lon="5.56114">
        <ele>278.071896</ele>
        <time>2022-04-01T16:43:16.378Z</time>
      </trkpt>
      <trkpt lat="46.73811" lon="5.56244">
        <ele>277.109656</ele>
        <time>2022-04-01T16:43:34.070Z</time>
      </trkpt>
      <trkpt lat="46.73841" lon="5.56272">
        <ele>276.930889</ele>
        <time>2022-04-01T16:43:38.501Z</time>
      </trkpt>
      <trkpt lat="46.739" lon="5.563">
        <ele>276.611277</ele>
        <time>2022-04-01T16:43:46.833Z</time>
      </trkpt>
      <trkpt lat="46.7399" lon="5.56331">
        <ele>276.644695</ele>
        <time>2022-04-01T16:44:00.068Z</time>
      </trkpt>
      <trkpt lat="46.7405" lon="5.56351">
        <ele>276.949983</ele>
        <time>2022-04-01T16:44:09.873Z</time>
      </trkpt>
      <trkpt lat="46.74159" lon="5.56408">
        <ele>277.701111</ele>
        <time>2022-04-01T16:44:32.096Z</time>
      </trkpt>
      <trkpt lat="46.74226" lon="5.56461">
        <ele>278.37182</ele>
        <time>2022-04-01T16:44:47.413Z</time>
      </trkpt>
      <trkpt lat="46.74263" lon="5.56503">
        <ele>278.786583</ele>
        <time>2022-04-01T16:44:55.525Z</time>
      </trkpt>
      <trkpt lat="46.74329" lon="5.56596">
        <ele>277.747682</ele>
        <time>2022-04-01T16:45:08.426Z</time>
      </trkpt>
      <trkpt lat="46.7434" lon="5.56641">
        <ele>277.313165</ele>
        <time>2022-04-01T16:45:12.283Z</time>
      </trkpt>
      <trkpt lat="46.74356" lon="5.56778">
        <ele>275.195069</ele>
        <time>2022-04-01T16:45:22.083Z</time>
      </trkpt>
      <trkpt lat="46.7437" lon="5.56819">
        <ele>273.911163</ele>
        <time>2022-04-01T16:45:25.116Z</time>
      </trkpt>
      <trkpt lat="46.74396" lon="5.56848">
        <ele>272.552007</ele>
        <time>2022-04-01T16:45:28.320Z</time>
      </trkpt>
      <trkpt lat="46.74497" lon="5.56928">
        <ele>267.88522</ele>
        <time>2022-04-01T16:45:39.279Z</time>
      </trkpt>
      <trkpt lat="46.74614" lon="5.5695">
        <ele>263.080712</ele>
        <time>2022-04-01T16:45:50.771Z</time>
      </trkpt>
      <trkpt lat="46.74707" lon="5.56979">
        <ele>259.264153</ele>
        <time>2022-04-01T16:46:00.289Z</time>
      </trkpt>
      <trkpt lat="46.74719" lon="5.56988">
        <ele>258.723971</ele>
        <time>2022-04-01T16:46:01.629Z</time>
      </trkpt>
      <trkpt lat="46.74741" lon="5.5702">
        <ele>257.46098</ele>
        <time>2022-04-01T16:46:04.695Z</time>
      </trkpt>
      <trkpt lat="46.74792" lon="5.57129">
        <ele>253.956549</ele>
        <time>2022-04-01T16:46:13.303Z</time>
      </trkpt>
      <trkpt lat="46.7482" lon="5.57176">
        <ele>252.468538</ele>
        <time>2022-04-01T16:46:17.449Z</time>
      </trkpt>
      <trkpt lat="46.74853" lon="5.57233">
        <ele>250.681662</ele>
        <time>2022-04-01T16:46:22.516Z</time>
      </trkpt>
      <trkpt lat="46.74878" lon="5.57267">
        <ele>249.503297</ele>
        <time>2022-04-01T16:46:25.955Z</time>
      </trkpt>
      <trkpt lat="46.74893" lon="5.57279">
        <ele>248.907128</ele>
        <time>2022-04-01T16:46:27.761Z</time>
      </trkpt>
      <trkpt lat="46.74912" lon="5.5729">
        <ele>248.301824</ele>
        <time>2022-04-01T16:46:29.885Z</time>
      </trkpt>
      <trkpt lat="46.74949" lon="5.57297">
        <ele>247.951059</ele>
        <time>2022-04-01T16:46:34.117Z</time>
      </trkpt>
      <trkpt lat="46.75081" lon="5.57293">
        <ele>246.732835</ele>
        <time>2022-04-01T16:46:52.353Z</time>
      </trkpt>
      <trkpt lat="46.75361" lon="5.57252">
        <ele>244.933145</ele>
        <time>2022-04-01T16:47:28.278Z</time>
      </trkpt>
      <trkpt lat="46.75417" lon="5.57318">
        <ele>244.521974</ele>
        <time>2022-04-01T16:47:37.775Z</time>
      </trkpt>
      <trkpt lat="46.7543" lon="5.57333">
        <ele>244.46622</ele>
        <time>2022-04-01T16:47:40.052Z</time>
      </trkpt>
      <trkpt lat="46.75445" lon="5.57342">
        <ele>244.51248</ele>
        <time>2022-04-01T16:47:42.276Z</time>
      </trkpt>
      <trkpt lat="46.75495" lon="5.57373">
        <ele>244.662997</ele>
        <time>2022-04-01T16:47:49.922Z</time>
      </trkpt>
      <trkpt lat="46.75565" lon="5.574">
        <ele>244.868486</ele>
        <time>2022-04-01T16:48:02.106Z</time>
      </trkpt>
      <trkpt lat="46.7558" lon="5.57411">
        <ele>244.91379</ele>
        <time>2022-04-01T16:48:05.271Z</time>
      </trkpt>
      <trkpt lat="46.75583" lon="5.57462">
        <ele>245.130641</ele>
        <time>2022-04-01T16:48:11.962Z</time>
      </trkpt>
      <trkpt lat="46.75595" lon="5.57493">
        <ele>245.353537</ele>
        <time>2022-04-01T16:48:16.387Z</time>
      </trkpt>
      <trkpt lat="46.7562" lon="5.57517">
        <ele>245.620783</ele>
        <time>2022-04-01T16:48:21.429Z</time>
      </trkpt>
      <trkpt lat="46.75633" lon="5.57527">
        <ele>245.74873</ele>
        <time>2022-04-01T16:48:23.952Z</time>
      </trkpt>
      <trkpt lat="46.75708" lon="5.57589">
        <ele>246.532589</ele>
        <time>2022-04-01T16:48:39.513Z</time>
      </trkpt>
      <trkpt lat="46.75759" lon="5.57646">
        <ele>247.601889</ele>
        <time>2022-04-01T16:48:53.525Z</time>
      </trkpt>
      <trkpt lat="46.75804" lon="5.57714">
        <ele>248.724355</ele>
        <time>2022-04-01T16:49:08.383Z</time>
      </trkpt>
      <trkpt lat="46.75845" lon="5.57775">
        <ele>249.738338</ele>
        <time>2022-04-01T16:49:21.555Z</time>
      </trkpt>
      <trkpt lat="46.75905" lon="5.57863">
        <ele>250.788998</ele>
        <time>2022-04-01T16:49:39.649Z</time>
      </trkpt>
      <trkpt lat="46.75988" lon="5.57987">
        <ele>251.856243</ele>
        <time>2022-04-01T16:50:02.151Z</time>
      </trkpt>
      <trkpt lat="46.76064" lon="5.58108">
        <ele>251.431312</ele>
        <time>2022-04-01T16:50:16.499Z</time>
      </trkpt>
      <trkpt lat="46.76091" lon="5.58139">
        <ele>251.29807</ele>
        <time>2022-04-01T16:50:20.822Z</time>
      </trkpt>
      <trkpt lat="46.76088" lon="5.58171">
        <ele>251.136306</ele>
        <time>2022-04-01T16:50:24.641Z</time>
      </trkpt>
      <trkpt lat="46.76097" lon="5.58197">
        <ele>250.944838</ele>
        <time>2022-04-01T16:50:28.178Z</time>
      </trkpt>
      <trkpt lat="46.76114" lon="5.58247">
        <ele>250.591837</ele>
        <time>2022-04-01T16:50:34.590Z</time>
      </trkpt>
      <trkpt lat="46.76165" lon="5.58459">
        <ele>249.613579</ele>
        <time>2022-04-01T16:51:01.541Z</time>
      </trkpt>
      <trkpt lat="46.76198" lon="5.58573">
        <ele>249.666266</ele>
        <time>2022-04-01T16:51:19.798Z</time>
      </trkpt>
      <trkpt lat="46.76209" lon="5.58626">
        <ele>249.689966</ele>
        <time>2022-04-01T16:51:26.366Z</time>
      </trkpt>
      <trkpt lat="46.76245" lon="5.58794">
        <ele>250.406645</ele>
        <time>2022-04-01T16:51:47.748Z</time>
      </trkpt>
      <trkpt lat="46.76264" lon="5.58879">
        <ele>250.803161</ele>
        <time>2022-04-01T16:51:58.421Z</time>
      </trkpt>
      <trkpt lat="46.76267" lon="5.58893">
        <ele>250.861618</ele>
        <time>2022-04-01T16:52:00.138Z</time>
      </trkpt>
      <trkpt lat="46.76292" lon="5.59008">
        <ele>251.132505</ele>
        <time>2022-04-01T16:52:13.710Z</time>
      </trkpt>
      <trkpt lat="46.7631" lon="5.59084">
        <ele>251.311669</ele>
        <time>2022-04-01T16:52:22.268Z</time>
      </trkpt>
      <trkpt lat="46.76321" lon="5.59135">
        <ele>251.431115</ele>
        <time>2022-04-01T16:52:28.072Z</time>
      </trkpt>
      <trkpt lat="46.76337" lon="5.59203">
        <ele>251.583419</ele>
        <time>2022-04-01T16:52:35.847Z</time>
      </trkpt>
      <trkpt lat="46.76379" lon="5.59389">
        <ele>251.999718</ele>
        <time>2022-04-01T16:52:57.638Z</time>
      </trkpt>
      <trkpt lat="46.76387" lon="5.59407">
        <ele>251.975896</ele>
        <time>2022-04-01T16:53:00.032Z</time>
      </trkpt>
      <trkpt lat="46.76392" lon="5.59411">
        <ele>251.965114</ele>
        <time>2022-04-01T16:53:01.021Z</time>
      </trkpt>
      <trkpt lat="46.76387" lon="5.59501">
        <ele>251.85497</ele>
        <time>2022-04-01T16:53:10.608Z</time>
      </trkpt>
      <trkpt lat="46.76394" lon="5.59502">
        <ele>251.842654</ele>
        <time>2022-04-01T16:53:11.610Z</time>
      </trkpt>
      <trkpt lat="46.76486" lon="5.59444">
        <ele>251.550228</ele>
        <time>2022-04-01T16:53:25.261Z</time>
      </trkpt>
      <trkpt lat="46.76491" lon="5.59441">
        <ele>251.475795</ele>
        <time>2022-04-01T16:53:25.953Z</time>
      </trkpt>
      <trkpt lat="46.76499" lon="5.59437">
        <ele>251.367207</ele>
        <time>2022-04-01T16:53:26.956Z</time>
      </trkpt>
      <trkpt lat="46.76674" lon="5.5933">
        <ele>248.382261</ele>
        <time>2022-04-01T16:53:48.859Z</time>
      </trkpt>
      <trkpt lat="46.76682" lon="5.59325">
        <ele>248.176841</ele>
        <time>2022-04-01T16:53:49.718Z</time>
      </trkpt>
      <trkpt lat="46.76691" lon="5.59319">
        <ele>247.908048</ele>
        <time>2022-04-01T16:53:50.851Z</time>
      </trkpt>
      <trkpt lat="46.7672" lon="5.59298">
        <ele>247.091388</ele>
        <time>2022-04-01T16:53:54.226Z</time>
      </trkpt>
      <trkpt lat="46.76723" lon="5.59297">
        <ele>247.030075</ele>
        <time>2022-04-01T16:53:54.478Z</time>
      </trkpt>
      <trkpt lat="46.76927" lon="5.59162">
        <ele>240.976896</ele>
        <time>2022-04-01T16:54:17.461Z</time>
      </trkpt>
      <trkpt lat="46.76994" lon="5.59134">
        <ele>239.303494</ele>
        <time>2022-04-01T16:54:24.789Z</time>
      </trkpt>
      <trkpt lat="46.77019" lon="5.59117">
        <ele>238.888595</ele>
        <time>2022-04-01T16:54:27.849Z</time>
      </trkpt>
      <trkpt lat="46.77043" lon="5.5907">
        <ele>238.290864</ele>
        <time>2022-04-01T16:54:32.380Z</time>
      </trkpt>
      <trkpt lat="46.77053" lon="5.59046">
        <ele>238.010356</ele>
        <time>2022-04-01T16:54:34.576Z</time>
      </trkpt>
      <trkpt lat="46.77088" lon="5.58965">
        <ele>237.030581</ele>
        <time>2022-04-01T16:54:42.623Z</time>
      </trkpt>
      <trkpt lat="46.77161" lon="5.58841">
        <ele>236.614483</ele>
        <time>2022-04-01T16:54:58.101Z</time>
      </trkpt>
      <trkpt lat="46.7719" lon="5.58808">
        <ele>236.501321</ele>
        <time>2022-04-01T16:55:03.124Z</time>
      </trkpt>
      <trkpt lat="46.77266" lon="5.58756">
        <ele>236.323192</ele>
        <time>2022-04-01T16:55:15.408Z</time>
      </trkpt>
      <trkpt lat="46.77271" lon="5.58754">
        <ele>236.316657</ele>
        <time>2022-04-01T16:55:16.195Z</time>
      </trkpt>
      <trkpt lat="46.77304" lon="5.58753">
        <ele>236.272845</ele>
        <time>2022-04-01T16:55:21.109Z</time>
      </trkpt>
      <trkpt lat="46.77331" lon="5.58758">
        <ele>236.236684</ele>
        <time>2022-04-01T16:55:24.902Z</time>
      </trkpt>
      <trkpt lat="46.77382" lon="5.58782">
        <ele>236.165643</ele>
        <time>2022-04-01T16:55:32.857Z</time>
      </trkpt>
      <trkpt lat="46.77449" lon="5.5883">
        <ele>235.939767</ele>
        <time>2022-04-01T16:55:42.869Z</time>
      </trkpt>
      <trkpt lat="46.77471" lon="5.58829">
        <ele>235.864231</ele>
        <time>2022-04-01T16:55:45.671Z</time>
      </trkpt>
      <trkpt lat="46.77486" lon="5.58818">
        <ele>235.807159</ele>
        <time>2022-04-01T16:55:48.423Z</time>
      </trkpt>
      <trkpt lat="46.77614" lon="5.58629">
        <ele>235.205027</ele>
        <time>2022-04-01T16:56:13.207Z</time>
      </trkpt>
      <trkpt lat="46.77654" lon="5.58553">
        <ele>234.992896</ele>
        <time>2022-04-01T16:56:21.890Z</time>
      </trkpt>
      <trkpt lat="46.77685" lon="5.58435">
        <ele>235.49031</ele>
        <time>2022-04-01T16:56:34.372Z</time>
      </trkpt>
      <trkpt lat="46.77756" lon="5.58255">
        <ele>237.247139</ele>
        <time>2022-04-01T16:57:02.574Z</time>
      </trkpt>
      <trkpt lat="46.77757" lon="5.58253">
        <ele>237.305169</ele>
        <time>2022-04-01T16:57:03.078Z</time>
      </trkpt>
      <trkpt lat="46.7776" lon="5.58245">
        <ele>237.473335</ele>
        <time>2022-04-01T16:57:04.571Z</time>
      </trkpt>
      <trkpt lat="46.77803" lon="5.58118">
        <ele>240.150277</ele>
        <time>2022-04-01T16:57:30.053Z</time>
      </trkpt>
      <trkpt lat="46.77821" lon="5.58085">
        <ele>240.947605</ele>
        <time>2022-04-01T16:57:38.712Z</time>
      </trkpt>
      <trkpt lat="46.77919" lon="5.57989">
        <ele>245.973899</ele>
        <time>2022-04-01T16:58:16.870Z</time>
      </trkpt>
      <trkpt lat="46.77919" lon="5.57989">
        <ele>245.973899</ele>
        <time>2022-04-01T16:58:16.991Z</time>
      </trkpt>
      <trkpt lat="46.77945" lon="5.57912">
        <ele>248.591418</ele>
        <time>2022-04-01T16:58:36.995Z</time>
      </trkpt>
      <trkpt lat="46.77974" lon="5.57807">
        <ele>251.503387</ele>
        <time>2022-04-01T16:59:01.437Z</time>
      </trkpt>
      <trkpt lat="46.77995" lon="5.57744">
        <ele>253.262905</ele>
        <time>2022-04-01T16:59:15.632Z</time>
      </trkpt>
      <trkpt lat="46.78096" lon="5.57777">
        <ele>257.129987</ele>
        <time>2022-04-01T16:59:43.682Z</time>
      </trkpt>
      <trkpt lat="46.78113" lon="5.57785">
        <ele>257.81061</ele>
        <time>2022-04-01T16:59:47.566Z</time>
      </trkpt>
      <trkpt lat="46.7816" lon="5.57833">
        <ele>260.051117</ele>
        <time>2022-04-01T17:00:03.356Z</time>
      </trkpt>
      <trkpt lat="46.78207" lon="5.57867">
        <ele>262.085949</ele>
        <time>2022-04-01T17:00:19.654Z</time>
      </trkpt>
      <trkpt lat="46.78216" lon="5.57847">
        <ele>262.719832</ele>
        <time>2022-04-01T17:00:26.890Z</time>
      </trkpt>
      <trkpt lat="46.78256" lon="5.57841">
        <ele>266.675619</ele>
        <time>2022-04-01T17:00:45.086Z</time>
      </trkpt>
      <trkpt lat="46.78283" lon="5.57819">
        <ele>269.704084</ele>
        <time>2022-04-01T17:01:01.423Z</time>
      </trkpt>
      <trkpt lat="46.78369" lon="5.57812">
        <ele>278.300717</ele>
        <time>2022-04-01T17:01:57.804Z</time>
      </trkpt>
      <trkpt lat="46.78376" lon="5.5773">
        <ele>285.591902</ele>
        <time>2022-04-01T17:02:42.203Z</time>
      </trkpt>
      <trkpt lat="46.78392" lon="5.57667">
        <ele>292.486678</ele>
        <time>2022-04-01T17:03:17.245Z</time>
      </trkpt>
      <trkpt lat="46.78399" lon="5.57655">
        <ele>294.138524</ele>
        <time>2022-04-01T17:03:24.997Z</time>
      </trkpt>
      <trkpt lat="46.78414" lon="5.57626">
        <ele>297.88006</ele>
        <time>2022-04-01T17:03:44.343Z</time>
      </trkpt>
      <trkpt lat="46.78423" lon="5.57596">
        <ele>301.163097</ele>
        <time>2022-04-01T17:04:03.926Z</time>
      </trkpt>
      <trkpt lat="46.78365" lon="5.57439">
        <ele>318.422282</ele>
        <time>2022-04-01T17:05:52.445Z</time>
      </trkpt>
      <trkpt lat="46.78362" lon="5.57421">
        <ele>320.17195</ele>
        <time>2022-04-01T17:06:00.303Z</time>
      </trkpt>
      <trkpt lat="46.78365" lon="5.57404">
        <ele>321.757747</ele>
        <time>2022-04-01T17:06:11.490Z</time>
      </trkpt>
      <trkpt lat="46.78379" lon="5.57355">
        <ele>326.847428</ele>
        <time>2022-04-01T17:06:35.135Z</time>
      </trkpt>
      <trkpt lat="46.78383" lon="5.57292">
        <ele>332.297815</ele>
        <time>2022-04-01T17:07:00.501Z</time>
      </trkpt>
      <trkpt lat="46.78372" lon="5.57191">
        <ele>336.083816</ele>
        <time>2022-04-01T17:07:40.262Z</time>
      </trkpt>
      <trkpt lat="46.78367" lon="5.57096">
        <ele>339.580034</ele>
        <time>2022-04-01T17:08:03.280Z</time>
      </trkpt>
      <trkpt lat="46.78353" lon="5.57026">
        <ele>341.646443</ele>
        <time>2022-04-01T17:08:15.311Z</time>
      </trkpt>
      <trkpt lat="46.78311" lon="5.56871">
        <ele>341.209903</ele>
        <time>2022-04-01T17:08:38.794Z</time>
      </trkpt>
      <trkpt lat="46.78313" lon="5.5684">
        <ele>341.128406</ele>
        <time>2022-04-01T17:08:42.316Z</time>
      </trkpt>
      <trkpt lat="46.78319" lon="5.56815">
        <ele>341.059195</ele>
        <time>2022-04-01T17:08:45.519Z</time>
      </trkpt>
      <trkpt lat="46.78349" lon="5.56734">
        <ele>337.662806</ele>
        <time>2022-04-01T17:08:55.051Z</time>
      </trkpt>
      <trkpt lat="46.78349" lon="5.56725">
        <ele>337.245103</ele>
        <time>2022-04-01T17:08:55.924Z</time>
      </trkpt>
      <trkpt lat="46.78351" lon="5.56718">
        <ele>336.881454</ele>
        <time>2022-04-01T17:08:56.652Z</time>
      </trkpt>
      <trkpt lat="46.78358" lon="5.56699">
        <ele>335.819304</ele>
        <time>2022-04-01T17:08:58.597Z</time>
      </trkpt>
      <trkpt lat="46.78406" lon="5.56657">
        <ele>331.871809</ele>
        <time>2022-04-01T17:09:05.692Z</time>
      </trkpt>
      <trkpt lat="46.78472" lon="5.56614">
        <ele>325.512853</ele>
        <time>2022-04-01T17:09:14.321Z</time>
      </trkpt>
      <trkpt lat="46.78489" lon="5.56554">
        <ele>319.710781</ele>
        <time>2022-04-01T17:09:19.536Z</time>
      </trkpt>
      <trkpt lat="46.78494" lon="5.56515">
        <ele>316.117671</ele>
        <time>2022-04-01T17:09:22.783Z</time>
      </trkpt>
      <trkpt lat="46.7849" lon="5.56503">
        <ele>314.932372</ele>
        <time>2022-04-01T17:09:23.835Z</time>
      </trkpt>
      <trkpt lat="46.78502" lon="5.56448">
        <ele>309.790574</ele>
        <time>2022-04-01T17:09:28.462Z</time>
      </trkpt>
      <trkpt lat="46.78504" lon="5.56436">
        <ele>308.68071</ele>
        <time>2022-04-01T17:09:29.464Z</time>
      </trkpt>
      <trkpt lat="46.78515" lon="5.56353">
        <ele>302.397028</ele>
        <time>2022-04-01T17:09:36.275Z</time>
      </trkpt>
      <trkpt lat="46.78494" lon="5.5633">
        <ele>300.153494</ele>
        <time>2022-04-01T17:09:39.460Z</time>
      </trkpt>
      <trkpt lat="46.78468" lon="5.56314">
        <ele>297.745158</ele>
        <time>2022-04-01T17:09:42.935Z</time>
      </trkpt>
      <trkpt lat="46.78448" lon="5.5622">
        <ele>292.014064</ele>
        <time>2022-04-01T17:09:51.549Z</time>
      </trkpt>
      <trkpt lat="46.78416" lon="5.56206">
        <ele>289.471087</ele>
        <time>2022-04-01T17:09:56.042Z</time>
      </trkpt>
      <trkpt lat="46.78401" lon="5.56188">
        <ele>289.375486</ele>
        <time>2022-04-01T17:09:58.866Z</time>
      </trkpt>
      <trkpt lat="46.78431" lon="5.56166">
        <ele>289.207929</ele>
        <time>2022-04-01T17:10:02.857Z</time>
      </trkpt>
      <trkpt lat="46.78442" lon="5.5615">
        <ele>289.133024</ele>
        <time>2022-04-01T17:10:04.629Z</time>
      </trkpt>
      <trkpt lat="46.78451" lon="5.56126">
        <ele>289.041906</ele>
        <time>2022-04-01T17:10:08.964Z</time>
      </trkpt>
      <trkpt lat="46.78457" lon="5.56105">
        <ele>288.966004</ele>
        <time>2022-04-01T17:10:11.422Z</time>
      </trkpt>
      <trkpt lat="46.7847" lon="5.56107">
        <ele>288.899667</ele>
        <time>2022-04-01T17:10:14.917Z</time>
      </trkpt>
      <trkpt lat="46.78496" lon="5.56131">
        <ele>288.75069</ele>
        <time>2022-04-01T17:10:21.565Z</time>
      </trkpt>
      <trkpt lat="46.78529" lon="5.56203">
        <ele>288.372589</ele>
        <time>2022-04-01T17:10:34.404Z</time>
      </trkpt>
      <trkpt lat="46.78548" lon="5.56259">
        <ele>288.034364</ele>
        <time>2022-04-01T17:10:42.265Z</time>
      </trkpt>
      <trkpt lat="46.78568" lon="5.56279">
        <ele>287.845101</ele>
        <time>2022-04-01T17:10:46.715Z</time>
      </trkpt>
      <trkpt lat="46.7861" lon="5.56276">
        <ele>287.512838</ele>
        <time>2022-04-01T17:10:51.672Z</time>
      </trkpt>
      <trkpt lat="46.78673" lon="5.56258">
        <ele>285.627903</ele>
        <time>2022-04-01T17:10:58.058Z</time>
      </trkpt>
      <trkpt lat="46.78695" lon="5.56259">
        <ele>284.171909</ele>
        <time>2022-04-01T17:11:00.059Z</time>
      </trkpt>
      <trkpt lat="46.78804" lon="5.56284">
        <ele>276.943049</ele>
        <time>2022-04-01T17:11:09.746Z</time>
      </trkpt>
      <trkpt lat="46.78889" lon="5.56251">
        <ele>273.913761</ele>
        <time>2022-04-01T17:11:17.822Z</time>
      </trkpt>
      <trkpt lat="46.78901" lon="5.56245">
        <ele>273.633455</ele>
        <time>2022-04-01T17:11:19.053Z</time>
      </trkpt>
      <trkpt lat="46.78971" lon="5.56214">
        <ele>272.00177</ele>
        <time>2022-04-01T17:11:27.307Z</time>
      </trkpt>
      <trkpt lat="46.7908" lon="5.56167">
        <ele>276.439778</ele>
        <time>2022-04-01T17:12:05.176Z</time>
      </trkpt>
      <trkpt lat="46.79104" lon="5.56162">
        <ele>277.915199</ele>
        <time>2022-04-01T17:12:14.877Z</time>
      </trkpt>
      <trkpt lat="46.79126" lon="5.5616">
        <ele>279.302081</ele>
        <time>2022-04-01T17:12:26.232Z</time>
      </trkpt>
      <trkpt lat="46.79275" lon="5.5615">
        <ele>290.265444</ele>
        <time>2022-04-01T17:13:39.232Z</time>
      </trkpt>
      <trkpt lat="46.79393" lon="5.56177">
        <ele>298.785765</ele>
        <time>2022-04-01T17:14:31.714Z</time>
      </trkpt>
      <trkpt lat="46.79409" lon="5.56173">
        <ele>299.698056</ele>
        <time>2022-04-01T17:14:38.766Z</time>
      </trkpt>
      <trkpt lat="46.79433" lon="5.56154">
        <ele>301.24166</ele>
        <time>2022-04-01T17:14:50.771Z</time>
      </trkpt>
      <trkpt lat="46.79491" lon="5.5609">
        <ele>305.260329</ele>
        <time>2022-04-01T17:15:16.646Z</time>
      </trkpt>
      <trkpt lat="46.79516" lon="5.56079">
        <ele>306.624902</ele>
        <time>2022-04-01T17:15:23.481Z</time>
      </trkpt>
      <trkpt lat="46.79559" lon="5.56072">
        <ele>306.867366</ele>
        <time>2022-04-01T17:15:34.283Z</time>
      </trkpt>
      <trkpt lat="46.79577" lon="5.56049">
        <ele>306.996353</ele>
        <time>2022-04-01T17:15:38.144Z</time>
      </trkpt>
      <trkpt lat="46.79598" lon="5.56009">
        <ele>307.187377</ele>
        <time>2022-04-01T17:15:43.244Z</time>
      </trkpt>
      <trkpt lat="46.79645" lon="5.55963">
        <ele>307.50092</ele>
        <time>2022-04-01T17:15:51.100Z</time>
      </trkpt>
      <trkpt lat="46.79651" lon="5.55961">
        <ele>307.531343</ele>
        <time>2022-04-01T17:15:51.844Z</time>
      </trkpt>
      <trkpt lat="46.79673" lon="5.55965">
        <ele>307.402773</ele>
        <time>2022-04-01T17:15:54.817Z</time>
      </trkpt>
      <trkpt lat="46.79775" lon="5.56109">
        <ele>303.781532</ele>
        <time>2022-04-01T17:16:09.713Z</time>
      </trkpt>
      <trkpt lat="46.79813" lon="5.56153">
        <ele>302.435526</ele>
        <time>2022-04-01T17:16:14.490Z</time>
      </trkpt>
      <trkpt lat="46.79917" lon="5.56182">
        <ele>299.143995</ele>
        <time>2022-04-01T17:16:24.880Z</time>
      </trkpt>
      <trkpt lat="46.80034" lon="5.56303">
        <ele>296.718981</ele>
        <time>2022-04-01T17:16:40.742Z</time>
      </trkpt>
      <trkpt lat="46.80038" lon="5.56329">
        <ele>296.574396</ele>
        <time>2022-04-01T17:16:44.337Z</time>
      </trkpt>
      <trkpt lat="46.80037" lon="5.56499">
        <ele>295.346592</ele>
        <time>2022-04-01T17:17:02.199Z</time>
      </trkpt>
      <trkpt lat="46.80058" lon="5.56563">
        <ele>294.601387</ele>
        <time>2022-04-01T17:17:08.859Z</time>
      </trkpt>
      <trkpt lat="46.80064" lon="5.56621">
        <ele>293.989417</ele>
        <time>2022-04-01T17:17:13.940Z</time>
      </trkpt>
      <trkpt lat="46.80051" lon="5.56705">
        <ele>292.541318</ele>
        <time>2022-04-01T17:17:19.941Z</time>
      </trkpt>
      <trkpt lat="46.80059" lon="5.56789">
        <ele>288.461729</ele>
        <time>2022-04-01T17:17:25.137Z</time>
      </trkpt>
      <trkpt lat="46.80064" lon="5.56874">
        <ele>284.350241</ele>
        <time>2022-04-01T17:17:30.300Z</time>
      </trkpt>
      <trkpt lat="46.80082" lon="5.56936">
        <ele>281.119972</ele>
        <time>2022-04-01T17:17:36.004Z</time>
      </trkpt>
      <trkpt lat="46.80112" lon="5.57015">
        <ele>277.236131</ele>
        <time>2022-04-01T17:17:43.874Z</time>
      </trkpt>
      <trkpt lat="46.80138" lon="5.57057">
        <ele>274.889306</ele>
        <time>2022-04-01T17:17:48.658Z</time>
      </trkpt>
      <trkpt lat="46.802" lon="5.57122">
        <ele>270.190035</ele>
        <time>2022-04-01T17:17:58.958Z</time>
      </trkpt>
      <trkpt lat="46.80273" lon="5.57175">
        <ele>268.620915</ele>
        <time>2022-04-01T17:18:12.112Z</time>
      </trkpt>
      <trkpt lat="46.80299" lon="5.57238">
        <ele>267.958668</ele>
        <time>2022-04-01T17:18:21.682Z</time>
      </trkpt>
      <trkpt lat="46.80315" lon="5.5726">
        <ele>267.665376</ele>
        <time>2022-04-01T17:18:25.745Z</time>
      </trkpt>
      <trkpt lat="46.80372" lon="5.57333">
        <ele>266.681832</ele>
        <time>2022-04-01T17:18:39.861Z</time>
      </trkpt>
      <trkpt lat="46.80463" lon="5.57409">
        <ele>265.340754</ele>
        <time>2022-04-01T17:18:58.059Z</time>
      </trkpt>
      <trkpt lat="46.80477" lon="5.57427">
        <ele>265.108556</ele>
        <time>2022-04-01T17:19:00.942Z</time>
      </trkpt>
      <trkpt lat="46.80489" lon="5.5746">
        <ele>264.56744</ele>
        <time>2022-04-01T17:19:04.776Z</time>
      </trkpt>
      <trkpt lat="46.80498" lon="5.5753">
        <ele>262.724314</ele>
        <time>2022-04-01T17:19:11.952Z</time>
      </trkpt>
      <trkpt lat="46.80489" lon="5.57578">
        <ele>261.444022</ele>
        <time>2022-04-01T17:19:16.826Z</time>
      </trkpt>
      <trkpt lat="46.80484" lon="5.57668">
        <ele>259.121028</ele>
        <time>2022-04-01T17:19:25.464Z</time>
      </trkpt>
      <trkpt lat="46.80514" lon="5.57681">
        <ele>257.868336</ele>
        <time>2022-04-01T17:19:56.180Z</time>
      </trkpt>
      <trkpt lat="46.80603" lon="5.57737">
        <ele>253.073237</ele>
        <time>2022-04-01T17:21:28.446Z</time>
      </trkpt>
      <trkpt lat="46.80638" lon="5.57862">
        <ele>248.964933</ele>
        <time>2022-04-01T17:22:58.089Z</time>
      </trkpt>
      <trkpt lat="46.80639" lon="5.57898">
        <ele>248.515572</ele>
        <time>2022-04-01T17:23:23.323Z</time>
      </trkpt>
      <trkpt lat="46.8063" lon="5.57917">
        <ele>248.227961</ele>
        <time>2022-04-01T17:23:38.971Z</time>
      </trkpt>
      <trkpt lat="46.80614" lon="5.57938">
        <ele>247.836647</ele>
        <time>2022-04-01T17:23:42.295Z</time>
      </trkpt>
      <trkpt lat="46.80573" lon="5.57993">
        <ele>246.842423</ele>
        <time>2022-04-01T17:24:39.295Z</time>
      </trkpt>
      <trkpt lat="46.8056" lon="5.57979">
        <ele>246.553165</ele>
        <time>2022-04-01T17:24:42.362Z</time>
      </trkpt>
      <trkpt lat="46.80464" lon="5.57932">
        <ele>249.084712</ele>
        <time>2022-04-01T17:25:09.735Z</time>
      </trkpt>
      <trkpt lat="46.80403" lon="5.57887">
        <ele>252.109235</ele>
        <time>2022-04-01T17:25:40.123Z</time>
      </trkpt>
      <trkpt lat="46.80396" lon="5.57889">
        <ele>252.407289</ele>
        <time>2022-04-01T17:25:43.266Z</time>
      </trkpt>
      <trkpt lat="46.80321" lon="5.58124">
        <ele>262.37185</ele>
        <time>2022-04-01T17:27:39.699Z</time>
      </trkpt>
      <trkpt lat="46.80326" lon="5.58146">
        <ele>263.320037</ele>
        <time>2022-04-01T17:27:48.057Z</time>
      </trkpt>
      <trkpt lat="46.8035" lon="5.58202">
        <ele>264.931917</ele>
        <time>2022-04-01T17:28:09.293Z</time>
      </trkpt>
      <trkpt lat="46.80369" lon="5.58302">
        <ele>266.038621</ele>
        <time>2022-04-01T17:28:38.848Z</time>
      </trkpt>
      <trkpt lat="46.80372" lon="5.58362">
        <ele>266.679202</ele>
        <time>2022-04-01T17:28:53.693Z</time>
      </trkpt>
      <trkpt lat="46.80381" lon="5.58416">
        <ele>267.271919</ele>
        <time>2022-04-01T17:29:08.088Z</time>
      </trkpt>
      <trkpt lat="46.80383" lon="5.58425">
        <ele>267.403588</ele>
        <time>2022-04-01T17:29:10.947Z</time>
      </trkpt>
      <trkpt lat="46.80361" lon="5.58511">
        <ele>270.768679</ele>
        <time>2022-04-01T17:29:43.052Z</time>
      </trkpt>
      <trkpt lat="46.80356" lon="5.58568">
        <ele>272.852481</ele>
        <time>2022-04-01T17:30:07.144Z</time>
      </trkpt>
      <trkpt lat="46.80343" lon="5.58601">
        <ele>274.27755</ele>
        <time>2022-04-01T17:30:24.743Z</time>
      </trkpt>
      <trkpt lat="46.80312" lon="5.58656">
        <ele>276.891265</ele>
        <time>2022-04-01T17:30:58.767Z</time>
      </trkpt>
      <trkpt lat="46.80281" lon="5.58722">
        <ele>279.36414</ele>
        <time>2022-04-01T17:31:24.489Z</time>
      </trkpt>
      <trkpt lat="46.80271" lon="5.58769">
        <ele>280.881233</ele>
        <time>2022-04-01T17:31:38.671Z</time>
      </trkpt>
      <trkpt lat="46.80266" lon="5.58838">
        <ele>283.018612</ele>
        <time>2022-04-01T17:31:56.704Z</time>
      </trkpt>
      <trkpt lat="46.80258" lon="5.58837">
        <ele>283.373686</ele>
        <time>2022-04-01T17:31:59.231Z</time>
      </trkpt>
      <trkpt lat="46.80253" lon="5.58873">
        <ele>284.492112</ele>
        <time>2022-04-01T17:32:06.523Z</time>
      </trkpt>
      <trkpt lat="46.80253" lon="5.58961">
        <ele>285.152367</ele>
        <time>2022-04-01T17:32:15.799Z</time>
      </trkpt>
      <trkpt lat="46.80236" lon="5.58966">
        <ele>285.175357</ele>
        <time>2022-04-01T17:32:19.281Z</time>
      </trkpt>
      <trkpt lat="46.80209" lon="5.58985">
        <ele>285.212772</ele>
        <time>2022-04-01T17:32:24.821Z</time>
      </trkpt>
      <trkpt lat="46.80202" lon="5.58994">
        <ele>285.224067</ele>
        <time>2022-04-01T17:32:26.396Z</time>
      </trkpt>
      <trkpt lat="46.80173" lon="5.59102">
        <ele>285.326434</ele>
        <time>2022-04-01T17:32:41.409Z</time>
      </trkpt>
      <trkpt lat="46.80115" lon="5.5922">
        <ele>285.487097</ele>
        <time>2022-04-01T17:33:04.095Z</time>
      </trkpt>
      <trkpt lat="46.80101" lon="5.59263">
        <ele>285.540482</ele>
        <time>2022-04-01T17:33:11.739Z</time>
      </trkpt>
      <trkpt lat="46.80087" lon="5.59405">
        <ele>284.46041</ele>
        <time>2022-04-01T17:33:30.046Z</time>
      </trkpt>
      <trkpt lat="46.80071" lon="5.595">
        <ele>283.019143</ele>
        <time>2022-04-01T17:33:40.067Z</time>
      </trkpt>
      <trkpt lat="46.80056" lon="5.59541">
        <ele>282.327309</ele>
        <time>2022-04-01T17:33:44.711Z</time>
      </trkpt>
      <trkpt lat="46.79982" lon="5.5969">
        <ele>279.195156</ele>
        <time>2022-04-01T17:34:03.046Z</time>
      </trkpt>
      <trkpt lat="46.7996" lon="5.59719">
        <ele>278.421179</ele>
        <time>2022-04-01T17:34:07.592Z</time>
      </trkpt>
      <trkpt lat="46.79938" lon="5.59738">
        <ele>277.772274</ele>
        <time>2022-04-01T17:34:11.546Z</time>
      </trkpt>
      <trkpt lat="46.79897" lon="5.59796">
        <ele>276.924102</ele>
        <time>2022-04-01T17:34:20.924Z</time>
      </trkpt>
      <trkpt lat="46.79845" lon="5.59825">
        <ele>276.621306</ele>
        <time>2022-04-01T17:34:30.848Z</time>
      </trkpt>
      <trkpt lat="46.79782" lon="5.59879">
        <ele>276.217969</ele>
        <time>2022-04-01T17:34:44.600Z</time>
      </trkpt>
      <trkpt lat="46.79688" lon="5.5996">
        <ele>277.893825</ele>
        <time>2022-04-01T17:35:09.962Z</time>
      </trkpt>
      <trkpt lat="46.79657" lon="5.5999">
        <ele>278.648077</ele>
        <time>2022-04-01T17:35:21.178Z</time>
      </trkpt>
      <trkpt lat="46.79642" lon="5.60012">
        <ele>279.080573</ele>
        <time>2022-04-01T17:35:28.077Z</time>
      </trkpt>
      <trkpt lat="46.79515" lon="5.60208">
        <ele>285.941515</ele>
        <time>2022-04-01T17:36:37.562Z</time>
      </trkpt>
      <trkpt lat="46.79526" lon="5.60224">
        <ele>286.571932</ele>
        <time>2022-04-01T17:36:43.598Z</time>
      </trkpt>
      <trkpt lat="46.79589" lon="5.60274">
        <ele>288.570162</ele>
        <time>2022-04-01T17:37:07.409Z</time>
      </trkpt>
      <trkpt lat="46.79607" lon="5.60301">
        <ele>289.22857</ele>
        <time>2022-04-01T17:37:14.912Z</time>
      </trkpt>
      <trkpt lat="46.79612" lon="5.60324">
        <ele>289.647506</ele>
        <time>2022-04-01T17:37:19.497Z</time>
      </trkpt>
      <trkpt lat="46.79604" lon="5.60393">
        <ele>290.85302</ele>
        <time>2022-04-01T17:37:33.385Z</time>
      </trkpt>
      <trkpt lat="46.79641" lon="5.60427">
        <ele>291.777508</ele>
        <time>2022-04-01T17:37:42.911Z</time>
      </trkpt>
      <trkpt lat="46.79653" lon="5.60455">
        <ele>292.039339</ele>
        <time>2022-04-01T17:37:47.410Z</time>
      </trkpt>
      <trkpt lat="46.79647" lon="5.60487">
        <ele>292.308491</ele>
        <time>2022-04-01T17:37:52.517Z</time>
      </trkpt>
      <trkpt lat="46.79634" lon="5.60535">
        <ele>292.719294</ele>
        <time>2022-04-01T17:38:00.777Z</time>
      </trkpt>
      <trkpt lat="46.79642" lon="5.60575">
        <ele>293.053643</ele>
        <time>2022-04-01T17:38:06.135Z</time>
      </trkpt>
      <trkpt lat="46.79656" lon="5.606">
        <ele>293.31487</ele>
        <time>2022-04-01T17:38:09.170Z</time>
      </trkpt>
      <trkpt lat="46.79705" lon="5.60659">
        <ele>293.609811</ele>
        <time>2022-04-01T17:38:19.733Z</time>
      </trkpt>
      <trkpt lat="46.79715" lon="5.60695">
        <ele>293.514446</ele>
        <time>2022-04-01T17:38:23.822Z</time>
      </trkpt>
      <trkpt lat="46.79731" lon="5.60766">
        <ele>293.331089</ele>
        <time>2022-04-01T17:38:30.137Z</time>
      </trkpt>
      <trkpt lat="46.79734" lon="5.60817">
        <ele>293.206147</ele>
        <time>2022-04-01T17:38:34.503Z</time>
      </trkpt>
      <trkpt lat="46.79731" lon="5.60844">
        <ele>293.137415</ele>
        <time>2022-04-01T17:38:36.897Z</time>
      </trkpt>
      <trkpt lat="46.797" lon="5.60907">
        <ele>293.684322</ele>
        <time>2022-04-01T17:38:44.316Z</time>
      </trkpt>
      <trkpt lat="46.79694" lon="5.60941">
        <ele>294.130768</ele>
        <time>2022-04-01T17:38:47.517Z</time>
      </trkpt>
      <trkpt lat="46.79691" lon="5.6099">
        <ele>294.743385</ele>
        <time>2022-04-01T17:38:53.937Z</time>
      </trkpt>
      <trkpt lat="46.79687" lon="5.61041">
        <ele>295.397181</ele>
        <time>2022-04-01T17:39:02.225Z</time>
      </trkpt>
      <trkpt lat="46.7969" lon="5.61067">
        <ele>295.724464</ele>
        <time>2022-04-01T17:39:07.404Z</time>
      </trkpt>
      <trkpt lat="46.79706" lon="5.61093">
        <ele>296.166075</ele>
        <time>2022-04-01T17:39:14.556Z</time>
      </trkpt>
      <trkpt lat="46.79722" lon="5.61133">
        <ele>297.587486</ele>
        <time>2022-04-01T17:39:25.509Z</time>
      </trkpt>
      <trkpt lat="46.79729" lon="5.61171">
        <ele>299.194899</ele>
        <time>2022-04-01T17:39:35.589Z</time>
      </trkpt>
      <trkpt lat="46.79746" lon="5.6129">
        <ele>304.162295</ele>
        <time>2022-04-01T17:40:08.847Z</time>
      </trkpt>
      <trkpt lat="46.79747" lon="5.61341">
        <ele>306.260454</ele>
        <time>2022-04-01T17:40:23.853Z</time>
      </trkpt>
      <trkpt lat="46.79742" lon="5.61417">
        <ele>309.315843</ele>
        <time>2022-04-01T17:40:46.020Z</time>
      </trkpt>
      <trkpt lat="46.79747" lon="5.61426">
        <ele>309.785978</ele>
        <time>2022-04-01T17:40:49.261Z</time>
      </trkpt>
      <trkpt lat="46.79729" lon="5.61484">
        <ele>312.312155</ele>
        <time>2022-04-01T17:41:08.140Z</time>
      </trkpt>
      <trkpt lat="46.79728" lon="5.61527">
        <ele>314.026845</ele>
        <time>2022-04-01T17:41:20.569Z</time>
      </trkpt>
      <trkpt lat="46.79747" lon="5.61596">
        <ele>316.99866</ele>
        <time>2022-04-01T17:41:41.075Z</time>
      </trkpt>
      <trkpt lat="46.79803" lon="5.61642">
        <ele>320.735812</ele>
        <time>2022-04-01T17:42:07.663Z</time>
      </trkpt>
      <trkpt lat="46.79821" lon="5.61668">
        <ele>322.199788</ele>
        <time>2022-04-01T17:42:19.804Z</time>
      </trkpt>
      <trkpt lat="46.79817" lon="5.61717">
        <ele>324.163949</ele>
        <time>2022-04-01T17:42:35.246Z</time>
      </trkpt>
      <trkpt lat="46.79813" lon="5.61778">
        <ele>326.602715</ele>
        <time>2022-04-01T17:42:53.844Z</time>
      </trkpt>
      <trkpt lat="46.79824" lon="5.61793">
        <ele>327.460045</ele>
        <time>2022-04-01T17:42:59.659Z</time>
      </trkpt>
      <trkpt lat="46.7981" lon="5.61877">
        <ele>330.014338</ele>
        <time>2022-04-01T17:43:25.500Z</time>
      </trkpt>
      <trkpt lat="46.79839" lon="5.6188">
        <ele>331.149855</ele>
        <time>2022-04-01T17:43:34.995Z</time>
      </trkpt>
      <trkpt lat="46.79905" lon="5.61885">
        <ele>333.832885</ele>
        <time>2022-04-01T17:43:55.154Z</time>
      </trkpt>
      <trkpt lat="46.79956" lon="5.61882">
        <ele>335.249189</ele>
        <time>2022-04-01T17:44:07.957Z</time>
      </trkpt>
      <trkpt lat="46.80005" lon="5.61864">
        <ele>335.287962</ele>
        <time>2022-04-01T17:44:15.461Z</time>
      </trkpt>
      <trkpt lat="46.80028" lon="5.61867">
        <ele>335.305433</ele>
        <time>2022-04-01T17:44:19.048Z</time>
      </trkpt>
      <trkpt lat="46.80196" lon="5.61934">
        <ele>332.623073</ele>
        <time>2022-04-01T17:44:40.701Z</time>
      </trkpt>
      <trkpt lat="46.80253" lon="5.61965">
        <ele>330.64657</ele>
        <time>2022-04-01T17:44:46.589Z</time>
      </trkpt>
      <trkpt lat="46.80295" lon="5.61998">
        <ele>328.671822</ele>
        <time>2022-04-01T17:44:50.854Z</time>
      </trkpt>
      <trkpt lat="46.80333" lon="5.62015">
        <ele>325.956808</ele>
        <time>2022-04-01T17:44:54.429Z</time>
      </trkpt>
      <trkpt lat="46.80319" lon="5.62">
        <ele>324.79333</ele>
        <time>2022-04-01T17:44:56.625Z</time>
      </trkpt>
      <trkpt lat="46.80318" lon="5.61999">
        <ele>324.691558</ele>
        <time>2022-04-01T17:44:56.803Z</time>
      </trkpt>
      <trkpt lat="46.80301" lon="5.61969">
        <ele>322.908521</ele>
        <time>2022-04-01T17:45:00.108Z</time>
      </trkpt>
      <trkpt lat="46.80286" lon="5.61922">
        <ele>320.463445</ele>
        <time>2022-04-01T17:45:04.629Z</time>
      </trkpt>
      <trkpt lat="46.80257" lon="5.61871">
        <ele>317.3768</ele>
        <time>2022-04-01T17:45:10.404Z</time>
      </trkpt>
      <trkpt lat="46.80106" lon="5.61703">
        <ele>308.909095</ele>
        <time>2022-04-01T17:45:36.777Z</time>
      </trkpt>
      <trkpt lat="46.80093" lon="5.61679">
        <ele>308.263422</ele>
        <time>2022-04-01T17:45:40.024Z</time>
      </trkpt>
      <trkpt lat="46.80041" lon="5.61531">
        <ele>304.729215</ele>
        <time>2022-04-01T17:45:57.356Z</time>
      </trkpt>
      <trkpt lat="46.80035" lon="5.61438">
        <ele>302.034879</ele>
        <time>2022-04-01T17:46:06.449Z</time>
      </trkpt>
      <trkpt lat="46.80103" lon="5.61364">
        <ele>297.242993</ele>
        <time>2022-04-01T17:46:17.759Z</time>
      </trkpt>
      <trkpt lat="46.8013" lon="5.61313">
        <ele>294.779603</ele>
        <time>2022-04-01T17:46:23.350Z</time>
      </trkpt>
      <trkpt lat="46.80133" lon="5.61299">
        <ele>294.189909</ele>
        <time>2022-04-01T17:46:24.689Z</time>
      </trkpt>
      <trkpt lat="46.80149" lon="5.6124">
        <ele>291.713491</ele>
        <time>2022-04-01T17:46:30.170Z</time>
      </trkpt>
      <trkpt lat="46.80157" lon="5.61225">
        <ele>290.940618</ele>
        <time>2022-04-01T17:46:31.896Z</time>
      </trkpt>
      <trkpt lat="46.80229" lon="5.61147">
        <ele>285.765862</ele>
        <time>2022-04-01T17:46:43.595Z</time>
      </trkpt>
      <trkpt lat="46.80233" lon="5.6113">
        <ele>285.027794</ele>
        <time>2022-04-01T17:46:45.311Z</time>
      </trkpt>
      <trkpt lat="46.80247" lon="5.61115">
        <ele>284.044619</ele>
        <time>2022-04-01T17:46:47.630Z</time>
      </trkpt>
      <trkpt lat="46.80363" lon="5.61078">
        <ele>281.182677</ele>
        <time>2022-04-01T17:47:04.813Z</time>
      </trkpt>
      <trkpt lat="46.80419" lon="5.61026">
        <ele>279.972162</ele>
        <time>2022-04-01T17:47:18.033Z</time>
      </trkpt>
      <trkpt lat="46.80446" lon="5.60977">
        <ele>279.994016</ele>
        <time>2022-04-01T17:47:28.018Z</time>
      </trkpt>
      <trkpt lat="46.80466" lon="5.60977">
        <ele>280.160701</ele>
        <time>2022-04-01T17:47:34.191Z</time>
      </trkpt>
      <trkpt lat="46.80535" lon="5.61024">
        <ele>280.799959</ele>
        <time>2022-04-01T17:47:53.620Z</time>
      </trkpt>
      <trkpt lat="46.80562" lon="5.61031">
        <ele>281.02912</ele>
        <time>2022-04-01T17:48:00.553Z</time>
      </trkpt>
      <trkpt lat="46.80588" lon="5.6099">
        <ele>280.844829</ele>
        <time>2022-04-01T17:48:09.126Z</time>
      </trkpt>
      <trkpt lat="46.80623" lon="5.6097">
        <ele>279.721118</ele>
        <time>2022-04-01T17:48:15.219Z</time>
      </trkpt>
      <trkpt lat="46.80656" lon="5.60961">
        <ele>278.690657</ele>
        <time>2022-04-01T17:48:20.409Z</time>
      </trkpt>
      <trkpt lat="46.80834" lon="5.60957">
        <ele>271.593165</ele>
        <time>2022-04-01T17:48:44.646Z</time>
      </trkpt>
      <trkpt lat="46.80927" lon="5.60911">
        <ele>266.61545</ele>
        <time>2022-04-01T17:48:57.670Z</time>
      </trkpt>
      <trkpt lat="46.80953" lon="5.60907">
        <ele>265.599623</ele>
        <time>2022-04-01T17:49:01.244Z</time>
      </trkpt>
      <trkpt lat="46.8098" lon="5.60871">
        <ele>264.177794</ele>
        <time>2022-04-01T17:49:06.337Z</time>
      </trkpt>
      <trkpt lat="46.81025" lon="5.60839">
        <ele>262.214249</ele>
        <time>2022-04-01T17:49:13.505Z</time>
      </trkpt>
      <trkpt lat="46.8116" lon="5.60934">
        <ele>257.037141</ele>
        <time>2022-04-01T17:49:35.168Z</time>
      </trkpt>
      <trkpt lat="46.81178" lon="5.60936">
        <ele>256.498816</ele>
        <time>2022-04-01T17:49:37.738Z</time>
      </trkpt>
      <trkpt lat="46.81314" lon="5.60862">
        <ele>253.327822</ele>
        <time>2022-04-01T17:49:59.527Z</time>
      </trkpt>
      <trkpt lat="46.81326" lon="5.60851">
        <ele>253.157469</ele>
        <time>2022-04-01T17:50:01.844Z</time>
      </trkpt>
      <trkpt lat="46.81374" lon="5.60809">
        <ele>252.519788</ele>
        <time>2022-04-01T17:50:11.124Z</time>
      </trkpt>
      <trkpt lat="46.81381" lon="5.60795">
        <ele>252.377997</ele>
        <time>2022-04-01T17:50:13.506Z</time>
      </trkpt>
      <trkpt lat="46.81389" lon="5.60762">
        <ele>252.099395</ele>
        <time>2022-04-01T17:50:19.014Z</time>
      </trkpt>
      <trkpt lat="46.81392" lon="5.60697">
        <ele>253.242192</ele>
        <time>2022-04-01T17:50:31.311Z</time>
      </trkpt>
      <trkpt lat="46.81401" lon="5.60668">
        <ele>253.987415</ele>
        <time>2022-04-01T17:50:38.529Z</time>
      </trkpt>
      <trkpt lat="46.81425" lon="5.60642">
        <ele>254.975421</ele>
        <time>2022-04-01T17:50:48.520Z</time>
      </trkpt>
      <trkpt lat="46.81511" lon="5.60577">
        <ele>258.212941</ele>
        <time>2022-04-01T17:51:25.435Z</time>
      </trkpt>
      <trkpt lat="46.81593" lon="5.60414">
        <ele>263.054869</ele>
        <time>2022-04-01T17:52:17.964Z</time>
      </trkpt>
      <trkpt lat="46.81606" lon="5.60402">
        <ele>263.607407</ele>
        <time>2022-04-01T17:52:22.245Z</time>
      </trkpt>
      <trkpt lat="46.81606" lon="5.60402">
        <ele>263.607407</ele>
        <time>2022-04-01T17:52:22.278Z</time>
      </trkpt>
      <trkpt lat="46.81613" lon="5.60404">
        <ele>263.856126</ele>
        <time>2022-04-01T17:52:23.629Z</time>
      </trkpt>
      <trkpt lat="46.8162" lon="5.6041">
        <ele>264.117956</ele>
        <time>2022-04-01T17:52:25.130Z</time>
      </trkpt>
      <trkpt lat="46.81629" lon="5.60404">
        <ele>264.23527</ele>
        <time>2022-04-01T17:52:26.885Z</time>
      </trkpt>
      <trkpt lat="46.81663" lon="5.60408">
        <ele>263.604064</ele>
        <time>2022-04-01T17:52:32.245Z</time>
      </trkpt>
      <trkpt lat="46.81689" lon="5.60366">
        <ele>262.915281</ele>
        <time>2022-04-01T17:52:36.838Z</time>
      </trkpt>
      <trkpt lat="46.81729" lon="5.60327">
        <ele>262.042883</ele>
        <time>2022-04-01T17:52:41.987Z</time>
      </trkpt>
      <trkpt lat="46.8179" lon="5.60179">
        <ele>259.100859</ele>
        <time>2022-04-01T17:52:53.393Z</time>
      </trkpt>
      <trkpt lat="46.81866" lon="5.60078">
        <ele>255.927647</ele>
        <time>2022-04-01T17:53:04.061Z</time>
      </trkpt>
      <trkpt lat="46.81889" lon="5.60019">
        <ele>255.03763</ele>
        <time>2022-04-01T17:53:09.378Z</time>
      </trkpt>
      <trkpt lat="46.81888" lon="5.60005">
        <ele>254.896671</ele>
        <time>2022-04-01T17:53:10.589Z</time>
      </trkpt>
      <trkpt lat="46.81871" lon="5.59975">
        <ele>254.515297</ele>
        <time>2022-04-01T17:53:13.626Z</time>
      </trkpt>
      <trkpt lat="46.81875" lon="5.59959">
        <ele>254.347569</ele>
        <time>2022-04-01T17:53:15.061Z</time>
      </trkpt>
      <trkpt lat="46.81907" lon="5.59944">
        <ele>253.871837</ele>
        <time>2022-04-01T17:53:18.966Z</time>
      </trkpt>
      <trkpt lat="46.81938" lon="5.59917">
        <ele>253.346513</ele>
        <time>2022-04-01T17:53:23.421Z</time>
      </trkpt>
      <trkpt lat="46.82054" lon="5.59858">
        <ele>251.914197</ele>
        <time>2022-04-01T17:53:37.955Z</time>
      </trkpt>
      <trkpt lat="46.82108" lon="5.59822">
        <ele>251.262309</ele>
        <time>2022-04-01T17:53:44.873Z</time>
      </trkpt>
      <trkpt lat="46.82162" lon="5.59803">
        <ele>250.995274</ele>
        <time>2022-04-01T17:53:51.950Z</time>
      </trkpt>
      <trkpt lat="46.82212" lon="5.5977">
        <ele>251.039285</ele>
        <time>2022-04-01T17:54:00.696Z</time>
      </trkpt>
      <trkpt lat="46.82232" lon="5.59772">
        <ele>251.055919</ele>
        <time>2022-04-01T17:54:04.009Z</time>
      </trkpt>
      <trkpt lat="46.82266" lon="5.59824">
        <ele>251.09518</ele>
        <time>2022-04-01T17:54:11.966Z</time>
      </trkpt>
      <trkpt lat="46.82276" lon="5.5983">
        <ele>251.104024</ele>
        <time>2022-04-01T17:54:14.200Z</time>
      </trkpt>
      <trkpt lat="46.82291" lon="5.59824">
        <ele>251.118207</ele>
        <time>2022-04-01T17:54:16.368Z</time>
      </trkpt>
      <trkpt lat="46.82306" lon="5.59801">
        <ele>251.503827</ele>
        <time>2022-04-01T17:54:20.505Z</time>
      </trkpt>
      <trkpt lat="46.82314" lon="5.59775">
        <ele>251.841408</ele>
        <time>2022-04-01T17:54:23.089Z</time>
      </trkpt>
      <trkpt lat="46.82319" lon="5.5971">
        <ele>252.636177</ele>
        <time>2022-04-01T17:54:31.085Z</time>
      </trkpt>
      <trkpt lat="46.82356" lon="5.5965">
        <ele>253.618546</ele>
        <time>2022-04-01T17:54:43.835Z</time>
      </trkpt>
      <trkpt lat="46.82365" lon="5.59624">
        <ele>253.972754</ele>
        <time>2022-04-01T17:54:49.858Z</time>
      </trkpt>
      <trkpt lat="46.82379" lon="5.59502">
        <ele>257.919229</ele>
        <time>2022-04-01T17:55:14.791Z</time>
      </trkpt>
      <trkpt lat="46.82382" lon="5.5947">
        <ele>259.161023</ele>
        <time>2022-04-01T17:55:24.685Z</time>
      </trkpt>
      <trkpt lat="46.8238" lon="5.59416">
        <ele>261.203835</ele>
        <time>2022-04-01T17:55:39.459Z</time>
      </trkpt>
      <trkpt lat="46.82397" lon="5.59361">
        <ele>263.471683</ele>
        <time>2022-04-01T17:55:55.723Z</time>
      </trkpt>
      <trkpt lat="46.82398" lon="5.59341">
        <ele>264.225633</ele>
        <time>2022-04-01T17:56:02.160Z</time>
      </trkpt>
      <trkpt lat="46.82395" lon="5.59321">
        <ele>265.063247</ele>
        <time>2022-04-01T17:56:08.914Z</time>
      </trkpt>
      <trkpt lat="46.82379" lon="5.59292">
        <ele>266.554797</ele>
        <time>2022-04-01T17:56:19.660Z</time>
      </trkpt>
      <trkpt lat="46.82307" lon="5.59183">
        <ele>272.687735</ele>
        <time>2022-04-01T17:57:00.487Z</time>
      </trkpt>
      <trkpt lat="46.82281" lon="5.59131">
        <ele>275.151896</ele>
        <time>2022-04-01T17:57:15.344Z</time>
      </trkpt>
      <trkpt lat="46.82287" lon="5.59109">
        <ele>275.841396</ele>
        <time>2022-04-01T17:57:20.580Z</time>
      </trkpt>
      <trkpt lat="46.82384" lon="5.59099">
        <ele>279.891277</ele>
        <time>2022-04-01T17:57:56.469Z</time>
      </trkpt>
      <trkpt lat="46.82394" lon="5.59092">
        <ele>280.368258</ele>
        <time>2022-04-01T17:58:00.783Z</time>
      </trkpt>
      <trkpt lat="46.82408" lon="5.59074">
        <ele>281.136163</ele>
        <time>2022-04-01T17:58:07.449Z</time>
      </trkpt>
      <trkpt lat="46.82418" lon="5.59018">
        <ele>282.820719</ele>
        <time>2022-04-01T17:58:21.026Z</time>
      </trkpt>
      <trkpt lat="46.82435" lon="5.58995">
        <ele>283.8918</ele>
        <time>2022-04-01T17:58:29.809Z</time>
      </trkpt>
      <trkpt lat="46.82463" lon="5.58987">
        <ele>285.222478</ele>
        <time>2022-04-01T17:58:39.910Z</time>
      </trkpt>
      <trkpt lat="46.82527" lon="5.58992">
        <ele>288.156564</ele>
        <time>2022-04-01T17:59:04.902Z</time>
      </trkpt>
      <trkpt lat="46.8259" lon="5.59029">
        <ele>291.077936</ele>
        <time>2022-04-01T17:59:34.741Z</time>
      </trkpt>
      <trkpt lat="46.82614" lon="5.59041">
        <ele>291.87758</ele>
        <time>2022-04-01T17:59:43.754Z</time>
      </trkpt>
      <trkpt lat="46.82624" lon="5.5904">
        <ele>292.213594</ele>
        <time>2022-04-01T17:59:47.508Z</time>
      </trkpt>
      <trkpt lat="46.8263" lon="5.59036">
        <ele>292.417551</ele>
        <time>2022-04-01T17:59:49.297Z</time>
      </trkpt>
      <trkpt lat="46.82656" lon="5.59009">
        <ele>293.411086</ele>
        <time>2022-04-01T17:59:59.821Z</time>
      </trkpt>
      <trkpt lat="46.82663" lon="5.58964">
        <ele>294.414171</ele>
        <time>2022-04-01T18:00:10.392Z</time>
      </trkpt>
      <trkpt lat="46.8267" lon="5.58959">
        <ele>294.672065</ele>
        <time>2022-04-01T18:00:12.256Z</time>
      </trkpt>
      <trkpt lat="46.82682" lon="5.58961">
        <ele>295.052687</ele>
        <time>2022-04-01T18:00:16.309Z</time>
      </trkpt>
      <trkpt lat="46.82771" lon="5.59019">
        <ele>295.944936</ele>
        <time>2022-04-01T18:00:41.974Z</time>
      </trkpt>
      <trkpt lat="46.82813" lon="5.59034">
        <ele>295.660316</ele>
        <time>2022-04-01T18:00:49.786Z</time>
      </trkpt>
      <trkpt lat="46.82882" lon="5.59059">
        <ele>295.207674</ele>
        <time>2022-04-01T18:01:00.650Z</time>
      </trkpt>
      <trkpt lat="46.82894" lon="5.59069">
        <ele>294.982093</ele>
        <time>2022-04-01T18:01:02.929Z</time>
      </trkpt>
      <trkpt lat="46.82979" lon="5.59175">
        <ele>291.758214</ele>
        <time>2022-04-01T18:01:19.754Z</time>
      </trkpt>
      <trkpt lat="46.83041" lon="5.59236">
        <ele>289.470779</ele>
        <time>2022-04-01T18:01:30.470Z</time>
      </trkpt>
      <trkpt lat="46.83166" lon="5.59296">
        <ele>284.154061</ele>
        <time>2022-04-01T18:01:48.976Z</time>
      </trkpt>
      <trkpt lat="46.83321" lon="5.59439">
        <ele>276.993811</ele>
        <time>2022-04-01T18:02:14.545Z</time>
      </trkpt>
      <trkpt lat="46.83352" lon="5.59459">
        <ele>275.702395</ele>
        <time>2022-04-01T18:02:19.383Z</time>
      </trkpt>
      <trkpt lat="46.83402" lon="5.59463">
        <ele>274.082162</ele>
        <time>2022-04-01T18:02:26.868Z</time>
      </trkpt>
      <trkpt lat="46.83439" lon="5.59471">
        <ele>272.861556</ele>
        <time>2022-04-01T18:02:32.598Z</time>
      </trkpt>
      <trkpt lat="46.83503" lon="5.59362">
        <ele>269.545048</ele>
        <time>2022-04-01T18:02:46.740Z</time>
      </trkpt>
      <trkpt lat="46.83525" lon="5.59336">
        <ele>268.127396</ele>
        <time>2022-04-01T18:02:50.723Z</time>
      </trkpt>
      <trkpt lat="46.83548" lon="5.59379">
        <ele>266.252469</ele>
        <time>2022-04-01T18:02:54.295Z</time>
      </trkpt>
      <trkpt lat="46.8357" lon="5.5936">
        <ele>264.975489</ele>
        <time>2022-04-01T18:02:57.740Z</time>
      </trkpt>
      <trkpt lat="46.83583" lon="5.59363">
        <ele>264.334637</ele>
        <time>2022-04-01T18:02:59.492Z</time>
      </trkpt>
      <trkpt lat="46.83628" lon="5.59409">
        <ele>261.542065</ele>
        <time>2022-04-01T18:03:06.860Z</time>
      </trkpt>
      <trkpt lat="46.83665" lon="5.59441">
        <ele>259.172583</ele>
        <time>2022-04-01T18:03:12.371Z</time>
      </trkpt>
      <trkpt lat="46.83756" lon="5.59547">
        <ele>252.504784</ele>
        <time>2022-04-01T18:03:27.477Z</time>
      </trkpt>
      <trkpt lat="46.8385" lon="5.59686">
        <ele>247.639962</ele>
        <time>2022-04-01T18:03:46.298Z</time>
      </trkpt>
      <trkpt lat="46.83869" lon="5.59717">
        <ele>246.806145</ele>
        <time>2022-04-01T18:03:50.571Z</time>
      </trkpt>
      <trkpt lat="46.83896" lon="5.59716">
        <ele>245.990878</ele>
        <time>2022-04-01T18:03:54.957Z</time>
      </trkpt>
      <trkpt lat="46.84015" lon="5.59624">
        <ele>245.343986</ele>
        <time>2022-04-01T18:04:20.833Z</time>
      </trkpt>
      <trkpt lat="46.84039" lon="5.59595">
        <ele>245.356332</ele>
        <time>2022-04-01T18:04:28.212Z</time>
      </trkpt>
      <trkpt lat="46.84105" lon="5.59561">
        <ele>245.651608</ele>
        <time>2022-04-01T18:04:44.660Z</time>
      </trkpt>
      <trkpt lat="46.84156" lon="5.59526">
        <ele>246.146878</ele>
        <time>2022-04-01T18:04:58.427Z</time>
      </trkpt>
      <trkpt lat="46.84268" lon="5.59425">
        <ele>247.034874</ele>
        <time>2022-04-01T18:05:29.424Z</time>
      </trkpt>
      <trkpt lat="46.8428" lon="5.5942">
        <ele>247.061767</ele>
        <time>2022-04-01T18:05:32.248Z</time>
      </trkpt>
      <trkpt lat="46.84305" lon="5.59424">
        <ele>247.116556</ele>
        <time>2022-04-01T18:05:37.813Z</time>
      </trkpt>
      <trkpt lat="46.84336" lon="5.59446">
        <ele>247.192986</ele>
        <time>2022-04-01T18:05:45.054Z</time>
      </trkpt>
      <trkpt lat="46.84389" lon="5.59464">
        <ele>247.314251</ele>
        <time>2022-04-01T18:05:55.398Z</time>
      </trkpt>
      <trkpt lat="46.84449" lon="5.59473">
        <ele>247.563252</ele>
        <time>2022-04-01T18:06:06.892Z</time>
      </trkpt>
      <trkpt lat="46.84487" lon="5.59456">
        <ele>247.751715</ele>
        <time>2022-04-01T18:06:14.277Z</time>
      </trkpt>
      <trkpt lat="46.84525" lon="5.59425">
        <ele>247.955937</ele>
        <time>2022-04-01T18:06:23.472Z</time>
      </trkpt>
      <trkpt lat="46.8457" lon="5.5939">
        <ele>248.226553</ele>
        <time>2022-04-01T18:06:33.882Z</time>
      </trkpt>
      <trkpt lat="46.8462" lon="5.59365">
        <ele>250.531618</ele>
        <time>2022-04-01T18:06:46.887Z</time>
      </trkpt>
      <trkpt lat="46.84934" lon="5.59268">
        <ele>265.224231</ele>
        <time>2022-04-01T18:08:45.255Z</time>
      </trkpt>
      <trkpt lat="46.85049" lon="5.59231">
        <ele>265.581199</ele>
        <time>2022-04-01T18:09:05.017Z</time>
      </trkpt>
      <trkpt lat="46.85078" lon="5.59211">
        <ele>265.679802</ele>
        <time>2022-04-01T18:09:08.484Z</time>
      </trkpt>
      <trkpt lat="46.85151" lon="5.59109">
        <ele>262.603959</ele>
        <time>2022-04-01T18:09:18.462Z</time>
      </trkpt>
      <trkpt lat="46.85198" lon="5.59081">
        <ele>260.756604</ele>
        <time>2022-04-01T18:09:23.400Z</time>
      </trkpt>
      <trkpt lat="46.85246" lon="5.59074">
        <ele>259.040675</ele>
        <time>2022-04-01T18:09:30.220Z</time>
      </trkpt>
      <trkpt lat="46.853" lon="5.59105">
        <ele>257.06529</ele>
        <time>2022-04-01T18:09:38.518Z</time>
      </trkpt>
      <trkpt lat="46.85344" lon="5.59111">
        <ele>255.554749</ele>
        <time>2022-04-01T18:09:44.795Z</time>
      </trkpt>
      <trkpt lat="46.8535" lon="5.59081">
        <ele>254.804051</ele>
        <time>2022-04-01T18:09:47.015Z</time>
      </trkpt>
      <trkpt lat="46.85372" lon="5.59031">
        <ele>253.423729</ele>
        <time>2022-04-01T18:09:51.133Z</time>
      </trkpt>
      <trkpt lat="46.85383" lon="5.59019">
        <ele>253.040263</ele>
        <time>2022-04-01T18:09:52.481Z</time>
      </trkpt>
      <trkpt lat="46.8542" lon="5.59">
        <ele>252.585893</ele>
        <time>2022-04-01T18:09:56.514Z</time>
      </trkpt>
      <trkpt lat="46.8543" lon="5.59047">
        <ele>252.193363</ele>
        <time>2022-04-01T18:10:00.131Z</time>
      </trkpt>
      <trkpt lat="46.85461" lon="5.59185">
        <ele>251.04243</ele>
        <time>2022-04-01T18:10:12.736Z</time>
      </trkpt>
      <trkpt lat="46.85502" lon="5.59374">
        <ele>254.285003</ele>
        <time>2022-04-01T18:10:47.345Z</time>
      </trkpt>
      <trkpt lat="46.85521" lon="5.59438">
        <ele>255.466357</ele>
        <time>2022-04-01T18:11:02.317Z</time>
      </trkpt>
      <trkpt lat="46.85629" lon="5.59566">
        <ele>257.967159</ele>
        <time>2022-04-01T18:11:36.229Z</time>
      </trkpt>
      <trkpt lat="46.85667" lon="5.59608">
        <ele>258.700267</ele>
        <time>2022-04-01T18:11:42.658Z</time>
      </trkpt>
      <trkpt lat="46.85787" lon="5.5971">
        <ele>258.379997</ele>
        <time>2022-04-01T18:12:00.950Z</time>
      </trkpt>
      <trkpt lat="46.85806" lon="5.59726">
        <ele>258.331641</ele>
        <time>2022-04-01T18:12:04.010Z</time>
      </trkpt>
      <trkpt lat="46.85851" lon="5.59763">
        <ele>258.780235</ele>
        <time>2022-04-01T18:12:12.350Z</time>
      </trkpt>
      <trkpt lat="46.85869" lon="5.59777">
        <ele>259.030986</ele>
        <time>2022-04-01T18:12:16.418Z</time>
      </trkpt>
      <trkpt lat="46.8592" lon="5.59816">
        <ele>259.735596</ele>
        <time>2022-04-01T18:12:28.648Z</time>
      </trkpt>
      <trkpt lat="46.85937" lon="5.59833">
        <ele>259.990633</ele>
        <time>2022-04-01T18:12:33.538Z</time>
      </trkpt>
      <trkpt lat="46.85947" lon="5.59843">
        <ele>260.144153</ele>
        <time>2022-04-01T18:12:36.351Z</time>
      </trkpt>
      <trkpt lat="46.85951" lon="5.59847">
        <ele>260.203301</ele>
        <time>2022-04-01T18:12:37.403Z</time>
      </trkpt>
      <trkpt lat="46.86001" lon="5.59899">
        <ele>260.880246</ele>
        <time>2022-04-01T18:12:50.431Z</time>
      </trkpt>
      <trkpt lat="46.86031" lon="5.59917">
        <ele>261.202067</ele>
        <time>2022-04-01T18:12:56.344Z</time>
      </trkpt>
      <trkpt lat="46.86176" lon="5.59985">
        <ele>262.768346</ele>
        <time>2022-04-01T18:13:23.348Z</time>
      </trkpt>
      <trkpt lat="46.8619" lon="5.59998">
        <ele>262.948554</ele>
        <time>2022-04-01T18:13:26.471Z</time>
      </trkpt>
      <trkpt lat="46.86164" lon="5.60053">
        <ele>263.444395</ele>
        <time>2022-04-01T18:13:34.938Z</time>
      </trkpt>
      <trkpt lat="46.86139" lon="5.60166">
        <ele>264.307337</ele>
        <time>2022-04-01T18:13:51.459Z</time>
      </trkpt>
      <trkpt lat="46.86103" lon="5.60244">
        <ele>264.661003</ele>
        <time>2022-04-01T18:14:04.847Z</time>
      </trkpt>
      <trkpt lat="46.86102" lon="5.60268">
        <ele>264.752032</ele>
        <time>2022-04-01T18:14:08.076Z</time>
      </trkpt>
      <trkpt lat="46.86112" lon="5.60322">
        <ele>264.961447</ele>
        <time>2022-04-01T18:14:14.577Z</time>
      </trkpt>
      <trkpt lat="46.86109" lon="5.60377">
        <ele>265.166054</ele>
        <time>2022-04-01T18:14:20.077Z</time>
      </trkpt>
      <trkpt lat="46.86093" lon="5.60483">
        <ele>264.05708</ele>
        <time>2022-04-01T18:14:29.076Z</time>
      </trkpt>
      <trkpt lat="46.86062" lon="5.60577">
        <ele>262.45687</ele>
        <time>2022-04-01T18:14:36.627Z</time>
      </trkpt>
      <trkpt lat="46.8596" lon="5.60836">
        <ele>256.660236</ele>
        <time>2022-04-01T18:14:57.209Z</time>
      </trkpt>
      <trkpt lat="46.85917" lon="5.60933">
        <ele>255.137657</ele>
        <time>2022-04-01T18:15:05.820Z</time>
      </trkpt>
      <trkpt lat="46.85905" lon="5.60984">
        <ele>254.65619</ele>
        <time>2022-04-01T18:15:10.090Z</time>
      </trkpt>
      <trkpt lat="46.85811" lon="5.61807">
        <ele>246.862179</ele>
        <time>2022-04-01T18:16:18.271Z</time>
      </trkpt>
      <trkpt lat="46.85795" lon="5.61862">
        <ele>246.195536</ele>
        <time>2022-04-01T18:16:22.664Z</time>
      </trkpt>
      <trkpt lat="46.85777" lon="5.61897">
        <ele>245.629426</ele>
        <time>2022-04-01T18:16:25.842Z</time>
      </trkpt>
      <trkpt lat="46.85647" lon="5.62092">
        <ele>241.279057</ele>
        <time>2022-04-01T18:16:45.293Z</time>
      </trkpt>
      <trkpt lat="46.85533" lon="5.62265">
        <ele>239.85631</ele>
        <time>2022-04-01T18:17:06.379Z</time>
      </trkpt>
      <trkpt lat="46.85516" lon="5.62289">
        <ele>240.027799</ele>
        <time>2022-04-01T18:17:10.548Z</time>
      </trkpt>
      <trkpt lat="46.85159" lon="5.62777">
        <ele>244.001664</ele>
        <time>2022-04-01T18:18:39.463Z</time>
      </trkpt>
      <trkpt lat="46.84971" lon="5.63069">
        <ele>247.025685</ele>
        <time>2022-04-01T18:19:35.895Z</time>
      </trkpt>
      <trkpt lat="46.84735" lon="5.63435">
        <ele>247.451481</ele>
        <time>2022-04-01T18:20:22.791Z</time>
      </trkpt>
      <trkpt lat="46.84727" lon="5.63447">
        <ele>247.58725</ele>
        <time>2022-04-01T18:20:24.909Z</time>
      </trkpt>
      <trkpt lat="46.84542" lon="5.63731">
        <ele>251.958775</ele>
        <time>2022-04-01T18:21:25.670Z</time>
      </trkpt>
      <trkpt lat="46.84533" lon="5.63732">
        <ele>252.122958</ele>
        <time>2022-04-01T18:21:27.726Z</time>
      </trkpt>
      <trkpt lat="46.84532" lon="5.63769">
        <ele>252.584869</ele>
        <time>2022-04-01T18:21:33.688Z</time>
      </trkpt>
      <trkpt lat="46.84527" lon="5.63911">
        <ele>253.821959</ele>
        <time>2022-04-01T18:21:55.629Z</time>
      </trkpt>
      <trkpt lat="46.84524" lon="5.64025">
        <ele>254.808334</ele>
        <time>2022-04-01T18:22:09.226Z</time>
      </trkpt>
      <trkpt lat="46.84523" lon="5.64041">
        <ele>254.75188</ele>
        <time>2022-04-01T18:22:10.874Z</time>
      </trkpt>
      <trkpt lat="46.84494" lon="5.64051">
        <ele>254.584432</ele>
        <time>2022-04-01T18:22:15.205Z</time>
      </trkpt>
      <trkpt lat="46.84489" lon="5.64053">
        <ele>254.557647</ele>
        <time>2022-04-01T18:22:15.918Z</time>
      </trkpt>
      <trkpt lat="46.84396" lon="5.64082">
        <ele>254.04034</ele>
        <time>2022-04-01T18:22:48.108Z</time>
      </trkpt>
      <trkpt lat="46.843" lon="5.6413">
        <ele>254.04696</ele>
        <time>2022-04-01T18:23:22.843Z</time>
      </trkpt>
      <trkpt lat="46.84239" lon="5.6413">
        <ele>254.258426</ele>
        <time>2022-04-01T18:23:46.303Z</time>
      </trkpt>
      <trkpt lat="46.84229" lon="5.64131">
        <ele>254.294976</ele>
        <time>2022-04-01T18:23:50.478Z</time>
      </trkpt>
      <trkpt lat="46.84229" lon="5.64131">
        <ele>254.295213</ele>
        <time>2022-04-01T18:23:50.516Z</time>
      </trkpt>
      <trkpt lat="46.84181" lon="5.64133">
        <ele>254.50275</ele>
        <time>2022-04-01T18:24:10.953Z</time>
      </trkpt>
      <trkpt lat="46.84128" lon="5.64171">
        <ele>255.94057</ele>
        <time>2022-04-01T18:24:37.929Z</time>
      </trkpt>
      <trkpt lat="46.8409" lon="5.64175">
        <ele>256.832831</ele>
        <time>2022-04-01T18:24:56.304Z</time>
      </trkpt>
      <trkpt lat="46.84007" lon="5.64144">
        <ele>258.879254</ele>
        <time>2022-04-01T18:25:38.292Z</time>
      </trkpt>
      <trkpt lat="46.83961" lon="5.6411">
        <ele>259.903567</ele>
        <time>2022-04-01T18:26:01.408Z</time>
      </trkpt>
      <trkpt lat="46.83944" lon="5.64107">
        <ele>260.237432</ele>
        <time>2022-04-01T18:26:09.458Z</time>
      </trkpt>
      <trkpt lat="46.83926" lon="5.64127">
        <ele>260.691223</ele>
        <time>2022-04-01T18:26:14.057Z</time>
      </trkpt>
      <trkpt lat="46.83881" lon="5.64241">
        <ele>262.561849</ele>
        <time>2022-04-01T18:26:33.591Z</time>
      </trkpt>
      <trkpt lat="46.83864" lon="5.64268">
        <ele>263.353079</ele>
        <time>2022-04-01T18:26:39.205Z</time>
      </trkpt>
      <trkpt lat="46.83843" lon="5.64287">
        <ele>264.12461</ele>
        <time>2022-04-01T18:26:44.637Z</time>
      </trkpt>
      <trkpt lat="46.83811" lon="5.64288">
        <ele>265.136504</ele>
        <time>2022-04-01T18:26:52.972Z</time>
      </trkpt>
      <trkpt lat="46.83747" lon="5.64248">
        <ele>267.303912</ele>
        <time>2022-04-01T18:27:13.236Z</time>
      </trkpt>
      <trkpt lat="46.83703" lon="5.64241">
        <ele>268.957143</ele>
        <time>2022-04-01T18:27:28.173Z</time>
      </trkpt>
      <trkpt lat="46.83671" lon="5.64249">
        <ele>270.401716</ele>
        <time>2022-04-01T18:27:40.521Z</time>
      </trkpt>
      <trkpt lat="46.83608" lon="5.64289">
        <ele>273.381139</ele>
        <time>2022-04-01T18:28:04.263Z</time>
      </trkpt>
      <trkpt lat="46.83519" lon="5.64313">
        <ele>276.129743</ele>
        <time>2022-04-01T18:28:30.685Z</time>
      </trkpt>
      <trkpt lat="46.83495" lon="5.64378">
        <ele>276.569283</ele>
        <time>2022-04-01T18:28:40.366Z</time>
      </trkpt>
      <trkpt lat="46.8349" lon="5.64409">
        <ele>276.758544</ele>
        <time>2022-04-01T18:28:44.397Z</time>
      </trkpt>
      <trkpt lat="46.83488" lon="5.64439">
        <ele>276.937189</ele>
        <time>2022-04-01T18:28:47.270Z</time>
      </trkpt>
      <trkpt lat="46.83499" lon="5.64523">
        <ele>277.413069</ele>
        <time>2022-04-01T18:28:54.380Z</time>
      </trkpt>
      <trkpt lat="46.83488" lon="5.64558">
        <ele>277.490606</ele>
        <time>2022-04-01T18:28:57.375Z</time>
      </trkpt>
      <trkpt lat="46.83451" lon="5.6459">
        <ele>277.617028</ele>
        <time>2022-04-01T18:29:02.814Z</time>
      </trkpt>
      <trkpt lat="46.83422" lon="5.64604">
        <ele>277.705298</ele>
        <time>2022-04-01T18:29:07.183Z</time>
      </trkpt>
      <trkpt lat="46.83392" lon="5.64607">
        <ele>277.793043</ele>
        <time>2022-04-01T18:29:11.962Z</time>
      </trkpt>
      <trkpt lat="46.83378" lon="5.64617">
        <ele>277.840779</ele>
        <time>2022-04-01T18:29:14.731Z</time>
      </trkpt>
      <trkpt lat="46.832" lon="5.64564">
        <ele>282.851662</ele>
        <time>2022-04-01T18:30:03.511Z</time>
      </trkpt>
      <trkpt lat="46.83152" lon="5.64532">
        <ele>284.871007</ele>
        <time>2022-04-01T18:30:20.917Z</time>
      </trkpt>
      <trkpt lat="46.83081" lon="5.64508">
        <ele>288.16399</ele>
        <time>2022-04-01T18:30:45.511Z</time>
      </trkpt>
      <trkpt lat="46.83031" lon="5.64506">
        <ele>290.46508</ele>
        <time>2022-04-01T18:31:02.639Z</time>
      </trkpt>
      <trkpt lat="46.82976" lon="5.64517">
        <ele>292.917362</ele>
        <time>2022-04-01T18:31:20.616Z</time>
      </trkpt>
      <trkpt lat="46.82879" lon="5.64491">
        <ele>297.099653</ele>
        <time>2022-04-01T18:31:52.984Z</time>
      </trkpt>
      <trkpt lat="46.8287" lon="5.64487">
        <ele>297.536143</ele>
        <time>2022-04-01T18:31:56.594Z</time>
      </trkpt>
      <trkpt lat="46.82733" lon="5.64432">
        <ele>301.714431</ele>
        <time>2022-04-01T18:32:37.920Z</time>
      </trkpt>
      <trkpt lat="46.82674" lon="5.64412">
        <ele>303.102822</ele>
        <time>2022-04-01T18:32:51.065Z</time>
      </trkpt>
      <trkpt lat="46.82581" lon="5.64387">
        <ele>302.573225</ele>
        <time>2022-04-01T18:33:03.735Z</time>
      </trkpt>
      <trkpt lat="46.82536" lon="5.64371">
        <ele>301.860405</ele>
        <time>2022-04-01T18:33:08.629Z</time>
      </trkpt>
      <trkpt lat="46.82507" lon="5.64351">
        <ele>301.356347</ele>
        <time>2022-04-01T18:33:12.092Z</time>
      </trkpt>
      <trkpt lat="46.82467" lon="5.6432">
        <ele>300.454445</ele>
        <time>2022-04-01T18:33:16.902Z</time>
      </trkpt>
      <trkpt lat="46.82428" lon="5.64293">
        <ele>299.220724</ele>
        <time>2022-04-01T18:33:21.280Z</time>
      </trkpt>
      <trkpt lat="46.82385" lon="5.64195">
        <ele>296.943328</ele>
        <time>2022-04-01T18:33:29.281Z</time>
      </trkpt>
      <trkpt lat="46.82358" lon="5.64126">
        <ele>295.39246</ele>
        <time>2022-04-01T18:33:34.905Z</time>
      </trkpt>
      <trkpt lat="46.82337" lon="5.64024">
        <ele>293.324434</ele>
        <time>2022-04-01T18:33:43.086Z</time>
      </trkpt>
      <trkpt lat="46.82338" lon="5.63982">
        <ele>292.498621</ele>
        <time>2022-04-01T18:33:46.149Z</time>
      </trkpt>
      <trkpt lat="46.82347" lon="5.63922">
        <ele>291.299543</ele>
        <time>2022-04-01T18:33:50.271Z</time>
      </trkpt>
      <trkpt lat="46.82353" lon="5.6379">
        <ele>290.015954</ele>
        <time>2022-04-01T18:33:59.244Z</time>
      </trkpt>
      <trkpt lat="46.82349" lon="5.63767">
        <ele>289.868504</ele>
        <time>2022-04-01T18:34:00.868Z</time>
      </trkpt>
      <trkpt lat="46.82325" lon="5.63751">
        <ele>289.627888</ele>
        <time>2022-04-01T18:34:03.668Z</time>
      </trkpt>
      <trkpt lat="46.8226" lon="5.63734">
        <ele>289.035591</ele>
        <time>2022-04-01T18:34:19.932Z</time>
      </trkpt>
      <trkpt lat="46.82222" lon="5.63685">
        <ele>291.326392</ele>
        <time>2022-04-01T18:34:33.284Z</time>
      </trkpt>
      <trkpt lat="46.82196" lon="5.63662">
        <ele>292.897962</ele>
        <time>2022-04-01T18:34:42.852Z</time>
      </trkpt>
      <trkpt lat="46.82184" lon="5.63658">
        <ele>293.529332</ele>
        <time>2022-04-01T18:34:47.330Z</time>
      </trkpt>
      <trkpt lat="46.82163" lon="5.63646">
        <ele>294.676381</ele>
        <time>2022-04-01T18:34:56.972Z</time>
      </trkpt>
      <trkpt lat="46.82153" lon="5.63631">
        <ele>295.416405</ele>
        <time>2022-04-01T18:35:02.447Z</time>
      </trkpt>
      <trkpt lat="46.82127" lon="5.63576">
        <ele>297.799984</ele>
        <time>2022-04-01T18:35:23.346Z</time>
      </trkpt>
      <trkpt lat="46.82099" lon="5.63537">
        <ele>299.192064</ele>
        <time>2022-04-01T18:35:40.695Z</time>
      </trkpt>
      <trkpt lat="46.82017" lon="5.6345">
        <ele>302.313512</ele>
        <time>2022-04-01T18:36:10.839Z</time>
      </trkpt>
      <trkpt lat="46.81945" lon="5.63421">
        <ele>303.377077</ele>
        <time>2022-04-01T18:36:20.277Z</time>
      </trkpt>
      <trkpt lat="46.81862" lon="5.63315">
        <ele>301.43554</ele>
        <time>2022-04-01T18:36:32.065Z</time>
      </trkpt>
      <trkpt lat="46.8184" lon="5.63267">
        <ele>300.752175</ele>
        <time>2022-04-01T18:36:36.243Z</time>
      </trkpt>
      <trkpt lat="46.81829" lon="5.63211">
        <ele>300.715825</ele>
        <time>2022-04-01T18:36:40.779Z</time>
      </trkpt>
      <trkpt lat="46.81801" lon="5.63168">
        <ele>300.779828</ele>
        <time>2022-04-01T18:36:46.038Z</time>
      </trkpt>
      <trkpt lat="46.81708" lon="5.63071">
        <ele>301.16763</ele>
        <time>2022-04-01T18:37:07.716Z</time>
      </trkpt>
      <trkpt lat="46.81475" lon="5.6285">
        <ele>307.644704</ele>
        <time>2022-04-01T18:38:16.070Z</time>
      </trkpt>
      <trkpt lat="46.81342" lon="5.62665">
        <ele>312.349693</ele>
        <time>2022-04-01T18:39:02.095Z</time>
      </trkpt>
      <trkpt lat="46.81315" lon="5.62582">
        <ele>313.989025</ele>
        <time>2022-04-01T18:39:17.877Z</time>
      </trkpt>
      <trkpt lat="46.81301" lon="5.62516">
        <ele>315.507003</ele>
        <time>2022-04-01T18:39:29.975Z</time>
      </trkpt>
      <trkpt lat="46.81249" lon="5.62373">
        <ele>319.198063</ele>
        <time>2022-04-01T18:40:00.968Z</time>
      </trkpt>
      <trkpt lat="46.81227" lon="5.62332">
        <ele>320.519971</ele>
        <time>2022-04-01T18:40:12.361Z</time>
      </trkpt>
      <trkpt lat="46.81195" lon="5.62297">
        <ele>322.436665</ele>
        <time>2022-04-01T18:40:25.608Z</time>
      </trkpt>
      <trkpt lat="46.81165" lon="5.6228">
        <ele>323.955279</ele>
        <time>2022-04-01T18:40:36.229Z</time>
      </trkpt>
      <trkpt lat="46.81113" lon="5.62271">
        <ele>326.470362</ele>
        <time>2022-04-01T18:40:55.208Z</time>
      </trkpt>
      <trkpt lat="46.81052" lon="5.62266">
        <ele>329.656876</ele>
        <time>2022-04-01T18:41:16.710Z</time>
      </trkpt>
      <trkpt lat="46.81007" lon="5.62274">
        <ele>332.749508</ele>
        <time>2022-04-01T18:41:31.990Z</time>
      </trkpt>
      <trkpt lat="46.80965" lon="5.62271">
        <ele>335.56281</ele>
        <time>2022-04-01T18:41:45.836Z</time>
      </trkpt>
      <trkpt lat="46.8087" lon="5.62214">
        <ele>344.391125</ele>
        <time>2022-04-01T18:42:33.586Z</time>
      </trkpt>
      <trkpt lat="46.80844" lon="5.62193">
        <ele>348.752815</ele>
        <time>2022-04-01T18:42:58.758Z</time>
      </trkpt>
      <trkpt lat="46.80821" lon="5.6231">
        <ele>360.809484</ele>
        <time>2022-04-01T18:44:07.046Z</time>
      </trkpt>
      <trkpt lat="46.80817" lon="5.62379">
        <ele>367.69244</ele>
        <time>2022-04-01T18:44:46.890Z</time>
      </trkpt>
      <trkpt lat="46.80818" lon="5.62397">
        <ele>369.514689</ele>
        <time>2022-04-01T18:45:03.326Z</time>
      </trkpt>
      <trkpt lat="46.8081" lon="5.62436">
        <ele>373.440316</ele>
        <time>2022-04-01T18:45:31.588Z</time>
      </trkpt>
      <trkpt lat="46.80801" lon="5.62454">
        <ele>375.624953</ele>
        <time>2022-04-01T18:45:49.239Z</time>
      </trkpt>
      <trkpt lat="46.80693" lon="5.62463">
        <ele>391.045092</ele>
        <time>2022-04-01T18:47:32.642Z</time>
      </trkpt>
      <trkpt lat="46.80679" lon="5.62474">
        <ele>393.008594</ele>
        <time>2022-04-01T18:47:41.696Z</time>
      </trkpt>
      <trkpt lat="46.80674" lon="5.62486">
        <ele>393.784953</ele>
        <time>2022-04-01T18:47:48.471Z</time>
      </trkpt>
      <trkpt lat="46.80658" lon="5.62478">
        <ele>395.132535</ele>
        <time>2022-04-01T18:47:54.899Z</time>
      </trkpt>
      <trkpt lat="46.80674" lon="5.62486">
        <ele>396.480117</ele>
        <time>2022-04-01T18:48:02.409Z</time>
      </trkpt>
      <trkpt lat="46.8071" lon="5.62522">
        <ele>399.832183</ele>
        <time>2022-04-01T18:48:21.574Z</time>
      </trkpt>
      <trkpt lat="46.80722" lon="5.62556">
        <ele>401.914466</ele>
        <time>2022-04-01T18:48:33.817Z</time>
      </trkpt>
      <trkpt lat="46.80726" lon="5.62585">
        <ele>403.478952</ele>
        <time>2022-04-01T18:48:42.755Z</time>
      </trkpt>
      <trkpt lat="46.80722" lon="5.62623">
        <ele>405.524734</ele>
        <time>2022-04-01T18:48:54.692Z</time>
      </trkpt>
      <trkpt lat="46.80695" lon="5.62676">
        <ele>408.638645</ele>
        <time>2022-04-01T18:49:13.263Z</time>
      </trkpt>
      <trkpt lat="46.80668" lon="5.62706">
        <ele>410.826648</ele>
        <time>2022-04-01T18:49:27.068Z</time>
      </trkpt>
      <trkpt lat="46.80639" lon="5.6272">
        <ele>412.831179</ele>
        <time>2022-04-01T18:49:38.935Z</time>
      </trkpt>
      <trkpt lat="46.80619" lon="5.62718">
        <ele>414.086962</ele>
        <time>2022-04-01T18:49:46.845Z</time>
      </trkpt>
      <trkpt lat="46.80553" lon="5.62686">
        <ele>418.663372</ele>
        <time>2022-04-01T18:50:16.341Z</time>
      </trkpt>
      <trkpt lat="46.80511" lon="5.62684">
        <ele>421.773034</ele>
        <time>2022-04-01T18:50:31.451Z</time>
      </trkpt>
      <trkpt lat="46.80453" lon="5.62692">
        <ele>426.12157</ele>
        <time>2022-04-01T18:50:54.504Z</time>
      </trkpt>
      <trkpt lat="46.80402" lon="5.62689">
        <ele>429.969277</ele>
        <time>2022-04-01T18:51:19.765Z</time>
      </trkpt>
      <trkpt lat="46.80337" lon="5.62701">
        <ele>435.801409</ele>
        <time>2022-04-01T18:51:55.576Z</time>
      </trkpt>
      <trkpt lat="46.80316" lon="5.62696">
        <ele>437.903903</ele>
        <time>2022-04-01T18:52:09.636Z</time>
      </trkpt>
      <trkpt lat="46.80183" lon="5.62656">
        <ele>450.185079</ele>
        <time>2022-04-01T18:53:22.453Z</time>
      </trkpt>
      <trkpt lat="46.80138" lon="5.62615">
        <ele>452.875964</ele>
        <time>2022-04-01T18:53:45.097Z</time>
      </trkpt>
      <trkpt lat="46.80093" lon="5.62546">
        <ele>456.216188</ele>
        <time>2022-04-01T18:54:07.322Z</time>
      </trkpt>
      <trkpt lat="46.80062" lon="5.62515">
        <ele>458.146384</ele>
        <time>2022-04-01T18:54:15.620Z</time>
      </trkpt>
      <trkpt lat="46.79972" lon="5.62487">
        <ele>457.985449</ele>
        <time>2022-04-01T18:54:28.181Z</time>
      </trkpt>
      <trkpt lat="46.79871" lon="5.62459">
        <ele>457.783617</ele>
        <time>2022-04-01T18:54:40.401Z</time>
      </trkpt>
      <trkpt lat="46.79846" lon="5.62459">
        <ele>458.207706</ele>
        <time>2022-04-01T18:54:43.342Z</time>
      </trkpt>
      <trkpt lat="46.7982" lon="5.62469">
        <ele>458.659566</ele>
        <time>2022-04-01T18:54:46.775Z</time>
      </trkpt>
      <trkpt lat="46.79799" lon="5.62486">
        <ele>459.054477</ele>
        <time>2022-04-01T18:54:50.318Z</time>
      </trkpt>
      <trkpt lat="46.79785" lon="5.62505">
        <ele>459.377518</ele>
        <time>2022-04-01T18:54:54.842Z</time>
      </trkpt>
      <trkpt lat="46.79736" lon="5.626">
        <ele>461.029885</ele>
        <time>2022-04-01T18:55:20.229Z</time>
      </trkpt>
      <trkpt lat="46.79665" lon="5.62705">
        <ele>466.17589</ele>
        <time>2022-04-01T18:55:58.328Z</time>
      </trkpt>
      <trkpt lat="46.79639" lon="5.62756">
        <ele>468.418692</ele>
        <time>2022-04-01T18:56:14.980Z</time>
      </trkpt>
      <trkpt lat="46.79574" lon="5.6308">
        <ele>478.007189</ele>
        <time>2022-04-01T18:57:24.953Z</time>
      </trkpt>
      <trkpt lat="46.79564" lon="5.63136">
        <ele>479.664163</ele>
        <time>2022-04-01T18:57:37.433Z</time>
      </trkpt>
      <trkpt lat="46.79502" lon="5.63459">
        <ele>488.014618</ele>
        <time>2022-04-01T18:58:51.115Z</time>
      </trkpt>
      <trkpt lat="46.79406" lon="5.63951">
        <ele>493.613796</ele>
        <time>2022-04-01T18:59:58.046Z</time>
      </trkpt>
      <trkpt lat="46.79328" lon="5.64339">
        <ele>499.575163</ele>
        <time>2022-04-01T19:01:01.558Z</time>
      </trkpt>
      <trkpt lat="46.79319" lon="5.64385">
        <ele>501.01429</ele>
        <time>2022-04-01T19:01:11.927Z</time>
      </trkpt>
      <trkpt lat="46.79315" lon="5.64402">
        <ele>501.530287</ele>
        <time>2022-04-01T19:01:15.670Z</time>
      </trkpt>
      <trkpt lat="46.79289" lon="5.64526">
        <ele>505.403488</ele>
        <time>2022-04-01T19:01:48.423Z</time>
      </trkpt>
      <trkpt lat="46.79245" lon="5.64734">
        <ele>510.97205</ele>
        <time>2022-04-01T19:02:36.744Z</time>
      </trkpt>
      <trkpt lat="46.79234" lon="5.64797">
        <ele>512.599134</ele>
        <time>2022-04-01T19:02:47.419Z</time>
      </trkpt>
      <trkpt lat="46.79222" lon="5.6483">
        <ele>513.219687</ele>
        <time>2022-04-01T19:02:53.161Z</time>
      </trkpt>
      <trkpt lat="46.7921" lon="5.64848">
        <ele>513.459314</ele>
        <time>2022-04-01T19:02:56.193Z</time>
      </trkpt>
      <trkpt lat="46.79155" lon="5.64907">
        <ele>514.433172</ele>
        <time>2022-04-01T19:03:08.800Z</time>
      </trkpt>
      <trkpt lat="46.79115" lon="5.64979">
        <ele>515.339303</ele>
        <time>2022-04-01T19:03:20.349Z</time>
      </trkpt>
      <trkpt lat="46.78998" lon="5.65256">
        <ele>520.622625</ele>
        <time>2022-04-01T19:04:18.292Z</time>
      </trkpt>
      <trkpt lat="46.78581" lon="5.66301">
        <ele>532.568753</ele>
        <time>2022-04-01T19:07:10.992Z</time>
      </trkpt>
      <trkpt lat="46.78612" lon="5.66322">
        <ele>532.819721</ele>
        <time>2022-04-01T19:07:16.882Z</time>
      </trkpt>
      <trkpt lat="46.78645" lon="5.66334">
        <ele>533.147728</ele>
        <time>2022-04-01T19:07:22.576Z</time>
      </trkpt>
      <trkpt lat="46.78675" lon="5.664">
        <ele>533.746778</ele>
        <time>2022-04-01T19:07:31.708Z</time>
      </trkpt>
      <trkpt lat="46.78682" lon="5.66458">
        <ele>534.191078</ele>
        <time>2022-04-01T19:07:39.129Z</time>
      </trkpt>
      <trkpt lat="46.78692" lon="5.66478">
        <ele>534.373803</ele>
        <time>2022-04-01T19:07:45.113Z</time>
      </trkpt>
      <trkpt lat="46.78733" lon="5.66485">
        <ele>534.823532</ele>
        <time>2022-04-01T19:08:00.544Z</time>
      </trkpt>
      <trkpt lat="46.78756" lon="5.66499">
        <ele>536.407279</ele>
        <time>2022-04-01T19:08:10.240Z</time>
      </trkpt>
      <trkpt lat="46.78735" lon="5.66583">
        <ele>540.980951</ele>
        <time>2022-04-01T19:08:37.912Z</time>
      </trkpt>
      <trkpt lat="46.78727" lon="5.66626">
        <ele>543.225868</ele>
        <time>2022-04-01T19:08:54.457Z</time>
      </trkpt>
      <trkpt lat="46.78728" lon="5.66709">
        <ele>547.464352</ele>
        <time>2022-04-01T19:09:26.381Z</time>
      </trkpt>
      <trkpt lat="46.78734" lon="5.66753">
        <ele>549.981739</ele>
        <time>2022-04-01T19:09:45.189Z</time>
      </trkpt>
      <trkpt lat="46.78758" lon="5.66809">
        <ele>553.832249</ele>
        <time>2022-04-01T19:10:13.653Z</time>
      </trkpt>
      <trkpt lat="46.78831" lon="5.66879">
        <ele>561.293383</ele>
        <time>2022-04-01T19:10:59.234Z</time>
      </trkpt>
      <trkpt lat="46.78882" lon="5.6704">
        <ele>568.754796</ele>
        <time>2022-04-01T19:11:57.011Z</time>
      </trkpt>
      <trkpt lat="46.78973" lon="5.67114">
        <ele>573.794957</ele>
        <time>2022-04-01T19:12:30.307Z</time>
      </trkpt>
      <trkpt lat="46.79122" lon="5.67259">
        <ele>577.38644</ele>
        <time>2022-04-01T19:13:07.014Z</time>
      </trkpt>
      <trkpt lat="46.79176" lon="5.67317">
        <ele>578.997057</ele>
        <time>2022-04-01T19:13:21.373Z</time>
      </trkpt>
      <trkpt lat="46.79334" lon="5.67516">
        <ele>584.763588</ele>
        <time>2022-04-01T19:14:18.156Z</time>
      </trkpt>
      <trkpt lat="46.79461" lon="5.67626">
        <ele>588.396267</ele>
        <time>2022-04-01T19:14:58.342Z</time>
      </trkpt>
      <trkpt lat="46.79545" lon="5.67715">
        <ele>590.254899</ele>
        <time>2022-04-01T19:15:19.169Z</time>
      </trkpt>
      <trkpt lat="46.79567" lon="5.67737">
        <ele>590.01123</ele>
        <time>2022-04-01T19:15:23.321Z</time>
      </trkpt>
      <trkpt lat="46.7959" lon="5.67769">
        <ele>589.714944</ele>
        <time>2022-04-01T19:15:27.537Z</time>
      </trkpt>
      <trkpt lat="46.7975" lon="5.68035">
        <ele>586.612639</ele>
        <time>2022-04-01T19:15:54.885Z</time>
      </trkpt>
      <trkpt lat="46.79804" lon="5.68151">
        <ele>585.207334</ele>
        <time>2022-04-01T19:16:06.114Z</time>
      </trkpt>
      <trkpt lat="46.7989" lon="5.68202">
        <ele>584.011622</ele>
        <time>2022-04-01T19:16:17.421Z</time>
      </trkpt>
      <trkpt lat="46.80019" lon="5.68306">
        <ele>581.241242</ele>
        <time>2022-04-01T19:16:34.367Z</time>
      </trkpt>
      <trkpt lat="46.80047" lon="5.68342">
        <ele>580.431797</ele>
        <time>2022-04-01T19:16:38.266Z</time>
      </trkpt>
      <trkpt lat="46.80071" lon="5.68395">
        <ele>579.447101</ele>
        <time>2022-04-01T19:16:42.658Z</time>
      </trkpt>
      <trkpt lat="46.80188" lon="5.68453">
        <ele>574.604141</ele>
        <time>2022-04-01T19:16:55.043Z</time>
      </trkpt>
      <trkpt lat="46.80219" lon="5.68459">
        <ele>573.410092</ele>
        <time>2022-04-01T19:16:58.007Z</time>
      </trkpt>
      <trkpt lat="46.80258" lon="5.68449">
        <ele>571.260854</ele>
        <time>2022-04-01T19:17:01.846Z</time>
      </trkpt>
      <trkpt lat="46.80264" lon="5.68454">
        <ele>570.782354</ele>
        <time>2022-04-01T19:17:02.464Z</time>
      </trkpt>
      <trkpt lat="46.80331" lon="5.68434">
        <ele>565.947032</ele>
        <time>2022-04-01T19:17:08.648Z</time>
      </trkpt>
      <trkpt lat="46.80376" lon="5.68404">
        <ele>562.445499</ele>
        <time>2022-04-01T19:17:13.006Z</time>
      </trkpt>
      <trkpt lat="46.804" lon="5.68385">
        <ele>560.4904</ele>
        <time>2022-04-01T19:17:15.397Z</time>
      </trkpt>
      <trkpt lat="46.80408" lon="5.6838">
        <ele>559.836942</ele>
        <time>2022-04-01T19:17:16.216Z</time>
      </trkpt>
      <trkpt lat="46.80405" lon="5.68369">
        <ele>559.199645</ele>
        <time>2022-04-01T19:17:16.874Z</time>
      </trkpt>
      <trkpt lat="46.80388" lon="5.68321">
        <ele>556.017451</ele>
        <time>2022-04-01T19:17:20.159Z</time>
      </trkpt>
      <trkpt lat="46.80385" lon="5.68294">
        <ele>554.4444</ele>
        <time>2022-04-01T19:17:21.776Z</time>
      </trkpt>
      <trkpt lat="46.80391" lon="5.6826">
        <ele>552.397794</ele>
        <time>2022-04-01T19:17:23.882Z</time>
      </trkpt>
      <trkpt lat="46.80392" lon="5.68223">
        <ele>550.249694</ele>
        <time>2022-04-01T19:17:26.106Z</time>
      </trkpt>
      <trkpt lat="46.80394" lon="5.682">
        <ele>548.90772</ele>
        <time>2022-04-01T19:17:27.482Z</time>
      </trkpt>
      <trkpt lat="46.80401" lon="5.682">
        <ele>548.288213</ele>
        <time>2022-04-01T19:17:29.321Z</time>
      </trkpt>
      <trkpt lat="46.80463" lon="5.68219">
        <ele>543.275169</ele>
        <time>2022-04-01T19:17:45.161Z</time>
      </trkpt>
      <trkpt lat="46.80536" lon="5.68194">
        <ele>537.984248</ele>
        <time>2022-04-01T19:18:05.120Z</time>
      </trkpt>
      <trkpt lat="46.80591" lon="5.68193">
        <ele>534.126389</ele>
        <time>2022-04-01T19:18:19.566Z</time>
      </trkpt>
      <trkpt lat="46.8062" lon="5.68179">
        <ele>532.006561</ele>
        <time>2022-04-01T19:18:27.356Z</time>
      </trkpt>
      <trkpt lat="46.80643" lon="5.68178">
        <ele>529.661053</ele>
        <time>2022-04-01T19:18:33.402Z</time>
      </trkpt>
      <trkpt lat="46.8074" lon="5.68183">
        <ele>520.000271</ele>
        <time>2022-04-01T19:18:57.585Z</time>
      </trkpt>
      <trkpt lat="46.80785" lon="5.68205">
        <ele>515.180142</ele>
        <time>2022-04-01T19:19:09.149Z</time>
      </trkpt>
      <trkpt lat="46.80853" lon="5.68255">
        <ele>504.26947</ele>
        <time>2022-04-01T19:19:26.655Z</time>
      </trkpt>
      <trkpt lat="46.80899" lon="5.68262">
        <ele>497.112894</ele>
        <time>2022-04-01T19:19:37.264Z</time>
      </trkpt>
      <trkpt lat="46.81045" lon="5.68242">
        <ele>476.526205</ele>
        <time>2022-04-01T19:20:11.163Z</time>
      </trkpt>
      <trkpt lat="46.81047" lon="5.68228">
        <ele>475.201748</ele>
        <time>2022-04-01T19:20:13.612Z</time>
      </trkpt>
      <trkpt lat="46.81038" lon="5.68218">
        <ele>473.711469</ele>
        <time>2022-04-01T19:20:16.272Z</time>
      </trkpt>
      <trkpt lat="46.80988" lon="5.68204">
        <ele>467.230892</ele>
        <time>2022-04-01T19:20:28.254Z</time>
      </trkpt>
      <trkpt lat="46.80966" lon="5.68175">
        <ele>463.383734</ele>
        <time>2022-04-01T19:20:35.638Z</time>
      </trkpt>
      <trkpt lat="46.8095" lon="5.68143">
        <ele>460.490693</ele>
        <time>2022-04-01T19:20:42.419Z</time>
      </trkpt>
      <trkpt lat="46.80947" lon="5.68119">
        <ele>458.732365</ele>
        <time>2022-04-01T19:20:46.568Z</time>
      </trkpt>
      <trkpt lat="46.80952" lon="5.68102">
        <ele>457.355897</ele>
        <time>2022-04-01T19:20:49.927Z</time>
      </trkpt>
      <trkpt lat="46.8096" lon="5.68091">
        <ele>456.228049</ele>
        <time>2022-04-01T19:20:52.522Z</time>
      </trkpt>
      <trkpt lat="46.8097" lon="5.68089">
        <ele>455.147835</ele>
        <time>2022-04-01T19:20:55.106Z</time>
      </trkpt>
      <trkpt lat="46.81018" lon="5.68104">
        <ele>449.918831</ele>
        <time>2022-04-01T19:21:07.221Z</time>
      </trkpt>
      <trkpt lat="46.81027" lon="5.681">
        <ele>448.902909</ele>
        <time>2022-04-01T19:21:09.552Z</time>
      </trkpt>
      <trkpt lat="46.81034" lon="5.68087">
        <ele>447.683414</ele>
        <time>2022-04-01T19:21:12.299Z</time>
      </trkpt>
      <trkpt lat="46.81048" lon="5.6803">
        <ele>442.955172</ele>
        <time>2022-04-01T19:21:22.092Z</time>
      </trkpt>
      <trkpt lat="46.81054" lon="5.67968">
        <ele>436.470966</ele>
        <time>2022-04-01T19:21:32.020Z</time>
      </trkpt>
      <trkpt lat="46.81064" lon="5.6792">
        <ele>431.352069</ele>
        <time>2022-04-01T19:21:39.771Z</time>
      </trkpt>
      <trkpt lat="46.81038" lon="5.67816">
        <ele>419.941866</ele>
        <time>2022-04-01T19:21:57.179Z</time>
      </trkpt>
      <trkpt lat="46.81032" lon="5.67741">
        <ele>413.6902</ele>
        <time>2022-04-01T19:22:09.209Z</time>
      </trkpt>
      <trkpt lat="46.81032" lon="5.6773">
        <ele>412.894599</ele>
        <time>2022-04-01T19:22:09.866Z</time>
      </trkpt>
      <trkpt lat="46.81038" lon="5.67577">
        <ele>401.962296</ele>
        <time>2022-04-01T19:22:18.828Z</time>
      </trkpt>
      <trkpt lat="46.81012" lon="5.67498">
        <ele>397.136301</ele>
        <time>2022-04-01T19:22:24.356Z</time>
      </trkpt>
      <trkpt lat="46.81009" lon="5.67463">
        <ele>395.96374</ele>
        <time>2022-04-01T19:22:26.834Z</time>
      </trkpt>
      <trkpt lat="46.81024" lon="5.67408">
        <ele>394.015446</ele>
        <time>2022-04-01T19:22:31.026Z</time>
      </trkpt>
      <trkpt lat="46.8102" lon="5.67352">
        <ele>392.158123</ele>
        <time>2022-04-01T19:22:34.687Z</time>
      </trkpt>
      <trkpt lat="46.81024" lon="5.67324">
        <ele>391.223841</ele>
        <time>2022-04-01T19:22:36.503Z</time>
      </trkpt>
      <trkpt lat="46.81038" lon="5.67302">
        <ele>390.235865</ele>
        <time>2022-04-01T19:22:38.458Z</time>
      </trkpt>
      <trkpt lat="46.81089" lon="5.67247">
        <ele>386.870059</ele>
        <time>2022-04-01T19:22:44.416Z</time>
      </trkpt>
      <trkpt lat="46.81109" lon="5.67211">
        <ele>385.161751</ele>
        <time>2022-04-01T19:22:47.349Z</time>
      </trkpt>
      <trkpt lat="46.81083" lon="5.67198">
        <ele>383.654316</ele>
        <time>2022-04-01T19:22:49.954Z</time>
      </trkpt>
      <trkpt lat="46.81048" lon="5.67168">
        <ele>381.445962</ele>
        <time>2022-04-01T19:22:53.752Z</time>
      </trkpt>
      <trkpt lat="46.80986" lon="5.67114">
        <ele>377.777422</ele>
        <time>2022-04-01T19:23:00.306Z</time>
      </trkpt>
      <trkpt lat="46.80932" lon="5.66976">
        <ele>372.364132</ele>
        <time>2022-04-01T19:23:10.716Z</time>
      </trkpt>
      <trkpt lat="46.80911" lon="5.66887">
        <ele>369.480777</ele>
        <time>2022-04-01T19:23:16.880Z</time>
      </trkpt>
      <trkpt lat="46.80876" lon="5.66814">
        <ele>367.003986</ele>
        <time>2022-04-01T19:23:22.723Z</time>
      </trkpt>
      <trkpt lat="46.80851" lon="5.66774">
        <ele>365.474053</ele>
        <time>2022-04-01T19:23:26.402Z</time>
      </trkpt>
      <trkpt lat="46.80818" lon="5.66743">
        <ele>363.891661</ele>
        <time>2022-04-01T19:23:30.243Z</time>
      </trkpt>
      <trkpt lat="46.80806" lon="5.66724">
        <ele>363.273207</ele>
        <time>2022-04-01T19:23:32.021Z</time>
      </trkpt>
      <trkpt lat="46.80806" lon="5.66704">
        <ele>362.817551</ele>
        <time>2022-04-01T19:23:33.430Z</time>
      </trkpt>
      <trkpt lat="46.80817" lon="5.6665">
        <ele>361.586683</ele>
        <time>2022-04-01T19:23:37.297Z</time>
      </trkpt>
      <trkpt lat="46.80825" lon="5.66572">
        <ele>359.835814</ele>
        <time>2022-04-01T19:23:42.878Z</time>
      </trkpt>
      <trkpt lat="46.80816" lon="5.66418">
        <ele>356.071699</ele>
        <time>2022-04-01T19:23:53.629Z</time>
      </trkpt>
      <trkpt lat="46.80748" lon="5.66257">
        <ele>350.834429</ele>
        <time>2022-04-01T19:24:06.149Z</time>
      </trkpt>
      <trkpt lat="46.80737" lon="5.66197">
        <ele>348.574594</ele>
        <time>2022-04-01T19:24:10.139Z</time>
      </trkpt>
      <trkpt lat="46.80726" lon="5.6617">
        <ele>347.361992</ele>
        <time>2022-04-01T19:24:12.191Z</time>
      </trkpt>
      <trkpt lat="46.80647" lon="5.66022">
        <ele>340.230168</ele>
        <time>2022-04-01T19:24:24.079Z</time>
      </trkpt>
      <trkpt lat="46.80626" lon="5.65972">
        <ele>337.495645</ele>
        <time>2022-04-01T19:24:27.717Z</time>
      </trkpt>
      <trkpt lat="46.80626" lon="5.65922">
        <ele>335.150057</ele>
        <time>2022-04-01T19:24:30.770Z</time>
      </trkpt>
      <trkpt lat="46.80633" lon="5.65865">
        <ele>332.470821</ele>
        <time>2022-04-01T19:24:34.261Z</time>
      </trkpt>
      <trkpt lat="46.80653" lon="5.65802">
        <ele>329.233063</ele>
        <time>2022-04-01T19:24:38.565Z</time>
      </trkpt>
      <trkpt lat="46.8067" lon="5.65721">
        <ele>326.725916</ele>
        <time>2022-04-01T19:24:43.872Z</time>
      </trkpt>
      <trkpt lat="46.8067" lon="5.65681">
        <ele>325.694857</ele>
        <time>2022-04-01T19:24:47.588Z</time>
      </trkpt>
      <trkpt lat="46.80661" lon="5.65649">
        <ele>324.821681</ele>
        <time>2022-04-01T19:24:50.871Z</time>
      </trkpt>
      <trkpt lat="46.80626" lon="5.65596">
        <ele>322.894951</ele>
        <time>2022-04-01T19:24:58.251Z</time>
      </trkpt>
      <trkpt lat="46.8062" lon="5.65588">
        <ele>322.607162</ele>
        <time>2022-04-01T19:24:59.394Z</time>
      </trkpt>
      <trkpt lat="46.80625" lon="5.65478">
        <ele>322.373129</ele>
        <time>2022-04-01T19:25:15.039Z</time>
      </trkpt>
      <trkpt lat="46.80649" lon="5.65365">
        <ele>323.353389</ele>
        <time>2022-04-01T19:25:38.064Z</time>
      </trkpt>
      <trkpt lat="46.80653" lon="5.65329">
        <ele>323.652246</ele>
        <time>2022-04-01T19:25:45.327Z</time>
      </trkpt>
      <trkpt lat="46.80611" lon="5.65244">
        <ele>324.828798</ele>
        <time>2022-04-01T19:26:05.454Z</time>
      </trkpt>
      <trkpt lat="46.80573" lon="5.65189">
        <ele>325.804668</ele>
        <time>2022-04-01T19:26:18.888Z</time>
      </trkpt>
      <trkpt lat="46.80565" lon="5.6515">
        <ele>326.313994</ele>
        <time>2022-04-01T19:26:25.612Z</time>
      </trkpt>
      <trkpt lat="46.80565" lon="5.6507">
        <ele>327.358915</ele>
        <time>2022-04-01T19:26:41.963Z</time>
      </trkpt>
      <trkpt lat="46.80602" lon="5.64959">
        <ele>329.390833</ele>
        <time>2022-04-01T19:27:08.674Z</time>
      </trkpt>
      <trkpt lat="46.8063" lon="5.64857">
        <ele>331.199708</ele>
        <time>2022-04-01T19:27:31.562Z</time>
      </trkpt>
      <trkpt lat="46.80763" lon="5.64934">
        <ele>331.921205</ele>
        <time>2022-04-01T19:28:08.790Z</time>
      </trkpt>
      <trkpt lat="46.80837" lon="5.64994">
        <ele>330.843322</ele>
        <time>2022-04-01T19:28:21.764Z</time>
      </trkpt>
      <trkpt lat="46.80999" lon="5.65041">
        <ele>324.666269</ele>
        <time>2022-04-01T19:28:44.743Z</time>
      </trkpt>
      <trkpt lat="46.81125" lon="5.65045">
        <ele>319.138049</ele>
        <time>2022-04-01T19:29:01.971Z</time>
      </trkpt>
      <trkpt lat="46.81201" lon="5.65039">
        <ele>316.215483</ele>
        <time>2022-04-01T19:29:12.835Z</time>
      </trkpt>
      <trkpt lat="46.81233" lon="5.65012">
        <ele>314.99167</ele>
        <time>2022-04-01T19:29:18.185Z</time>
      </trkpt>
      <trkpt lat="46.81256" lon="5.64966">
        <ele>313.69102</ele>
        <time>2022-04-01T19:29:23.948Z</time>
      </trkpt>
      <trkpt lat="46.81277" lon="5.64941">
        <ele>312.781059</ele>
        <time>2022-04-01T19:29:27.954Z</time>
      </trkpt>
      <trkpt lat="46.81339" lon="5.6494">
        <ele>310.57234</ele>
        <time>2022-04-01T19:29:36.929Z</time>
      </trkpt>
      <trkpt lat="46.81388" lon="5.64987">
        <ele>308.252376</ele>
        <time>2022-04-01T19:29:45.376Z</time>
      </trkpt>
      <trkpt lat="46.81406" lon="5.64995">
        <ele>307.533112</ele>
        <time>2022-04-01T19:29:47.966Z</time>
      </trkpt>
      <trkpt lat="46.81503" lon="5.64978">
        <ele>303.660651</ele>
        <time>2022-04-01T19:30:01.465Z</time>
      </trkpt>
      <trkpt lat="46.81558" lon="5.64959">
        <ele>301.290749</ele>
        <time>2022-04-01T19:30:09.199Z</time>
      </trkpt>
      <trkpt lat="46.81615" lon="5.64931">
        <ele>298.78875</ele>
        <time>2022-04-01T19:30:17.464Z</time>
      </trkpt>
      <trkpt lat="46.81639" lon="5.64908">
        <ele>297.568174</ele>
        <time>2022-04-01T19:30:21.586Z</time>
      </trkpt>
      <trkpt lat="46.81714" lon="5.64855">
        <ele>294.654599</ele>
        <time>2022-04-01T19:30:33.523Z</time>
      </trkpt>
      <trkpt lat="46.81806" lon="5.64712">
        <ele>290.512616</ele>
        <time>2022-04-01T19:30:53.028Z</time>
      </trkpt>
      <trkpt lat="46.81822" lon="5.64694">
        <ele>290.159423</ele>
        <time>2022-04-01T19:30:56.106Z</time>
      </trkpt>
      <trkpt lat="46.81836" lon="5.64692">
        <ele>289.916005</ele>
        <time>2022-04-01T19:30:58.242Z</time>
      </trkpt>
      <trkpt lat="46.81846" lon="5.64696">
        <ele>289.737084</ele>
        <time>2022-04-01T19:30:59.778Z</time>
      </trkpt>
      <trkpt lat="46.81914" lon="5.64748">
        <ele>288.396554</ele>
        <time>2022-04-01T19:31:12.371Z</time>
      </trkpt>
      <trkpt lat="46.81935" lon="5.64759">
        <ele>288.015323</ele>
        <time>2022-04-01T19:31:16.385Z</time>
      </trkpt>
      <trkpt lat="46.81946" lon="5.64754">
        <ele>287.816974</ele>
        <time>2022-04-01T19:31:18.380Z</time>
      </trkpt>
      <trkpt lat="46.81971" lon="5.64716">
        <ele>288.427769</ele>
        <time>2022-04-01T19:31:25.998Z</time>
      </trkpt>
      <trkpt lat="46.82004" lon="5.64679">
        <ele>289.118142</ele>
        <time>2022-04-01T19:31:36.473Z</time>
      </trkpt>
      <trkpt lat="46.82035" lon="5.64647">
        <ele>289.770177</ele>
        <time>2022-04-01T19:31:47.519Z</time>
      </trkpt>
      <trkpt lat="46.82071" lon="5.64621">
        <ele>290.436694</ele>
        <time>2022-04-01T19:31:59.678Z</time>
      </trkpt>
      <trkpt lat="46.82177" lon="5.64595">
        <ele>294.067853</ele>
        <time>2022-04-01T19:32:36.373Z</time>
      </trkpt>
      <trkpt lat="46.8228" lon="5.64615">
        <ele>298.130892</ele>
        <time>2022-04-01T19:33:15.542Z</time>
      </trkpt>
      <trkpt lat="46.82253" lon="5.64759">
        <ele>302.693711</ele>
        <time>2022-04-01T19:33:48.530Z</time>
      </trkpt>
      <trkpt lat="46.82244" lon="5.64792">
        <ele>303.79216</ele>
        <time>2022-04-01T19:33:56.694Z</time>
      </trkpt>
      <trkpt lat="46.82171" lon="5.65026">
        <ele>311.866234</ele>
        <time>2022-04-01T19:34:55.433Z</time>
      </trkpt>
      <trkpt lat="46.82206" lon="5.65241">
        <ele>318.601181</ele>
        <time>2022-04-01T19:35:45.560Z</time>
      </trkpt>
      <trkpt lat="46.82228" lon="5.65384">
        <ele>322.950267</ele>
        <time>2022-04-01T19:36:17.300Z</time>
      </trkpt>
      <trkpt lat="46.82241" lon="5.65513">
        <ele>326.684966</ele>
        <time>2022-04-01T19:36:44.113Z</time>
      </trkpt>
      <trkpt lat="46.82245" lon="5.6555">
        <ele>327.757283</ele>
        <time>2022-04-01T19:36:52.338Z</time>
      </trkpt>
      <trkpt lat="46.82259" lon="5.656">
        <ele>329.298858</ele>
        <time>2022-04-01T19:37:04.180Z</time>
      </trkpt>
      <trkpt lat="46.82275" lon="5.65627">
        <ele>330.653623</ele>
        <time>2022-04-01T19:37:12.075Z</time>
      </trkpt>
      <trkpt lat="46.82289" lon="5.65692">
        <ele>333.469987</ele>
        <time>2022-04-01T19:37:28.971Z</time>
      </trkpt>
      <trkpt lat="46.82311" lon="5.65869">
        <ele>340.849733</ele>
        <time>2022-04-01T19:38:19.884Z</time>
      </trkpt>
      <trkpt lat="46.82319" lon="5.66006">
        <ele>346.547648</ele>
        <time>2022-04-01T19:39:00.565Z</time>
      </trkpt>
      <trkpt lat="46.8232" lon="5.66142">
        <ele>351.699533</ele>
        <time>2022-04-01T19:39:33.752Z</time>
      </trkpt>
      <trkpt lat="46.82329" lon="5.66322">
        <ele>355.64572</ele>
        <time>2022-04-01T19:40:06.701Z</time>
      </trkpt>
      <trkpt lat="46.82327" lon="5.66383">
        <ele>356.978991</ele>
        <time>2022-04-01T19:40:16.326Z</time>
      </trkpt>
      <trkpt lat="46.82311" lon="5.66619">
        <ele>361.361578</ele>
        <time>2022-04-01T19:40:58.269Z</time>
      </trkpt>
      <trkpt lat="46.8228" lon="5.66902">
        <ele>366.640047</ele>
        <time>2022-04-01T19:41:50.195Z</time>
      </trkpt>
      <trkpt lat="46.82269" lon="5.66952">
        <ele>366.79971</ele>
        <time>2022-04-01T19:41:57.576Z</time>
      </trkpt>
      <trkpt lat="46.82241" lon="5.67035">
        <ele>367.086113</ele>
        <time>2022-04-01T19:42:08.561Z</time>
      </trkpt>
      <trkpt lat="46.82208" lon="5.67103">
        <ele>367.341561</ele>
        <time>2022-04-01T19:42:16.284Z</time>
      </trkpt>
      <trkpt lat="46.82114" lon="5.67251">
        <ele>366.358647</ele>
        <time>2022-04-01T19:42:33.404Z</time>
      </trkpt>
      <trkpt lat="46.82051" lon="5.67291">
        <ele>365.756442</ele>
        <time>2022-04-01T19:42:41.526Z</time>
      </trkpt>
      <trkpt lat="46.82002" lon="5.67339">
        <ele>366.167173</ele>
        <time>2022-04-01T19:42:48.769Z</time>
      </trkpt>
      <trkpt lat="46.81983" lon="5.67373">
        <ele>366.376877</ele>
        <time>2022-04-01T19:42:52.586Z</time>
      </trkpt>
      <trkpt lat="46.81906" lon="5.67554">
        <ele>369.384182</ele>
        <time>2022-04-01T19:43:27.411Z</time>
      </trkpt>
      <trkpt lat="46.81898" lon="5.67572">
        <ele>369.988149</ele>
        <time>2022-04-01T19:43:33.294Z</time>
      </trkpt>
      <trkpt lat="46.81849" lon="5.67631">
        <ele>372.62206</ele>
        <time>2022-04-01T19:43:54.437Z</time>
      </trkpt>
      <trkpt lat="46.81836" lon="5.67653">
        <ele>373.459491</ele>
        <time>2022-04-01T19:44:01.815Z</time>
      </trkpt>
      <trkpt lat="46.818" lon="5.67756">
        <ele>376.702398</ele>
        <time>2022-04-01T19:44:31.245Z</time>
      </trkpt>
      <trkpt lat="46.81791" lon="5.678">
        <ele>378.000329</ele>
        <time>2022-04-01T19:44:41.143Z</time>
      </trkpt>
      <trkpt lat="46.81784" lon="5.67814">
        <ele>378.486113</ele>
        <time>2022-04-01T19:44:44.891Z</time>
      </trkpt>
      <trkpt lat="46.81768" lon="5.67829">
        <ele>379.28552</ele>
        <time>2022-04-01T19:44:50.556Z</time>
      </trkpt>
      <trkpt lat="46.81713" lon="5.67834">
        <ele>381.526085</ele>
        <time>2022-04-01T19:45:06.199Z</time>
      </trkpt>
      <trkpt lat="46.81694" lon="5.67841">
        <ele>382.010142</ele>
        <time>2022-04-01T19:45:11.151Z</time>
      </trkpt>
      <trkpt lat="46.8167" lon="5.67862">
        <ele>382.435913</ele>
        <time>2022-04-01T19:45:17.750Z</time>
      </trkpt>
      <trkpt lat="46.81652" lon="5.67897">
        <ele>382.900043</ele>
        <time>2022-04-01T19:45:24.577Z</time>
      </trkpt>
      <trkpt lat="46.81638" lon="5.67951">
        <ele>383.505856</ele>
        <time>2022-04-01T19:45:32.320Z</time>
      </trkpt>
      <trkpt lat="46.81617" lon="5.67973">
        <ele>383.900895</ele>
        <time>2022-04-01T19:45:37.270Z</time>
      </trkpt>
      <trkpt lat="46.81722" lon="5.68107">
        <ele>384.687847</ele>
        <time>2022-04-01T19:46:00.653Z</time>
      </trkpt>
      <trkpt lat="46.81785" lon="5.6817">
        <ele>384.771592</ele>
        <time>2022-04-01T19:46:10.766Z</time>
      </trkpt>
      <trkpt lat="46.81913" lon="5.6837">
        <ele>384.936475</ele>
        <time>2022-04-01T19:46:38.013Z</time>
      </trkpt>
      <trkpt lat="46.81916" lon="5.6846">
        <ele>385.99819</ele>
        <time>2022-04-01T19:46:50.431Z</time>
      </trkpt>
      <trkpt lat="46.81933" lon="5.68615">
        <ele>387.886008</ele>
        <time>2022-04-01T19:47:16.520Z</time>
      </trkpt>
      <trkpt lat="46.81962" lon="5.68699">
        <ele>388.642641</ele>
        <time>2022-04-01T19:47:31.661Z</time>
      </trkpt>
      <trkpt lat="46.82005" lon="5.68766">
        <ele>389.288012</ele>
        <time>2022-04-01T19:47:44.255Z</time>
      </trkpt>
      <trkpt lat="46.82043" lon="5.68867">
        <ele>389.707831</ele>
        <time>2022-04-01T19:47:56.564Z</time>
      </trkpt>
      <trkpt lat="46.8209" lon="5.68942">
        <ele>388.491132</ele>
        <time>2022-04-01T19:48:04.546Z</time>
      </trkpt>
      <trkpt lat="46.8212" lon="5.68976">
        <ele>387.813869</ele>
        <time>2022-04-01T19:48:08.731Z</time>
      </trkpt>
      <trkpt lat="46.82153" lon="5.69002">
        <ele>387.174015</ele>
        <time>2022-04-01T19:48:12.639Z</time>
      </trkpt>
      <trkpt lat="46.82285" lon="5.69208">
        <ele>381.479214</ele>
        <time>2022-04-01T19:48:32.528Z</time>
      </trkpt>
      <trkpt lat="46.82374" lon="5.69426">
        <ele>374.383371</ele>
        <time>2022-04-01T19:48:49.335Z</time>
      </trkpt>
      <trkpt lat="46.82442" lon="5.69693">
        <ele>366.797143</ele>
        <time>2022-04-01T19:49:07.972Z</time>
      </trkpt>
      <trkpt lat="46.82507" lon="5.69777">
        <ele>368.649873</ele>
        <time>2022-04-01T19:49:22.569Z</time>
      </trkpt>
      <trkpt lat="46.82504" lon="5.69795">
        <ele>368.918305</ele>
        <time>2022-04-01T19:49:27.859Z</time>
      </trkpt>
      <trkpt lat="46.82509" lon="5.69842">
        <ele>369.619873</ele>
        <time>2022-04-01T19:49:37.322Z</time>
      </trkpt>
      <trkpt lat="46.82541" lon="5.69875">
        <ele>370.453583</ele>
        <time>2022-04-01T19:49:50.325Z</time>
      </trkpt>
      <trkpt lat="46.8256" lon="5.69913">
        <ele>372.673041</ele>
        <time>2022-04-01T19:50:01.621Z</time>
      </trkpt>
      <trkpt lat="46.82593" lon="5.69944">
        <ele>375.749892</ele>
        <time>2022-04-01T19:50:20.464Z</time>
      </trkpt>
      <trkpt lat="46.82621" lon="5.69947">
        <ele>377.944132</ele>
        <time>2022-04-01T19:50:33.531Z</time>
      </trkpt>
      <trkpt lat="46.82636" lon="5.69956">
        <ele>379.26088</ele>
        <time>2022-04-01T19:50:41.458Z</time>
      </trkpt>
      <trkpt lat="46.82682" lon="5.70011">
        <ele>383.995056</ele>
        <time>2022-04-01T19:51:14.064Z</time>
      </trkpt>
      <trkpt lat="46.82704" lon="5.70025">
        <ele>386.801677</ele>
        <time>2022-04-01T19:51:23.858Z</time>
      </trkpt>
      <trkpt lat="46.82711" lon="5.70038">
        <ele>388.444418</ele>
        <time>2022-04-01T19:51:30.960Z</time>
      </trkpt>
      <trkpt lat="46.82661" lon="5.70022">
        <ele>395.982423</ele>
        <time>2022-04-01T19:51:55.670Z</time>
      </trkpt>
      <trkpt lat="46.82615" lon="5.70023">
        <ele>402.853068</ele>
        <time>2022-04-01T19:52:35.385Z</time>
      </trkpt>
      <trkpt lat="46.82553" lon="5.70043">
        <ele>412.407383</ele>
        <time>2022-04-01T19:53:38.428Z</time>
      </trkpt>
      <trkpt lat="46.82517" lon="5.7007">
        <ele>419.828053</ele>
        <time>2022-04-01T19:54:14.442Z</time>
      </trkpt>
      <trkpt lat="46.82485" lon="5.70083">
        <ele>425.832551</ele>
        <time>2022-04-01T19:54:44.945Z</time>
      </trkpt>
      <trkpt lat="46.82363" lon="5.70014">
        <ele>447.27648</ele>
        <time>2022-04-01T19:56:40.396Z</time>
      </trkpt>
      <trkpt lat="46.82293" lon="5.69984">
        <ele>454.407063</ele>
        <time>2022-04-01T19:57:18.186Z</time>
      </trkpt>
      <trkpt lat="46.82234" lon="5.69907">
        <ele>462.122706</ele>
        <time>2022-04-01T19:57:50.122Z</time>
      </trkpt>
      <trkpt lat="46.82175" lon="5.69877">
        <ele>465.917665</ele>
        <time>2022-04-01T19:58:10.921Z</time>
      </trkpt>
      <trkpt lat="46.82152" lon="5.69842">
        <ele>467.971346</ele>
        <time>2022-04-01T19:58:20.483Z</time>
      </trkpt>
      <trkpt lat="46.8213" lon="5.69765">
        <ele>471.490263</ele>
        <time>2022-04-01T19:58:44.382Z</time>
      </trkpt>
      <trkpt lat="46.82089" lon="5.69648">
        <ele>478.791621</ele>
        <time>2022-04-01T19:59:30.361Z</time>
      </trkpt>
      <trkpt lat="46.8208" lon="5.69657">
        <ele>479.709186</ele>
        <time>2022-04-01T19:59:38.557Z</time>
      </trkpt>
      <trkpt lat="46.82077" lon="5.69672">
        <ele>480.640631</ele>
        <time>2022-04-01T19:59:43.083Z</time>
      </trkpt>
      <trkpt lat="46.8209" lon="5.69717">
        <ele>483.621656</ele>
        <time>2022-04-01T20:00:00.261Z</time>
      </trkpt>
      <trkpt lat="46.82091" lon="5.69772">
        <ele>486.950776</ele>
        <time>2022-04-01T20:00:18.945Z</time>
      </trkpt>
      <trkpt lat="46.82104" lon="5.69826">
        <ele>489.703102</ele>
        <time>2022-04-01T20:00:37.420Z</time>
      </trkpt>
      <trkpt lat="46.82125" lon="5.69883">
        <ele>491.809296</ele>
        <time>2022-04-01T20:00:57.612Z</time>
      </trkpt>
      <trkpt lat="46.82146" lon="5.69973">
        <ele>494.928776</ele>
        <time>2022-04-01T20:01:20.674Z</time>
      </trkpt>
      <trkpt lat="46.82157" lon="5.69981">
        <ele>495.480987</ele>
        <time>2022-04-01T20:01:22.870Z</time>
      </trkpt>
      <trkpt lat="46.82187" lon="5.69983">
        <ele>496.944243</ele>
        <time>2022-04-01T20:01:29.261Z</time>
      </trkpt>
      <trkpt lat="46.82211" lon="5.69999">
        <ele>497.189033</ele>
        <time>2022-04-01T20:01:33.631Z</time>
      </trkpt>
      <trkpt lat="46.82228" lon="5.70024">
        <ele>496.749548</ele>
        <time>2022-04-01T20:01:37.600Z</time>
      </trkpt>
      <trkpt lat="46.82211" lon="5.69999">
        <ele>496.310064</ele>
        <time>2022-04-01T20:01:40.896Z</time>
      </trkpt>
      <trkpt lat="46.82187" lon="5.69983">
        <ele>495.833284</ele>
        <time>2022-04-01T20:01:44.423Z</time>
      </trkpt>
      <trkpt lat="46.82157" lon="5.69981">
        <ele>495.277093</ele>
        <time>2022-04-01T20:01:47.974Z</time>
      </trkpt>
      <trkpt lat="46.82146" lon="5.69973">
        <ele>495.067195</ele>
        <time>2022-04-01T20:01:49.376Z</time>
      </trkpt>
      <trkpt lat="46.82125" lon="5.69883">
        <ele>492.842738</ele>
        <time>2022-04-01T20:01:55.539Z</time>
      </trkpt>
      <trkpt lat="46.82104" lon="5.69826">
        <ele>489.526669</ele>
        <time>2022-04-01T20:01:59.465Z</time>
      </trkpt>
      <trkpt lat="46.82091" lon="5.69772">
        <ele>486.612313</ele>
        <time>2022-04-01T20:02:02.882Z</time>
      </trkpt>
      <trkpt lat="46.8209" lon="5.69717">
        <ele>483.78994</ele>
        <time>2022-04-01T20:02:06.174Z</time>
      </trkpt>
      <trkpt lat="46.82077" lon="5.69672">
        <ele>481.262677</ele>
        <time>2022-04-01T20:02:09.130Z</time>
      </trkpt>
      <trkpt lat="46.8208" lon="5.69657">
        <ele>480.592397</ele>
        <time>2022-04-01T20:02:10.099Z</time>
      </trkpt>
      <trkpt lat="46.82089" lon="5.69648">
        <ele>480.17679</ele>
        <time>2022-04-01T20:02:10.962Z</time>
      </trkpt>
      <trkpt lat="46.8203" lon="5.69509">
        <ele>475.70935</ele>
        <time>2022-04-01T20:02:21.203Z</time>
      </trkpt>
      <trkpt lat="46.82005" lon="5.69462">
        <ele>474.072688</ele>
        <time>2022-04-01T20:02:26.338Z</time>
      </trkpt>
      <trkpt lat="46.8194" lon="5.69365">
        <ele>477.961026</ele>
        <time>2022-04-01T20:02:56.024Z</time>
      </trkpt>
      <trkpt lat="46.81899" lon="5.69313">
        <ele>481.039256</ele>
        <time>2022-04-01T20:03:18.961Z</time>
      </trkpt>
      <trkpt lat="46.81835" lon="5.69252">
        <ele>486.051314</ele>
        <time>2022-04-01T20:03:56.748Z</time>
      </trkpt>
      <trkpt lat="46.81711" lon="5.69147">
        <ele>497.320814</ele>
        <time>2022-04-01T20:05:04.687Z</time>
      </trkpt>
      <trkpt lat="46.81688" lon="5.6912">
        <ele>499.160843</ele>
        <time>2022-04-01T20:05:16.808Z</time>
      </trkpt>
      <trkpt lat="46.81617" lon="5.69015">
        <ele>504.815312</ele>
        <time>2022-04-01T20:05:53.881Z</time>
      </trkpt>
      <trkpt lat="46.81527" lon="5.68919">
        <ele>510.980876</ele>
        <time>2022-04-01T20:06:31.564Z</time>
      </trkpt>
      <trkpt lat="46.81466" lon="5.68876">
        <ele>514.655988</ele>
        <time>2022-04-01T20:06:55.961Z</time>
      </trkpt>
      <trkpt lat="46.8105" lon="5.68647">
        <ele>540.527177</ele>
        <time>2022-04-01T20:09:52.311Z</time>
      </trkpt>
      <trkpt lat="46.80849" lon="5.68467">
        <ele>547.28761</ele>
        <time>2022-04-01T20:10:49.350Z</time>
      </trkpt>
      <trkpt lat="46.80769" lon="5.68425">
        <ele>549.260996</ele>
        <time>2022-04-01T20:11:08.338Z</time>
      </trkpt>
      <trkpt lat="46.80724" lon="5.68413">
        <ele>550.962609</ele>
        <time>2022-04-01T20:11:20.618Z</time>
      </trkpt>
      <trkpt lat="46.80696" lon="5.68411">
        <ele>552.142551</ele>
        <time>2022-04-01T20:11:28.936Z</time>
      </trkpt>
      <trkpt lat="46.80501" lon="5.68395">
        <ele>560.888471</ele>
        <time>2022-04-01T20:12:36.303Z</time>
      </trkpt>
      <trkpt lat="46.80444" lon="5.68382">
        <ele>563.733966</ele>
        <time>2022-04-01T20:12:56.897Z</time>
      </trkpt>
      <trkpt lat="46.80412" lon="5.68378">
        <ele>565.324911</ele>
        <time>2022-04-01T20:13:07.705Z</time>
      </trkpt>
      <trkpt lat="46.80408" lon="5.6838">
        <ele>565.485987</ele>
        <time>2022-04-01T20:13:08.852Z</time>
      </trkpt>
      <trkpt lat="46.804" lon="5.68385">
        <ele>565.933678</ele>
        <time>2022-04-01T20:13:11.884Z</time>
      </trkpt>
      <trkpt lat="46.80376" lon="5.68404">
        <ele>567.21924</ele>
        <time>2022-04-01T20:13:20.919Z</time>
      </trkpt>
      <trkpt lat="46.80331" lon="5.68434">
        <ele>569.521648</ele>
        <time>2022-04-01T20:13:37.212Z</time>
      </trkpt>
      <trkpt lat="46.80264" lon="5.68454">
        <ele>572.70108</ele>
        <time>2022-04-01T20:14:01.598Z</time>
      </trkpt>
      <trkpt lat="46.80206" lon="5.68491">
        <ele>574.917631</ele>
        <time>2022-04-01T20:14:22.039Z</time>
      </trkpt>
      <trkpt lat="46.80167" lon="5.68524">
        <ele>575.915762</ele>
        <time>2022-04-01T20:14:33.837Z</time>
      </trkpt>
      <trkpt lat="46.80088" lon="5.68604">
        <ele>578.0747</ele>
        <time>2022-04-01T20:14:55.481Z</time>
      </trkpt>
      <trkpt lat="46.80084" lon="5.68611">
        <ele>578.207675</ele>
        <time>2022-04-01T20:14:56.637Z</time>
      </trkpt>
      <trkpt lat="46.8006" lon="5.68625">
        <ele>577.688338</ele>
        <time>2022-04-01T20:15:00.210Z</time>
      </trkpt>
      <trkpt lat="46.79987" lon="5.68538">
        <ele>575.363219</ele>
        <time>2022-04-01T20:15:10.185Z</time>
      </trkpt>
      <trkpt lat="46.79943" lon="5.6857">
        <ele>574.163521</ele>
        <time>2022-04-01T20:15:14.913Z</time>
      </trkpt>
      <trkpt lat="46.79925" lon="5.68581">
        <ele>573.481257</ele>
        <time>2022-04-01T20:15:16.842Z</time>
      </trkpt>
      <trkpt lat="46.79921" lon="5.68583">
        <ele>573.205282</ele>
        <time>2022-04-01T20:15:17.296Z</time>
      </trkpt>
      <trkpt lat="46.79885" lon="5.68599">
        <ele>571.009544</ele>
        <time>2022-04-01T20:15:20.818Z</time>
      </trkpt>
      <trkpt lat="46.79748" lon="5.68672">
        <ele>562.472392</ele>
        <time>2022-04-01T20:15:34.065Z</time>
      </trkpt>
      <trkpt lat="46.79704" lon="5.68693">
        <ele>559.857643</ele>
        <time>2022-04-01T20:15:38.265Z</time>
      </trkpt>
      <trkpt lat="46.79674" lon="5.6872">
        <ele>557.837235</ele>
        <time>2022-04-01T20:15:41.481Z</time>
      </trkpt>
      <trkpt lat="46.7959" lon="5.68823">
        <ele>552.027106</ele>
        <time>2022-04-01T20:15:51.805Z</time>
      </trkpt>
      <trkpt lat="46.79569" lon="5.68842">
        <ele>551.078346</ele>
        <time>2022-04-01T20:15:54.161Z</time>
      </trkpt>
      <trkpt lat="46.7954" lon="5.68839">
        <ele>549.958525</ele>
        <time>2022-04-01T20:15:57.040Z</time>
      </trkpt>
      <trkpt lat="46.79492" lon="5.6879">
        <ele>547.743641</ele>
        <time>2022-04-01T20:16:02.867Z</time>
      </trkpt>
      <trkpt lat="46.79472" lon="5.68781">
        <ele>546.916389</ele>
        <time>2022-04-01T20:16:04.999Z</time>
      </trkpt>
      <trkpt lat="46.7943" lon="5.68784">
        <ele>545.603951</ele>
        <time>2022-04-01T20:16:09.246Z</time>
      </trkpt>
      <trkpt lat="46.79353" lon="5.68826">
        <ele>543.652117</ele>
        <time>2022-04-01T20:16:18.048Z</time>
      </trkpt>
      <trkpt lat="46.79297" lon="5.68843">
        <ele>542.280628</ele>
        <time>2022-04-01T20:16:24.220Z</time>
      </trkpt>
      <trkpt lat="46.79155" lon="5.68915">
        <ele>539.613475</ele>
        <time>2022-04-01T20:16:41.023Z</time>
      </trkpt>
      <trkpt lat="46.79102" lon="5.68925">
        <ele>538.736236</ele>
        <time>2022-04-01T20:16:47.266Z</time>
      </trkpt>
      <trkpt lat="46.79033" lon="5.68924">
        <ele>538.001876</ele>
        <time>2022-04-01T20:16:55.452Z</time>
      </trkpt>
      <trkpt lat="46.7893" lon="5.68944">
        <ele>536.897883</ele>
        <time>2022-04-01T20:17:08.314Z</time>
      </trkpt>
      <trkpt lat="46.78893" lon="5.68951">
        <ele>536.762519</ele>
        <time>2022-04-01T20:17:12.949Z</time>
      </trkpt>
      <trkpt lat="46.78826" lon="5.68973">
        <ele>536.542274</ele>
        <time>2022-04-01T20:17:22.048Z</time>
      </trkpt>
      <trkpt lat="46.78711" lon="5.69031">
        <ele>536.595861</ele>
        <time>2022-04-01T20:17:40.466Z</time>
      </trkpt>
      <trkpt lat="46.78666" lon="5.69044">
        <ele>536.897982</ele>
        <time>2022-04-01T20:17:48.432Z</time>
      </trkpt>
      <trkpt lat="46.78608" lon="5.69047">
        <ele>537.281289</ele>
        <time>2022-04-01T20:17:59.531Z</time>
      </trkpt>
      <trkpt lat="46.78486" lon="5.68999">
        <ele>537.590014</ele>
        <time>2022-04-01T20:18:22.948Z</time>
      </trkpt>
      <trkpt lat="46.78473" lon="5.69003">
        <ele>537.603461</ele>
        <time>2022-04-01T20:18:24.993Z</time>
      </trkpt>
      <trkpt lat="46.78403" lon="5.69084">
        <ele>537.357892</ele>
        <time>2022-04-01T20:18:36.249Z</time>
      </trkpt>
      <trkpt lat="46.78366" lon="5.6912">
        <ele>536.529885</ele>
        <time>2022-04-01T20:18:41.251Z</time>
      </trkpt>
      <trkpt lat="46.78337" lon="5.6914">
        <ele>535.938288</ele>
        <time>2022-04-01T20:18:44.743Z</time>
      </trkpt>
      <trkpt lat="46.78209" lon="5.69169">
        <ele>533.84034</ele>
        <time>2022-04-01T20:18:58.558Z</time>
      </trkpt>
      <trkpt lat="46.77999" lon="5.69249">
        <ele>532.424292</ele>
        <time>2022-04-01T20:19:26.598Z</time>
      </trkpt>
      <trkpt lat="46.77884" lon="5.69245">
        <ele>532.838672</ele>
        <time>2022-04-01T20:19:47.328Z</time>
      </trkpt>
      <trkpt lat="46.77844" lon="5.69262">
        <ele>533.417002</ele>
        <time>2022-04-01T20:19:55.799Z</time>
      </trkpt>
      <trkpt lat="46.77837" lon="5.69266">
        <ele>533.513353</ele>
        <time>2022-04-01T20:19:57.200Z</time>
      </trkpt>
      <trkpt lat="46.77788" lon="5.69297">
        <ele>534.255185</ele>
        <time>2022-04-01T20:20:08.710Z</time>
      </trkpt>
      <trkpt lat="46.77744" lon="5.69309">
        <ele>534.859318</ele>
        <time>2022-04-01T20:20:17.997Z</time>
      </trkpt>
      <trkpt lat="46.77711" lon="5.69309">
        <ele>535.203942</ele>
        <time>2022-04-01T20:20:24.941Z</time>
      </trkpt>
      <trkpt lat="46.77665" lon="5.69294">
        <ele>535.53812</ele>
        <time>2022-04-01T20:20:34.373Z</time>
      </trkpt>
      <trkpt lat="46.77606" lon="5.6923">
        <ele>536.059367</ele>
        <time>2022-04-01T20:20:46.944Z</time>
      </trkpt>
      <trkpt lat="46.77567" lon="5.69226">
        <ele>536.336369</ele>
        <time>2022-04-01T20:20:53.065Z</time>
      </trkpt>
      <trkpt lat="46.77365" lon="5.69331">
        <ele>535.486751</ele>
        <time>2022-04-01T20:21:22.575Z</time>
      </trkpt>
      <trkpt lat="46.7734" lon="5.69329">
        <ele>535.155651</ele>
        <time>2022-04-01T20:21:25.684Z</time>
      </trkpt>
      <trkpt lat="46.77278" lon="5.69297">
        <ele>534.312371</ele>
        <time>2022-04-01T20:21:33.159Z</time>
      </trkpt>
      <trkpt lat="46.77245" lon="5.6929">
        <ele>533.873727</ele>
        <time>2022-04-01T20:21:36.953Z</time>
      </trkpt>
      <trkpt lat="46.77127" lon="5.69286">
        <ele>532.299658</ele>
        <time>2022-04-01T20:21:50.131Z</time>
      </trkpt>
      <trkpt lat="46.76958" lon="5.69296">
        <ele>530.622167</ele>
        <time>2022-04-01T20:22:11.133Z</time>
      </trkpt>
      <trkpt lat="46.76839" lon="5.69324">
        <ele>529.257394</ele>
        <time>2022-04-01T20:22:29.749Z</time>
      </trkpt>
      <trkpt lat="46.76713" lon="5.69379">
        <ele>524.882396</ele>
        <time>2022-04-01T20:22:42.513Z</time>
      </trkpt>
      <trkpt lat="46.76706" lon="5.69382">
        <ele>524.620192</ele>
        <time>2022-04-01T20:22:43.274Z</time>
      </trkpt>
      <trkpt lat="46.76677" lon="5.69261">
        <ele>522.48583</ele>
        <time>2022-04-01T20:22:51.761Z</time>
      </trkpt>
      <trkpt lat="46.76655" lon="5.69094">
        <ele>520.239889</ele>
        <time>2022-04-01T20:23:04.886Z</time>
      </trkpt>
      <trkpt lat="46.76644" lon="5.68976">
        <ele>522.035994</ele>
        <time>2022-04-01T20:23:28.657Z</time>
      </trkpt>
      <trkpt lat="46.76641" lon="5.68661">
        <ele>523.595858</ele>
        <time>2022-04-01T20:24:21.123Z</time>
      </trkpt>
      <trkpt lat="46.76642" lon="5.68553">
        <ele>521.24632</ele>
        <time>2022-04-01T20:24:28.114Z</time>
      </trkpt>
      <trkpt lat="46.76613" lon="5.68547">
        <ele>517.936714</ele>
        <time>2022-04-01T20:24:30.638Z</time>
      </trkpt>
      <trkpt lat="46.76592" lon="5.68531">
        <ele>515.217391</ele>
        <time>2022-04-01T20:24:32.657Z</time>
      </trkpt>
      <trkpt lat="46.76581" lon="5.68531">
        <ele>513.874778</ele>
        <time>2022-04-01T20:24:33.680Z</time>
      </trkpt>
      <trkpt lat="46.76551" lon="5.68552">
        <ele>510.067018</ele>
        <time>2022-04-01T20:24:36.485Z</time>
      </trkpt>
      <trkpt lat="46.76525" lon="5.68574">
        <ele>506.632432</ele>
        <time>2022-04-01T20:24:38.969Z</time>
      </trkpt>
      <trkpt lat="46.76509" lon="5.68577">
        <ele>504.859137</ele>
        <time>2022-04-01T20:24:40.261Z</time>
      </trkpt>
      <trkpt lat="46.76409" lon="5.68583">
        <ele>488.702266</ele>
        <time>2022-04-01T20:24:48.490Z</time>
      </trkpt>
      <trkpt lat="46.7639" lon="5.68576">
        <ele>485.170811</ele>
        <time>2022-04-01T20:24:50.161Z</time>
      </trkpt>
      <trkpt lat="46.76365" lon="5.68577">
        <ele>480.966884</ele>
        <time>2022-04-01T20:24:52.169Z</time>
      </trkpt>
      <trkpt lat="46.76352" lon="5.68594">
        <ele>477.877784</ele>
        <time>2022-04-01T20:24:53.651Z</time>
      </trkpt>
      <trkpt lat="46.76324" lon="5.68684">
        <ele>467.742021</ele>
        <time>2022-04-01T20:24:59.200Z</time>
      </trkpt>
      <trkpt lat="46.76326" lon="5.68708">
        <ele>465.579861</ele>
        <time>2022-04-01T20:25:00.606Z</time>
      </trkpt>
      <trkpt lat="46.76359" lon="5.688">
        <ele>456.569107</ele>
        <time>2022-04-01T20:25:06.539Z</time>
      </trkpt>
      <trkpt lat="46.76436" lon="5.68919">
        <ele>447.608003</ele>
        <time>2022-04-01T20:25:16.318Z</time>
      </trkpt>
      <trkpt lat="46.76478" lon="5.69007">
        <ele>445.716348</ele>
        <time>2022-04-01T20:25:24.524Z</time>
      </trkpt>
      <trkpt lat="46.76555" lon="5.69139">
        <ele>447.205608</ele>
        <time>2022-04-01T20:25:54.245Z</time>
      </trkpt>
      <trkpt lat="46.76573" lon="5.69185">
        <ele>448.863812</ele>
        <time>2022-04-01T20:26:08.731Z</time>
      </trkpt>
      <trkpt lat="46.76574" lon="5.69254">
        <ele>451.004578</ele>
        <time>2022-04-01T20:26:28.174Z</time>
      </trkpt>
      <trkpt lat="46.76558" lon="5.69303">
        <ele>452.413831</ele>
        <time>2022-04-01T20:26:42.085Z</time>
      </trkpt>
      <trkpt lat="46.76543" lon="5.69332">
        <ele>452.044683</ele>
        <time>2022-04-01T20:26:50.711Z</time>
      </trkpt>
      <trkpt lat="46.76492" lon="5.69306">
        <ele>451.244118</ele>
        <time>2022-04-01T20:27:05.101Z</time>
      </trkpt>
      <trkpt lat="46.76392" lon="5.69216">
        <ele>446.80828</ele>
        <time>2022-04-01T20:27:16.148Z</time>
      </trkpt>
      <trkpt lat="46.76282" lon="5.69086">
        <ele>427.030198</ele>
        <time>2022-04-01T20:27:27.871Z</time>
      </trkpt>
      <trkpt lat="46.76165" lon="5.68986">
        <ele>402.774832</ele>
        <time>2022-04-01T20:27:39.023Z</time>
      </trkpt>
      <trkpt lat="46.76155" lon="5.68964">
        <ele>399.566085</ele>
        <time>2022-04-01T20:27:40.474Z</time>
      </trkpt>
      <trkpt lat="46.76155" lon="5.68925">
        <ele>394.598177</ele>
        <time>2022-04-01T20:27:42.723Z</time>
      </trkpt>
      <trkpt lat="46.76148" lon="5.68886">
        <ele>390.34115</ele>
        <time>2022-04-01T20:27:44.987Z</time>
      </trkpt>
      <trkpt lat="46.76144" lon="5.68861">
        <ele>388.27774</ele>
        <time>2022-04-01T20:27:46.480Z</time>
      </trkpt>
      <trkpt lat="46.76143" lon="5.68821">
        <ele>385.176129</ele>
        <time>2022-04-01T20:27:48.730Z</time>
      </trkpt>
      <trkpt lat="46.7615" lon="5.68776">
        <ele>381.497511</ele>
        <time>2022-04-01T20:27:51.386Z</time>
      </trkpt>
      <trkpt lat="46.76156" lon="5.68737">
        <ele>378.349469</ele>
        <time>2022-04-01T20:27:53.670Z</time>
      </trkpt>
      <trkpt lat="46.76166" lon="5.68599">
        <ele>369.532954</ele>
        <time>2022-04-01T20:28:02.128Z</time>
      </trkpt>
      <trkpt lat="46.76141" lon="5.68492">
        <ele>366.155915</ele>
        <time>2022-04-01T20:28:09.910Z</time>
      </trkpt>
      <trkpt lat="46.76145" lon="5.68442">
        <ele>364.657405</ele>
        <time>2022-04-01T20:28:13.347Z</time>
      </trkpt>
      <trkpt lat="46.76186" lon="5.68391">
        <ele>362.741048</ele>
        <time>2022-04-01T20:28:18.704Z</time>
      </trkpt>
      <trkpt lat="46.76202" lon="5.68339">
        <ele>362.047259</ele>
        <time>2022-04-01T20:28:22.745Z</time>
      </trkpt>
      <trkpt lat="46.762" lon="5.6833">
        <ele>361.92725</ele>
        <time>2022-04-01T20:28:23.467Z</time>
      </trkpt>
      <trkpt lat="46.7619" lon="5.68289">
        <ele>361.397977</ele>
        <time>2022-04-01T20:28:26.841Z</time>
      </trkpt>
      <trkpt lat="46.76184" lon="5.68254">
        <ele>360.961836</ele>
        <time>2022-04-01T20:28:29.746Z</time>
      </trkpt>
      <trkpt lat="46.76172" lon="5.68199">
        <ele>360.24647</ele>
        <time>2022-04-01T20:28:34.624Z</time>
      </trkpt>
      <trkpt lat="46.76144" lon="5.68117">
        <ele>359.841384</ele>
        <time>2022-04-01T20:28:42.533Z</time>
      </trkpt>
      <trkpt lat="46.76138" lon="5.68072">
        <ele>359.85887</ele>
        <time>2022-04-01T20:28:47.353Z</time>
      </trkpt>
      <trkpt lat="46.76166" lon="5.6789">
        <ele>359.885638</ele>
        <time>2022-04-01T20:29:08.453Z</time>
      </trkpt>
      <trkpt lat="46.76166" lon="5.6789">
        <ele>359.885638</ele>
        <time>2022-04-01T20:29:08.639Z</time>
      </trkpt>
      <trkpt lat="46.76163" lon="5.67859">
        <ele>359.843337</ele>
        <time>2022-04-01T20:29:11.468Z</time>
      </trkpt>
      <trkpt lat="46.76139" lon="5.67777">
        <ele>359.723773</ele>
        <time>2022-04-01T20:29:20.689Z</time>
      </trkpt>
      <trkpt lat="46.76121" lon="5.67678">
        <ele>359.587346</ele>
        <time>2022-04-01T20:29:29.955Z</time>
      </trkpt>
      <trkpt lat="46.76103" lon="5.67623">
        <ele>359.239129</ele>
        <time>2022-04-01T20:29:34.929Z</time>
      </trkpt>
      <trkpt lat="46.76026" lon="5.67464">
        <ele>357.880741</ele>
        <time>2022-04-01T20:29:51.442Z</time>
      </trkpt>
      <trkpt lat="46.75947" lon="5.6739">
        <ele>356.284204</ele>
        <time>2022-04-01T20:30:02.285Z</time>
      </trkpt>
      <trkpt lat="46.75776" lon="5.67294">
        <ele>352.380085</ele>
        <time>2022-04-01T20:30:22.090Z</time>
      </trkpt>
      <trkpt lat="46.75664" lon="5.67264">
        <ele>349.494716</ele>
        <time>2022-04-01T20:30:33.893Z</time>
      </trkpt>
      <trkpt lat="46.75597" lon="5.67214">
        <ele>347.364001</ele>
        <time>2022-04-01T20:30:41.724Z</time>
      </trkpt>
      <trkpt lat="46.75513" lon="5.6721">
        <ele>344.962237</ele>
        <time>2022-04-01T20:30:50.395Z</time>
      </trkpt>
      <trkpt lat="46.75485" lon="5.67199">
        <ele>344.2358</ele>
        <time>2022-04-01T20:30:53.259Z</time>
      </trkpt>
      <trkpt lat="46.75332" lon="5.67062">
        <ele>339.404536</ele>
        <time>2022-04-01T20:31:12.430Z</time>
      </trkpt>
      <trkpt lat="46.75281" lon="5.6703">
        <ele>337.428743</ele>
        <time>2022-04-01T20:31:18.105Z</time>
      </trkpt>
      <trkpt lat="46.75217" lon="5.67017">
        <ele>335.103593</ele>
        <time>2022-04-01T20:31:24.373Z</time>
      </trkpt>
      <trkpt lat="46.75134" lon="5.67032">
        <ele>331.683466</ele>
        <time>2022-04-01T20:31:32.549Z</time>
      </trkpt>
      <trkpt lat="46.75138" lon="5.67064">
        <ele>330.685942</ele>
        <time>2022-04-01T20:31:34.637Z</time>
      </trkpt>
      <trkpt lat="46.75132" lon="5.67075">
        <ele>330.241758</ele>
        <time>2022-04-01T20:31:35.582Z</time>
      </trkpt>
      <trkpt lat="46.75111" lon="5.67071">
        <ele>329.290907</ele>
        <time>2022-04-01T20:31:37.512Z</time>
      </trkpt>
      <trkpt lat="46.75087" lon="5.67053">
        <ele>328.076431</ele>
        <time>2022-04-01T20:31:40.022Z</time>
      </trkpt>
      <trkpt lat="46.75022" lon="5.67024">
        <ele>325.754404</ele>
        <time>2022-04-01T20:31:46.538Z</time>
      </trkpt>
      <trkpt lat="46.75012" lon="5.6703">
        <ele>325.710684</ele>
        <time>2022-04-01T20:31:47.665Z</time>
      </trkpt>
      <trkpt lat="46.74989" lon="5.67072">
        <ele>325.565097</ele>
        <time>2022-04-01T20:31:52.132Z</time>
      </trkpt>
      <trkpt lat="46.74978" lon="5.67111">
        <ele>325.448924</ele>
        <time>2022-04-01T20:31:56.474Z</time>
      </trkpt>
      <trkpt lat="46.74942" lon="5.67191">
        <ele>325.188157</ele>
        <time>2022-04-01T20:32:08.453Z</time>
      </trkpt>
      <trkpt lat="46.74931" lon="5.67217">
        <ele>325.136028</ele>
        <time>2022-04-01T20:32:12.963Z</time>
      </trkpt>
      <trkpt lat="46.74932" lon="5.67233">
        <ele>325.6506</ele>
        <time>2022-04-01T20:32:15.164Z</time>
      </trkpt>
      <trkpt lat="46.74933" lon="5.67243">
        <ele>325.951732</ele>
        <time>2022-04-01T20:32:16.488Z</time>
      </trkpt>
      <trkpt lat="46.74933" lon="5.67258">
        <ele>326.386089</ele>
        <time>2022-04-01T20:32:18.765Z</time>
      </trkpt>
      <trkpt lat="46.74932" lon="5.6743">
        <ele>331.60392</ele>
        <time>2022-04-01T20:32:56.026Z</time>
      </trkpt>
      <trkpt lat="46.74937" lon="5.67443">
        <ele>332.062607</ele>
        <time>2022-04-01T20:33:00.840Z</time>
      </trkpt>
      <trkpt lat="46.74949" lon="5.67439">
        <ele>332.600649</ele>
        <time>2022-04-01T20:33:05.927Z</time>
      </trkpt>
      <trkpt lat="46.74966" lon="5.67402">
        <ele>334.885016</ele>
        <time>2022-04-01T20:33:19.670Z</time>
      </trkpt>
      <trkpt lat="46.7498" lon="5.67385">
        <ele>336.590121</ele>
        <time>2022-04-01T20:33:28.367Z</time>
      </trkpt>
      <trkpt lat="46.75012" lon="5.6736">
        <ele>339.949163</ele>
        <time>2022-04-01T20:33:47.162Z</time>
      </trkpt>
      <trkpt lat="46.75029" lon="5.67358">
        <ele>341.473749</ele>
        <time>2022-04-01T20:33:56.443Z</time>
      </trkpt>
      <trkpt lat="46.75063" lon="5.67363">
        <ele>344.61027</ele>
        <time>2022-04-01T20:34:14.696Z</time>
      </trkpt>
      <trkpt lat="46.7509" lon="5.6738">
        <ele>347.328672</ele>
        <time>2022-04-01T20:34:30.165Z</time>
      </trkpt>
      <trkpt lat="46.75138" lon="5.67399">
        <ele>352.370353</ele>
        <time>2022-04-01T20:34:59.433Z</time>
      </trkpt>
      <trkpt lat="46.75175" lon="5.67415">
        <ele>356.503963</ele>
        <time>2022-04-01T20:35:23.123Z</time>
      </trkpt>
      <trkpt lat="46.75251" lon="5.67414">
        <ele>364.82666</ele>
        <time>2022-04-01T20:36:07.138Z</time>
      </trkpt>
      <trkpt lat="46.75338" lon="5.67438">
        <ele>375.399225</ele>
        <time>2022-04-01T20:36:57.113Z</time>
      </trkpt>
      <trkpt lat="46.75449" lon="5.67512">
        <ele>391.307564</ele>
        <time>2022-04-01T20:38:25.339Z</time>
      </trkpt>
      <trkpt lat="46.75518" lon="5.67576">
        <ele>402.160216</ele>
        <time>2022-04-01T20:39:20.929Z</time>
      </trkpt>
      <trkpt lat="46.75622" lon="5.67616">
        <ele>416.44209</ele>
        <time>2022-04-01T20:40:36.231Z</time>
      </trkpt>
      <trkpt lat="46.75629" lon="5.67623">
        <ele>417.169962</ele>
        <time>2022-04-01T20:40:41.244Z</time>
      </trkpt>
      <trkpt lat="46.7563" lon="5.67634">
        <ele>417.93055</ele>
        <time>2022-04-01T20:40:46.879Z</time>
      </trkpt>
      <trkpt lat="46.75622" lon="5.67641">
        <ele>418.84204</ele>
        <time>2022-04-01T20:40:52.703Z</time>
      </trkpt>
      <trkpt lat="46.75484" lon="5.67634">
        <ele>431.46612</ele>
        <time>2022-04-01T20:42:05.092Z</time>
      </trkpt>
      <trkpt lat="46.75346" lon="5.67601">
        <ele>434.512804</ele>
        <time>2022-04-01T20:42:46.471Z</time>
      </trkpt>
      <trkpt lat="46.7528" lon="5.67612">
        <ele>434.462045</ele>
        <time>2022-04-01T20:42:52.955Z</time>
      </trkpt>
      <trkpt lat="46.75246" lon="5.67603">
        <ele>432.084297</ele>
        <time>2022-04-01T20:42:56.021Z</time>
      </trkpt>
      <trkpt lat="46.75224" lon="5.67618">
        <ele>430.427596</ele>
        <time>2022-04-01T20:42:58.107Z</time>
      </trkpt>
      <trkpt lat="46.7517" lon="5.67638">
        <ele>426.578476</ele>
        <time>2022-04-01T20:43:03.004Z</time>
      </trkpt>
      <trkpt lat="46.75079" lon="5.677">
        <ele>422.928606</ele>
        <time>2022-04-01T20:43:12.210Z</time>
      </trkpt>
      <trkpt lat="46.75057" lon="5.67726">
        <ele>422.983138</ele>
        <time>2022-04-01T20:43:14.932Z</time>
      </trkpt>
      <trkpt lat="46.75009" lon="5.67817">
        <ele>423.136149</ele>
        <time>2022-04-01T20:43:27.203Z</time>
      </trkpt>
      <trkpt lat="46.74984" lon="5.6788">
        <ele>427.285873</ele>
        <time>2022-04-01T20:43:54.355Z</time>
      </trkpt>
      <trkpt lat="46.74961" lon="5.67918">
        <ele>433.399115</ele>
        <time>2022-04-01T20:44:19.435Z</time>
      </trkpt>
      <trkpt lat="46.74889" lon="5.68158">
        <ele>467.177359</ele>
        <time>2022-04-01T20:47:20.795Z</time>
      </trkpt>
      <trkpt lat="46.74868" lon="5.68249">
        <ele>481.149953</ele>
        <time>2022-04-01T20:48:30.218Z</time>
      </trkpt>
      <trkpt lat="46.74858" lon="5.68274">
        <ele>485.540351</ele>
        <time>2022-04-01T20:48:51.165Z</time>
      </trkpt>
      <trkpt lat="46.7484" lon="5.68291">
        <ele>489.997015</ele>
        <time>2022-04-01T20:49:12.688Z</time>
      </trkpt>
      <trkpt lat="46.74821" lon="5.68297">
        <ele>493.73981</ele>
        <time>2022-04-01T20:49:29.827Z</time>
      </trkpt>
      <trkpt lat="46.74759" lon="5.68293">
        <ele>500.759826</ele>
        <time>2022-04-01T20:50:18.688Z</time>
      </trkpt>
      <trkpt lat="46.74695" lon="5.68318">
        <ele>508.146459</ele>
        <time>2022-04-01T20:50:55.578Z</time>
      </trkpt>
      <trkpt lat="46.7467" lon="5.68313">
        <ele>511.017371</ele>
        <time>2022-04-01T20:51:04.629Z</time>
      </trkpt>
      <trkpt lat="46.74638" lon="5.68323">
        <ele>513.586132</ele>
        <time>2022-04-01T20:51:15.211Z</time>
      </trkpt>
      <trkpt lat="46.74619" lon="5.6832">
        <ele>513.745934</ele>
        <time>2022-04-01T20:51:20.913Z</time>
      </trkpt>
      <trkpt lat="46.74596" lon="5.68295">
        <ele>513.972612</ele>
        <time>2022-04-01T20:51:27.898Z</time>
      </trkpt>
      <trkpt lat="46.74586" lon="5.68262">
        <ele>514.175718</ele>
        <time>2022-04-01T20:51:32.451Z</time>
      </trkpt>
      <trkpt lat="46.74585" lon="5.68244">
        <ele>514.272128</ele>
        <time>2022-04-01T20:51:34.534Z</time>
      </trkpt>
      <trkpt lat="46.74595" lon="5.68181">
        <ele>514.627809</ele>
        <time>2022-04-01T20:51:39.709Z</time>
      </trkpt>
      <trkpt lat="46.74563" lon="5.68069">
        <ele>514.088664</ele>
        <time>2022-04-01T20:51:49.099Z</time>
      </trkpt>
      <trkpt lat="46.74556" lon="5.68028">
        <ele>513.51995</ele>
        <time>2022-04-01T20:51:52.315Z</time>
      </trkpt>
      <trkpt lat="46.74553" lon="5.67957">
        <ele>512.557976</ele>
        <time>2022-04-01T20:51:57.643Z</time>
      </trkpt>
      <trkpt lat="46.74549" lon="5.67829">
        <ele>510.960409</ele>
        <time>2022-04-01T20:52:06.991Z</time>
      </trkpt>
      <trkpt lat="46.74553" lon="5.67784">
        <ele>510.484563</ele>
        <time>2022-04-01T20:52:10.333Z</time>
      </trkpt>
      <trkpt lat="46.74593" lon="5.67604">
        <ele>508.721818</ele>
        <time>2022-04-01T20:52:25.801Z</time>
      </trkpt>
      <trkpt lat="46.74623" lon="5.67509">
        <ele>508.934793</ele>
        <time>2022-04-01T20:52:37.075Z</time>
      </trkpt>
      <trkpt lat="46.74625" lon="5.67437">
        <ele>509.081066</ele>
        <time>2022-04-01T20:52:45.348Z</time>
      </trkpt>
      <trkpt lat="46.74616" lon="5.6742">
        <ele>509.124164</ele>
        <time>2022-04-01T20:52:48.142Z</time>
      </trkpt>
      <trkpt lat="46.74556" lon="5.67398">
        <ele>509.720847</ele>
        <time>2022-04-01T20:52:58.981Z</time>
      </trkpt>
      <trkpt lat="46.74534" lon="5.67381">
        <ele>510.154455</ele>
        <time>2022-04-01T20:53:04.276Z</time>
      </trkpt>
      <trkpt lat="46.7446" lon="5.6725">
        <ele>512.229136</ele>
        <time>2022-04-01T20:53:31.182Z</time>
      </trkpt>
      <trkpt lat="46.74448" lon="5.67235">
        <ele>512.527854</ele>
        <time>2022-04-01T20:53:36.411Z</time>
      </trkpt>
      <trkpt lat="46.74437" lon="5.67238">
        <ele>512.756024</ele>
        <time>2022-04-01T20:53:39.268Z</time>
      </trkpt>
      <trkpt lat="46.74422" lon="5.67281">
        <ele>513.416271</ele>
        <time>2022-04-01T20:53:48.845Z</time>
      </trkpt>
      <trkpt lat="46.74387" lon="5.67333">
        <ele>514.431091</ele>
        <time>2022-04-01T20:54:03.706Z</time>
      </trkpt>
      <trkpt lat="46.74368" lon="5.67337">
        <ele>514.831279</ele>
        <time>2022-04-01T20:54:10.064Z</time>
      </trkpt>
      <trkpt lat="46.74351" lon="5.67314">
        <ele>515.294548</ele>
        <time>2022-04-01T20:54:16.877Z</time>
      </trkpt>
      <trkpt lat="46.7432" lon="5.67342">
        <ele>516.028994</ele>
        <time>2022-04-01T20:54:24.472Z</time>
      </trkpt>
      <trkpt lat="46.74279" lon="5.67351">
        <ele>516.040333</ele>
        <time>2022-04-01T20:54:31.642Z</time>
      </trkpt>
      <trkpt lat="46.74224" lon="5.67344">
        <ele>516.006776</ele>
        <time>2022-04-01T20:54:39.014Z</time>
      </trkpt>
      <trkpt lat="46.74202" lon="5.67347">
        <ele>515.993739</ele>
        <time>2022-04-01T20:54:41.519Z</time>
      </trkpt>
      <trkpt lat="46.74175" lon="5.67364">
        <ele>515.975878</ele>
        <time>2022-04-01T20:54:44.973Z</time>
      </trkpt>
      <trkpt lat="46.74113" lon="5.67424">
        <ele>516.540864</ele>
        <time>2022-04-01T20:54:57.285Z</time>
      </trkpt>
      <trkpt lat="46.74081" lon="5.67431">
        <ele>517.004359</ele>
        <time>2022-04-01T20:55:03.405Z</time>
      </trkpt>
      <trkpt lat="46.74046" lon="5.67429">
        <ele>517.491165</ele>
        <time>2022-04-01T20:55:10.561Z</time>
      </trkpt>
      <trkpt lat="46.74021" lon="5.67436">
        <ele>517.86004</ele>
        <time>2022-04-01T20:55:17.251Z</time>
      </trkpt>
      <trkpt lat="46.73969" lon="5.67498">
        <ele>518.821923</ele>
        <time>2022-04-01T20:55:33.236Z</time>
      </trkpt>
      <trkpt lat="46.73939" lon="5.67579">
        <ele>519.759513</ele>
        <time>2022-04-01T20:55:48.331Z</time>
      </trkpt>
      <trkpt lat="46.73914" lon="5.67723">
        <ele>521.17407</ele>
        <time>2022-04-01T20:56:07.537Z</time>
      </trkpt>
      <trkpt lat="46.73884" lon="5.67837">
        <ele>521.122704</ele>
        <time>2022-04-01T20:56:19.265Z</time>
      </trkpt>
      <trkpt lat="46.73851" lon="5.67984">
        <ele>521.034521</ele>
        <time>2022-04-01T20:56:33.938Z</time>
      </trkpt>
      <trkpt lat="46.73847" lon="5.68091">
        <ele>520.884027</ele>
        <time>2022-04-01T20:56:44.471Z</time>
      </trkpt>
      <trkpt lat="46.73852" lon="5.68116">
        <ele>520.848144</ele>
        <time>2022-04-01T20:56:46.975Z</time>
      </trkpt>
      <trkpt lat="46.7386" lon="5.68129">
        <ele>520.823319</ele>
        <time>2022-04-01T20:56:48.704Z</time>
      </trkpt>
      <trkpt lat="46.73871" lon="5.68148">
        <ele>520.788625</ele>
        <time>2022-04-01T20:56:51.102Z</time>
      </trkpt>
      <trkpt lat="46.73872" lon="5.6817">
        <ele>520.757728</ele>
        <time>2022-04-01T20:56:53.249Z</time>
      </trkpt>
      <trkpt lat="46.73853" lon="5.68284">
        <ele>520.477909</ele>
        <time>2022-04-01T20:57:04.482Z</time>
      </trkpt>
      <trkpt lat="46.73856" lon="5.68377">
        <ele>520.207382</ele>
        <time>2022-04-01T20:57:13.097Z</time>
      </trkpt>
      <trkpt lat="46.73841" lon="5.68539">
        <ele>519.980131</ele>
        <time>2022-04-01T20:57:27.513Z</time>
      </trkpt>
      <trkpt lat="46.73817" lon="5.68691">
        <ele>520.07828</ele>
        <time>2022-04-01T20:57:44.263Z</time>
      </trkpt>
      <trkpt lat="46.73804" lon="5.68734">
        <ele>520.186833</ele>
        <time>2022-04-01T20:57:49.711Z</time>
      </trkpt>
      <trkpt lat="46.7379" lon="5.68771">
        <ele>520.547629</ele>
        <time>2022-04-01T20:57:55.249Z</time>
      </trkpt>
      <trkpt lat="46.73769" lon="5.68861">
        <ele>521.354605</ele>
        <time>2022-04-01T20:58:08.044Z</time>
      </trkpt>
      <trkpt lat="46.7373" lon="5.68939">
        <ele>522.176666</ele>
        <time>2022-04-01T20:58:22.157Z</time>
      </trkpt>
      <trkpt lat="46.73711" lon="5.69015">
        <ele>522.970793</ele>
        <time>2022-04-01T20:58:33.891Z</time>
      </trkpt>
      <trkpt lat="46.73681" lon="5.69096">
        <ele>523.921021</ele>
        <time>2022-04-01T20:58:47.704Z</time>
      </trkpt>
      <trkpt lat="46.73677" lon="5.69151">
        <ele>524.480069</ele>
        <time>2022-04-01T20:58:55.713Z</time>
      </trkpt>
      <trkpt lat="46.73688" lon="5.69247">
        <ele>525.133037</ele>
        <time>2022-04-01T20:59:08.669Z</time>
      </trkpt>
      <trkpt lat="46.73684" lon="5.69315">
        <ele>525.303972</ele>
        <time>2022-04-01T20:59:16.308Z</time>
      </trkpt>
      <trkpt lat="46.73668" lon="5.69438">
        <ele>525.615026</ele>
        <time>2022-04-01T20:59:29.205Z</time>
      </trkpt>
      <trkpt lat="46.73652" lon="5.69485">
        <ele>525.66707</ele>
        <time>2022-04-01T20:59:34.567Z</time>
      </trkpt>
      <trkpt lat="46.73632" lon="5.6952">
        <ele>525.65388</ele>
        <time>2022-04-01T20:59:38.972Z</time>
      </trkpt>
      <trkpt lat="46.7362" lon="5.69526">
        <ele>525.648692</ele>
        <time>2022-04-01T20:59:40.522Z</time>
      </trkpt>
      <trkpt lat="46.73627" lon="5.69434">
        <ele>525.621872</ele>
        <time>2022-04-01T20:59:49.468Z</time>
      </trkpt>
      <trkpt lat="46.73626" lon="5.69365">
        <ele>525.601937</ele>
        <time>2022-04-01T20:59:56.355Z</time>
      </trkpt>
      <trkpt lat="46.73632" lon="5.69322">
        <ele>525.846489</ele>
        <time>2022-04-01T21:00:01.346Z</time>
      </trkpt>
      <trkpt lat="46.7362" lon="5.69123">
        <ele>527.264232</ele>
        <time>2022-04-01T21:00:27.718Z</time>
      </trkpt>
      <trkpt lat="46.7361" lon="5.69069">
        <ele>527.754791</ele>
        <time>2022-04-01T21:00:35.955Z</time>
      </trkpt>
      <trkpt lat="46.73619" lon="5.69007">
        <ele>528.423982</ele>
        <time>2022-04-01T21:00:45.304Z</time>
      </trkpt>
      <trkpt lat="46.73613" lon="5.68955">
        <ele>528.971954</ele>
        <time>2022-04-01T21:00:53.027Z</time>
      </trkpt>
      <trkpt lat="46.73581" lon="5.68964">
        <ele>529.480657</ele>
        <time>2022-04-01T21:01:00.265Z</time>
      </trkpt>
      <trkpt lat="46.73568" lon="5.68975">
        <ele>529.703838</ele>
        <time>2022-04-01T21:01:03.347Z</time>
      </trkpt>
      <trkpt lat="46.73545" lon="5.69071">
        <ele>530.225926</ele>
        <time>2022-04-01T21:01:17.533Z</time>
      </trkpt>
      <trkpt lat="46.73519" lon="5.69099">
        <ele>530.22702</ele>
        <time>2022-04-01T21:01:23.356Z</time>
      </trkpt>
      <trkpt lat="46.73502" lon="5.69101">
        <ele>530.227639</ele>
        <time>2022-04-01T21:01:26.342Z</time>
      </trkpt>
      <trkpt lat="46.73454" lon="5.69081">
        <ele>530.229364</ele>
        <time>2022-04-01T21:01:32.906Z</time>
      </trkpt>
      <trkpt lat="46.73432" lon="5.69083">
        <ele>530.230123</ele>
        <time>2022-04-01T21:01:35.480Z</time>
      </trkpt>
      <trkpt lat="46.734" lon="5.69102">
        <ele>530.032623</ele>
        <time>2022-04-01T21:01:39.507Z</time>
      </trkpt>
      <trkpt lat="46.73362" lon="5.69159">
        <ele>529.082659</ele>
        <time>2022-04-01T21:01:45.789Z</time>
      </trkpt>
      <trkpt lat="46.7331" lon="5.69161">
        <ele>528.186625</ele>
        <time>2022-04-01T21:01:51.549Z</time>
      </trkpt>
      <trkpt lat="46.73296" lon="5.69099">
        <ele>527.411074</ele>
        <time>2022-04-01T21:01:56.543Z</time>
      </trkpt>
      <trkpt lat="46.73251" lon="5.68917">
        <ele>524.519446</ele>
        <time>2022-04-01T21:02:10.694Z</time>
      </trkpt>
      <trkpt lat="46.73266" lon="5.68749">
        <ele>522.153859</ele>
        <time>2022-04-01T21:02:23.240Z</time>
      </trkpt>
      <trkpt lat="46.73265" lon="5.68711">
        <ele>521.706615</ele>
        <time>2022-04-01T21:02:26.050Z</time>
      </trkpt>
      <trkpt lat="46.7325" lon="5.68672">
        <ele>521.175076</ele>
        <time>2022-04-01T21:02:29.423Z</time>
      </trkpt>
      <trkpt lat="46.73225" lon="5.68625">
        <ele>520.463227</ele>
        <time>2022-04-01T21:02:34.107Z</time>
      </trkpt>
      <trkpt lat="46.73117" lon="5.68493">
        <ele>518.946521</ele>
        <time>2022-04-01T21:02:51.724Z</time>
      </trkpt>
      <trkpt lat="46.73096" lon="5.68458">
        <ele>518.652847</ele>
        <time>2022-04-01T21:02:55.923Z</time>
      </trkpt>
      <trkpt lat="46.73035" lon="5.68323">
        <ele>517.507729</ele>
        <time>2022-04-01T21:03:09.323Z</time>
      </trkpt>
      <trkpt lat="46.72999" lon="5.68262">
        <ele>516.897491</ele>
        <time>2022-04-01T21:03:15.770Z</time>
      </trkpt>
      <trkpt lat="46.72982" lon="5.68246">
        <ele>516.66659</ele>
        <time>2022-04-01T21:03:18.229Z</time>
      </trkpt>
      <trkpt lat="46.72888" lon="5.68206">
        <ele>516.109396</ele>
        <time>2022-04-01T21:03:30.098Z</time>
      </trkpt>
      <trkpt lat="46.7285" lon="5.68162">
        <ele>515.959537</ele>
        <time>2022-04-01T21:03:36.515Z</time>
      </trkpt>
      <trkpt lat="46.72803" lon="5.68124">
        <ele>515.793836</ele>
        <time>2022-04-01T21:03:44.584Z</time>
      </trkpt>
      <trkpt lat="46.72721" lon="5.6809">
        <ele>516.790748</ele>
        <time>2022-04-01T21:04:01.745Z</time>
      </trkpt>
      <trkpt lat="46.72695" lon="5.68063">
        <ele>517.234876</ele>
        <time>2022-04-01T21:04:08.967Z</time>
      </trkpt>
      <trkpt lat="46.72665" lon="5.68011">
        <ele>517.882797</ele>
        <time>2022-04-01T21:04:19.333Z</time>
      </trkpt>
      <trkpt lat="46.7263" lon="5.67902">
        <ele>518.490296</ele>
        <time>2022-04-01T21:04:36.239Z</time>
      </trkpt>
      <trkpt lat="46.72608" lon="5.67771">
        <ele>518.847025</ele>
        <time>2022-04-01T21:04:51.200Z</time>
      </trkpt>
      <trkpt lat="46.72565" lon="5.67658">
        <ele>518.301963</ele>
        <time>2022-04-01T21:05:01.866Z</time>
      </trkpt>
      <trkpt lat="46.725" lon="5.67497">
        <ele>516.730095</ele>
        <time>2022-04-01T21:05:16.746Z</time>
      </trkpt>
      <trkpt lat="46.72476" lon="5.67459">
        <ele>516.229995</ele>
        <time>2022-04-01T21:05:21.020Z</time>
      </trkpt>
      <trkpt lat="46.72336" lon="5.6734">
        <ele>514.007747</ele>
        <time>2022-04-01T21:05:39.709Z</time>
      </trkpt>
      <trkpt lat="46.7227" lon="5.67267">
        <ele>513.125045</ele>
        <time>2022-04-01T21:05:49.462Z</time>
      </trkpt>
      <trkpt lat="46.72236" lon="5.67262">
        <ele>512.756596</ele>
        <time>2022-04-01T21:05:53.715Z</time>
      </trkpt>
      <trkpt lat="46.72151" lon="5.67287">
        <ele>512.256558</ele>
        <time>2022-04-01T21:06:05.021Z</time>
      </trkpt>
      <trkpt lat="46.72113" lon="5.67281">
        <ele>512.207003</ele>
        <time>2022-04-01T21:06:10.852Z</time>
      </trkpt>
      <trkpt lat="46.718" lon="5.67071">
        <ele>511.866873</ele>
        <time>2022-04-01T21:07:03.003Z</time>
      </trkpt>
      <trkpt lat="46.71563" lon="5.66908">
        <ele>509.663553</ele>
        <time>2022-04-01T21:07:35.570Z</time>
      </trkpt>
      <trkpt lat="46.71263" lon="5.66703">
        <ele>504.988439</ele>
        <time>2022-04-01T21:08:13.074Z</time>
      </trkpt>
      <trkpt lat="46.71259" lon="5.667">
        <ele>504.932683</ele>
        <time>2022-04-01T21:08:13.615Z</time>
      </trkpt>
      <trkpt lat="46.71041" lon="5.66551">
        <ele>503.873714</ele>
        <time>2022-04-01T21:08:46.433Z</time>
      </trkpt>
      <trkpt lat="46.70691" lon="5.66313">
        <ele>506.82314</ele>
        <time>2022-04-01T21:09:55.531Z</time>
      </trkpt>
      <trkpt lat="46.70589" lon="5.6629">
        <ele>508.289153</ele>
        <time>2022-04-01T21:10:18.412Z</time>
      </trkpt>
      <trkpt lat="46.70365" lon="5.66256">
        <ele>510.263687</ele>
        <time>2022-04-01T21:11:03.021Z</time>
      </trkpt>
      <trkpt lat="46.70378" lon="5.66241">
        <ele>509.850311</ele>
        <time>2022-04-01T21:11:04.723Z</time>
      </trkpt>
      <trkpt lat="46.70483" lon="5.66183">
        <ele>507.023165</ele>
        <time>2022-04-01T21:11:16.322Z</time>
      </trkpt>
      <trkpt lat="46.70549" lon="5.66143">
        <ele>505.039319</ele>
        <time>2022-04-01T21:11:23.313Z</time>
      </trkpt>
      <trkpt lat="46.70565" lon="5.66125">
        <ele>504.367099</ele>
        <time>2022-04-01T21:11:25.437Z</time>
      </trkpt>
      <trkpt lat="46.70589" lon="5.66083">
        <ele>503.110491</ele>
        <time>2022-04-01T21:11:29.420Z</time>
      </trkpt>
      <trkpt lat="46.70596" lon="5.66066">
        <ele>502.677729</ele>
        <time>2022-04-01T21:11:30.762Z</time>
      </trkpt>
      <trkpt lat="46.70616" lon="5.65994">
        <ele>500.89527</ele>
        <time>2022-04-01T21:11:36.351Z</time>
      </trkpt>
      <trkpt lat="46.70631" lon="5.6595">
        <ele>499.74949</ele>
        <time>2022-04-01T21:11:39.633Z</time>
      </trkpt>
      <trkpt lat="46.70649" lon="5.65916">
        <ele>497.356316</ele>
        <time>2022-04-01T21:11:42.438Z</time>
      </trkpt>
      <trkpt lat="46.70662" lon="5.65899">
        <ele>495.949732</ele>
        <time>2022-04-01T21:11:44.102Z</time>
      </trkpt>
      <trkpt lat="46.70682" lon="5.65888">
        <ele>494.247867</ele>
        <time>2022-04-01T21:11:46.060Z</time>
      </trkpt>
      <trkpt lat="46.70693" lon="5.65888">
        <ele>493.328997</ele>
        <time>2022-04-01T21:11:47.107Z</time>
      </trkpt>
      <trkpt lat="46.70759" lon="5.65907">
        <ele>487.941783</ele>
        <time>2022-04-01T21:11:52.994Z</time>
      </trkpt>
      <trkpt lat="46.70784" lon="5.65899">
        <ele>485.860981</ele>
        <time>2022-04-01T21:11:55.172Z</time>
      </trkpt>
      <trkpt lat="46.70811" lon="5.65881">
        <ele>481.263035</ele>
        <time>2022-04-01T21:11:57.674Z</time>
      </trkpt>
      <trkpt lat="46.70866" lon="5.65821">
        <ele>469.228412</ele>
        <time>2022-04-01T21:12:03.342Z</time>
      </trkpt>
      <trkpt lat="46.70908" lon="5.65726">
        <ele>455.740286</ele>
        <time>2022-04-01T21:12:09.662Z</time>
      </trkpt>
      <trkpt lat="46.70926" lon="5.6561">
        <ele>440.864651</ele>
        <time>2022-04-01T21:12:16.329Z</time>
      </trkpt>
      <trkpt lat="46.70917" lon="5.65537">
        <ele>431.47685</ele>
        <time>2022-04-01T21:12:20.512Z</time>
      </trkpt>
      <trkpt lat="46.709" lon="5.65461">
        <ele>421.407949</ele>
        <time>2022-04-01T21:12:25.052Z</time>
      </trkpt>
      <trkpt lat="46.70895" lon="5.65441">
        <ele>419.96434</ele>
        <time>2022-04-01T21:12:26.253Z</time>
      </trkpt>
      <trkpt lat="46.70894" lon="5.65392">
        <ele>417.330936</ele>
        <time>2022-04-01T21:12:29.076Z</time>
      </trkpt>
      <trkpt lat="46.70886" lon="5.65321">
        <ele>413.434002</ele>
        <time>2022-04-01T21:12:33.394Z</time>
      </trkpt>
      <trkpt lat="46.70874" lon="5.65281">
        <ele>411.094635</ele>
        <time>2022-04-01T21:12:36.070Z</time>
      </trkpt>
      <trkpt lat="46.70867" lon="5.65234">
        <ele>408.506114</ele>
        <time>2022-04-01T21:12:39.170Z</time>
      </trkpt>
      <trkpt lat="46.70876" lon="5.65124">
        <ele>406.714229</ele>
        <time>2022-04-01T21:12:50.120Z</time>
      </trkpt>
      <trkpt lat="46.70901" lon="5.65088">
        <ele>406.72113</ele>
        <time>2022-04-01T21:12:58.014Z</time>
      </trkpt>
      <trkpt lat="46.70947" lon="5.65056">
        <ele>406.73102</ele>
        <time>2022-04-01T21:13:09.072Z</time>
      </trkpt>
      <trkpt lat="46.71009" lon="5.6499">
        <ele>404.763395</ele>
        <time>2022-04-01T21:13:19.857Z</time>
      </trkpt>
      <trkpt lat="46.7111" lon="5.64825">
        <ele>396.096807</ele>
        <time>2022-04-01T21:13:33.605Z</time>
      </trkpt>
      <trkpt lat="46.7117" lon="5.64703">
        <ele>385.967438</ele>
        <time>2022-04-01T21:13:42.391Z</time>
      </trkpt>
      <trkpt lat="46.71218" lon="5.6457">
        <ele>376.613388</ele>
        <time>2022-04-01T21:13:51.236Z</time>
      </trkpt>
      <trkpt lat="46.71221" lon="5.64554">
        <ele>375.756752</ele>
        <time>2022-04-01T21:13:52.307Z</time>
      </trkpt>
      <trkpt lat="46.71217" lon="5.64545">
        <ele>375.208673</ele>
        <time>2022-04-01T21:13:52.919Z</time>
      </trkpt>
      <trkpt lat="46.7121" lon="5.64547">
        <ele>374.727814</ele>
        <time>2022-04-01T21:13:53.458Z</time>
      </trkpt>
      <trkpt lat="46.71178" lon="5.64626">
        <ele>369.985613</ele>
        <time>2022-04-01T21:13:59.291Z</time>
      </trkpt>
      <trkpt lat="46.71133" lon="5.64693">
        <ele>365.157697</ele>
        <time>2022-04-01T21:14:05.193Z</time>
      </trkpt>
      <trkpt lat="46.71033" lon="5.64802">
        <ele>355.689685</ele>
        <time>2022-04-01T21:14:16.292Z</time>
      </trkpt>
      <trkpt lat="46.70994" lon="5.6482">
        <ele>352.616709</ele>
        <time>2022-04-01T21:14:19.910Z</time>
      </trkpt>
      <trkpt lat="46.70991" lon="5.6482">
        <ele>352.396925</ele>
        <time>2022-04-01T21:14:20.165Z</time>
      </trkpt>
      <trkpt lat="46.70973" lon="5.64821">
        <ele>350.726514</ele>
        <time>2022-04-01T21:14:21.745Z</time>
      </trkpt>
      <trkpt lat="46.70941" lon="5.64829">
        <ele>347.522962</ele>
        <time>2022-04-01T21:14:24.560Z</time>
      </trkpt>
      <trkpt lat="46.70877" lon="5.64878">
        <ele>340.356784</ele>
        <time>2022-04-01T21:14:30.777Z</time>
      </trkpt>
      <trkpt lat="46.70847" lon="5.64934">
        <ele>335.579435</ele>
        <time>2022-04-01T21:14:34.887Z</time>
      </trkpt>
      <trkpt lat="46.70835" lon="5.64935">
        <ele>334.391592</ele>
        <time>2022-04-01T21:14:35.960Z</time>
      </trkpt>
      <trkpt lat="46.7083" lon="5.64926">
        <ele>333.662811</ele>
        <time>2022-04-01T21:14:36.678Z</time>
      </trkpt>
      <trkpt lat="46.70833" lon="5.64903">
        <ele>332.30625</ele>
        <time>2022-04-01T21:14:38.083Z</time>
      </trkpt>
      <trkpt lat="46.70853" lon="5.64843">
        <ele>328.459407</ele>
        <time>2022-04-01T21:14:42.139Z</time>
      </trkpt>
      <trkpt lat="46.70876" lon="5.64793">
        <ele>324.941695</ele>
        <time>2022-04-01T21:14:45.789Z</time>
      </trkpt>
      <trkpt lat="46.70932" lon="5.64698">
        <ele>318.308029</ele>
        <time>2022-04-01T21:14:53.321Z</time>
      </trkpt>
      <trkpt lat="46.70968" lon="5.6467">
        <ele>316.303369</ele>
        <time>2022-04-01T21:14:57.078Z</time>
      </trkpt>
      <trkpt lat="46.7099" lon="5.64644">
        <ele>314.918214</ele>
        <time>2022-04-01T21:14:59.754Z</time>
      </trkpt>
      <trkpt lat="46.71002" lon="5.64616">
        <ele>313.799056</ele>
        <time>2022-04-01T21:15:01.989Z</time>
      </trkpt>
      <trkpt lat="46.71015" lon="5.64577">
        <ele>312.375615</ele>
        <time>2022-04-01T21:15:04.916Z</time>
      </trkpt>
      <trkpt lat="46.71085" lon="5.64485">
        <ele>308.759447</ele>
        <time>2022-04-01T21:15:14.649Z</time>
      </trkpt>
      <trkpt lat="46.7113" lon="5.64427">
        <ele>306.951966</ele>
        <time>2022-04-01T21:15:20.860Z</time>
      </trkpt>
      <trkpt lat="46.71159" lon="5.6437">
        <ele>305.473152</ele>
        <time>2022-04-01T21:15:25.877Z</time>
      </trkpt>
      <trkpt lat="46.71182" lon="5.64311">
        <ele>304.033371</ele>
        <time>2022-04-01T21:15:30.544Z</time>
      </trkpt>
      <trkpt lat="46.71194" lon="5.64249">
        <ele>302.631535</ele>
        <time>2022-04-01T21:15:34.919Z</time>
      </trkpt>
      <trkpt lat="46.71195" lon="5.64185">
        <ele>301.254223</ele>
        <time>2022-04-01T21:15:39.237Z</time>
      </trkpt>
      <trkpt lat="46.71209" lon="5.64046">
        <ele>298.803372</ele>
        <time>2022-04-01T21:15:49.327Z</time>
      </trkpt>
      <trkpt lat="46.7124" lon="5.63868">
        <ele>297.099737</ele>
        <time>2022-04-01T21:16:04.404Z</time>
      </trkpt>
      <trkpt lat="46.71265" lon="5.63772">
        <ele>297.133254</ele>
        <time>2022-04-01T21:16:13.543Z</time>
      </trkpt>
      <trkpt lat="46.71276" lon="5.63714">
        <ele>297.398039</ele>
        <time>2022-04-01T21:16:22.255Z</time>
      </trkpt>
      <trkpt lat="46.71299" lon="5.63606">
        <ele>297.898751</ele>
        <time>2022-04-01T21:16:37.063Z</time>
      </trkpt>
      <trkpt lat="46.7126" lon="5.6359">
        <ele>298.345886</ele>
        <time>2022-04-01T21:16:44.893Z</time>
      </trkpt>
      <trkpt lat="46.7125" lon="5.63585">
        <ele>298.469215</ele>
        <time>2022-04-01T21:16:46.947Z</time>
      </trkpt>
      <trkpt lat="46.71239" lon="5.6358">
        <ele>298.629758</ele>
        <time>2022-04-01T21:16:49.149Z</time>
      </trkpt>
      <trkpt lat="46.71231" lon="5.63576">
        <ele>298.73076</ele>
        <time>2022-04-01T21:16:50.688Z</time>
      </trkpt>
      <trkpt lat="46.71245" lon="5.63477">
        <ele>299.623938</ele>
        <time>2022-04-01T21:17:09.583Z</time>
      </trkpt>
      <trkpt lat="46.71243" lon="5.63454">
        <ele>299.829767</ele>
        <time>2022-04-01T21:17:13.958Z</time>
      </trkpt>
      <trkpt lat="46.71207" lon="5.63359">
        <ele>300.727182</ele>
        <time>2022-04-01T21:17:26.092Z</time>
      </trkpt>
      <trkpt lat="46.71208" lon="5.6326">
        <ele>301.488636</ele>
        <time>2022-04-01T21:17:37.889Z</time>
      </trkpt>
      <trkpt lat="46.712" lon="5.63222">
        <ele>301.79336</ele>
        <time>2022-04-01T21:17:42.943Z</time>
      </trkpt>
      <trkpt lat="46.71151" lon="5.63172">
        <ele>302.742511</ele>
        <time>2022-04-01T21:17:56.238Z</time>
      </trkpt>
      <trkpt lat="46.71129" lon="5.63153">
        <ele>303.606303</ele>
        <time>2022-04-01T21:18:02.513Z</time>
      </trkpt>
      <trkpt lat="46.71104" lon="5.63131">
        <ele>304.558999</ele>
        <time>2022-04-01T21:18:09.932Z</time>
      </trkpt>
      <trkpt lat="46.71019" lon="5.6309">
        <ele>307.458398</ele>
        <time>2022-04-01T21:18:36.200Z</time>
      </trkpt>
      <trkpt lat="46.70987" lon="5.63068">
        <ele>308.79597</ele>
        <time>2022-04-01T21:18:48.265Z</time>
      </trkpt>
      <trkpt lat="46.7095" lon="5.63063">
        <ele>310.435904</ele>
        <time>2022-04-01T21:19:00.366Z</time>
      </trkpt>
      <trkpt lat="46.7092" lon="5.63047">
        <ele>311.87691</ele>
        <time>2022-04-01T21:19:10.345Z</time>
      </trkpt>
      <trkpt lat="46.70904" lon="5.63033">
        <ele>312.687218</ele>
        <time>2022-04-01T21:19:16.099Z</time>
      </trkpt>
      <trkpt lat="46.70853" lon="5.62948">
        <ele>316.129665</ele>
        <time>2022-04-01T21:19:41.798Z</time>
      </trkpt>
      <trkpt lat="46.70785" lon="5.62928">
        <ele>320.295179</ele>
        <time>2022-04-01T21:20:05.952Z</time>
      </trkpt>
      <trkpt lat="46.70753" lon="5.62897">
        <ele>322.576319</ele>
        <time>2022-04-01T21:20:21.230Z</time>
      </trkpt>
      <trkpt lat="46.70701" lon="5.62915">
        <ele>325.776109</ele>
        <time>2022-04-01T21:20:42.881Z</time>
      </trkpt>
      <trkpt lat="46.70636" lon="5.62918">
        <ele>331.343663</ele>
        <time>2022-04-01T21:21:11.478Z</time>
      </trkpt>
      <trkpt lat="46.70596" lon="5.62917">
        <ele>335.142373</ele>
        <time>2022-04-01T21:21:32.173Z</time>
      </trkpt>
      <trkpt lat="46.7057" lon="5.62908">
        <ele>337.728049</ele>
        <time>2022-04-01T21:21:46.700Z</time>
      </trkpt>
      <trkpt lat="46.70521" lon="5.62831">
        <ele>344.687226</ele>
        <time>2022-04-01T21:22:31.952Z</time>
      </trkpt>
      <trkpt lat="46.70427" lon="5.62757">
        <ele>354.865649</ele>
        <time>2022-04-01T21:23:33.901Z</time>
      </trkpt>
      <trkpt lat="46.70407" lon="5.6275">
        <ele>356.810884</ele>
        <time>2022-04-01T21:23:43.527Z</time>
      </trkpt>
      <trkpt lat="46.70391" lon="5.6276">
        <ele>358.377296</ele>
        <time>2022-04-01T21:23:51.966Z</time>
      </trkpt>
      <trkpt lat="46.70378" lon="5.62798">
        <ele>361.159401</ele>
        <time>2022-04-01T21:24:04.554Z</time>
      </trkpt>
      <trkpt lat="46.70354" lon="5.62833">
        <ele>363.268952</ele>
        <time>2022-04-01T21:24:17.649Z</time>
      </trkpt>
      <trkpt lat="46.7034" lon="5.62843">
        <ele>364.214714</ele>
        <time>2022-04-01T21:24:23.642Z</time>
      </trkpt>
      <trkpt lat="46.70314" lon="5.6285">
        <ele>365.835608</ele>
        <time>2022-04-01T21:24:33.739Z</time>
      </trkpt>
      <trkpt lat="46.70268" lon="5.62845">
        <ele>368.619292</ele>
        <time>2022-04-01T21:24:48.776Z</time>
      </trkpt>
      <trkpt lat="46.70229" lon="5.62808">
        <ele>371.386111</ele>
        <time>2022-04-01T21:25:04.131Z</time>
      </trkpt>
      <trkpt lat="46.70205" lon="5.62798">
        <ele>373.387043</ele>
        <time>2022-04-01T21:25:15.072Z</time>
      </trkpt>
      <trkpt lat="46.70075" lon="5.62784">
        <ele>386.533341</ele>
        <time>2022-04-01T21:26:27.539Z</time>
      </trkpt>
      <trkpt lat="46.70035" lon="5.6278">
        <ele>390.642205</ele>
        <time>2022-04-01T21:26:54.055Z</time>
      </trkpt>
      <trkpt lat="46.6999" lon="5.62765">
        <ele>396.060638</ele>
        <time>2022-04-01T21:27:23.548Z</time>
      </trkpt>
      <trkpt lat="46.69963" lon="5.62771">
        <ele>399.262761</ele>
        <time>2022-04-01T21:27:42.413Z</time>
      </trkpt>
      <trkpt lat="46.69919" lon="5.62759">
        <ele>404.551463</ele>
        <time>2022-04-01T21:28:12.418Z</time>
      </trkpt>
      <trkpt lat="46.69893" lon="5.62762">
        <ele>407.710038</ele>
        <time>2022-04-01T21:28:28.952Z</time>
      </trkpt>
      <trkpt lat="46.6987" lon="5.62778">
        <ele>410.733441</ele>
        <time>2022-04-01T21:28:41.772Z</time>
      </trkpt>
      <trkpt lat="46.69828" lon="5.6284">
        <ele>415.606256</ele>
        <time>2022-04-01T21:29:13.512Z</time>
      </trkpt>
      <trkpt lat="46.69816" lon="5.62846">
        <ele>416.581183</ele>
        <time>2022-04-01T21:29:19.674Z</time>
      </trkpt>
      <trkpt lat="46.69789" lon="5.62842">
        <ele>418.699629</ele>
        <time>2022-04-01T21:29:33.425Z</time>
      </trkpt>
      <trkpt lat="46.69776" lon="5.62848">
        <ele>419.748752</ele>
        <time>2022-04-01T21:29:40.266Z</time>
      </trkpt>
      <trkpt lat="46.69753" lon="5.62887">
        <ele>422.460842</ele>
        <time>2022-04-01T21:29:54.836Z</time>
      </trkpt>
      <trkpt lat="46.69742" lon="5.62919">
        <ele>424.340108</ele>
        <time>2022-04-01T21:30:03.731Z</time>
      </trkpt>
      <trkpt lat="46.6973" lon="5.62923">
        <ele>425.307225</ele>
        <time>2022-04-01T21:30:08.763Z</time>
      </trkpt>
      <trkpt lat="46.69736" lon="5.62864">
        <ele>426.667015</ele>
        <time>2022-04-01T21:30:21.057Z</time>
      </trkpt>
      <trkpt lat="46.69729" lon="5.62806">
        <ele>427.944211</ele>
        <time>2022-04-01T21:30:31.849Z</time>
      </trkpt>
      <trkpt lat="46.69757" lon="5.62742">
        <ele>429.606467</ele>
        <time>2022-04-01T21:30:44.802Z</time>
      </trkpt>
      <trkpt lat="46.69774" lon="5.62661">
        <ele>431.408393</ele>
        <time>2022-04-01T21:30:58.647Z</time>
      </trkpt>
      <trkpt lat="46.69805" lon="5.62597">
        <ele>433.053478</ele>
        <time>2022-04-01T21:31:11.591Z</time>
      </trkpt>
      <trkpt lat="46.69865" lon="5.6252">
        <ele>435.492565</ele>
        <time>2022-04-01T21:31:34.219Z</time>
      </trkpt>
      <trkpt lat="46.69908" lon="5.62487">
        <ele>437.191551</ele>
        <time>2022-04-01T21:31:48.253Z</time>
      </trkpt>
      <trkpt lat="46.69964" lon="5.62449">
        <ele>440.025465</ele>
        <time>2022-04-01T21:32:11.163Z</time>
      </trkpt>
      <trkpt lat="46.70019" lon="5.62434">
        <ele>442.595638</ele>
        <time>2022-04-01T21:32:33.356Z</time>
      </trkpt>
      <trkpt lat="46.70102" lon="5.62391">
        <ele>447.042284</ele>
        <time>2022-04-01T21:33:09.325Z</time>
      </trkpt>
      <trkpt lat="46.70184" lon="5.62362">
        <ele>451.772799</ele>
        <time>2022-04-01T21:33:45.141Z</time>
      </trkpt>
      <trkpt lat="46.7027" lon="5.62315">
        <ele>457.219225</ele>
        <time>2022-04-01T21:34:26.212Z</time>
      </trkpt>
      <trkpt lat="46.70404" lon="5.62276">
        <ele>465.850123</ele>
        <time>2022-04-01T21:35:27.885Z</time>
      </trkpt>
      <trkpt lat="46.70486" lon="5.62223">
        <ele>472.476476</ele>
        <time>2022-04-01T21:36:11.579Z</time>
      </trkpt>
      <trkpt lat="46.70597" lon="5.62201">
        <ele>481.387189</ele>
        <time>2022-04-01T21:37:07.881Z</time>
      </trkpt>
      <trkpt lat="46.70679" lon="5.62197">
        <ele>489.943222</ele>
        <time>2022-04-01T21:38:00.561Z</time>
      </trkpt>
      <trkpt lat="46.70697" lon="5.62186">
        <ele>491.979037</ele>
        <time>2022-04-01T21:38:14.499Z</time>
      </trkpt>
      <trkpt lat="46.70732" lon="5.62144">
        <ele>496.714926</ele>
        <time>2022-04-01T21:38:44.399Z</time>
      </trkpt>
      <trkpt lat="46.70761" lon="5.6212">
        <ele>499.842969</ele>
        <time>2022-04-01T21:39:05.372Z</time>
      </trkpt>
      <trkpt lat="46.708" lon="5.62072">
        <ele>503.763539</ele>
        <time>2022-04-01T21:39:33.980Z</time>
      </trkpt>
      <trkpt lat="46.70781" lon="5.62052">
        <ele>505.544872</ele>
        <time>2022-04-01T21:39:47.476Z</time>
      </trkpt>
      <trkpt lat="46.70744" lon="5.6198">
        <ele>510.356484</ele>
        <time>2022-04-01T21:40:19.706Z</time>
      </trkpt>
      <trkpt lat="46.7072" lon="5.61948">
        <ele>512.681266</ele>
        <time>2022-04-01T21:40:31.747Z</time>
      </trkpt>
      <trkpt lat="46.70685" lon="5.61919">
        <ele>512.944877</ele>
        <time>2022-04-01T21:40:43.622Z</time>
      </trkpt>
      <trkpt lat="46.70677" lon="5.61906">
        <ele>513.027238</ele>
        <time>2022-04-01T21:40:47.068Z</time>
      </trkpt>
      <trkpt lat="46.70669" lon="5.61876">
        <ele>513.171663</ele>
        <time>2022-04-01T21:40:51.191Z</time>
      </trkpt>
      <trkpt lat="46.70663" lon="5.61804">
        <ele>513.498811</ele>
        <time>2022-04-01T21:41:00.372Z</time>
      </trkpt>
      <trkpt lat="46.70646" lon="5.61749">
        <ele>513.769856</ele>
        <time>2022-04-01T21:41:07.695Z</time>
      </trkpt>
      <trkpt lat="46.70626" lon="5.61707">
        <ele>513.368082</ele>
        <time>2022-04-01T21:41:13.673Z</time>
      </trkpt>
      <trkpt lat="46.70612" lon="5.61689">
        <ele>512.97079</ele>
        <time>2022-04-01T21:41:16.767Z</time>
      </trkpt>
      <trkpt lat="46.70589" lon="5.61675">
        <ele>512.467544</ele>
        <time>2022-04-01T21:41:20.616Z</time>
      </trkpt>
      <trkpt lat="46.70529" lon="5.61665">
        <ele>511.220165</ele>
        <time>2022-04-01T21:41:29.973Z</time>
      </trkpt>
      <trkpt lat="46.7044" lon="5.61633">
        <ele>509.056357</ele>
        <time>2022-04-01T21:41:43.782Z</time>
      </trkpt>
      <trkpt lat="46.70378" lon="5.61569">
        <ele>506.999973</ele>
        <time>2022-04-01T21:41:54.940Z</time>
      </trkpt>
      <trkpt lat="46.70289" lon="5.61448">
        <ele>504.356392</ele>
        <time>2022-04-01T21:42:13.499Z</time>
      </trkpt>
      <trkpt lat="46.70179" lon="5.61449">
        <ele>502.62826</ele>
        <time>2022-04-01T21:42:31.904Z</time>
      </trkpt>
      <trkpt lat="46.7016" lon="5.61444">
        <ele>502.397334</ele>
        <time>2022-04-01T21:42:35.424Z</time>
      </trkpt>
      <trkpt lat="46.70112" lon="5.61428">
        <ele>502.182415</ele>
        <time>2022-04-01T21:42:44.407Z</time>
      </trkpt>
      <trkpt lat="46.70009" lon="5.61409">
        <ele>501.734181</ele>
        <time>2022-04-01T21:43:04.843Z</time>
      </trkpt>
      <trkpt lat="46.6997" lon="5.61395">
        <ele>501.508951</ele>
        <time>2022-04-01T21:43:12.461Z</time>
      </trkpt>
      <trkpt lat="46.69873" lon="5.61339">
        <ele>500.777372</ele>
        <time>2022-04-01T21:43:31.626Z</time>
      </trkpt>
      <trkpt lat="46.6979" lon="5.61263">
        <ele>499.908428</ele>
        <time>2022-04-01T21:43:48.319Z</time>
      </trkpt>
      <trkpt lat="46.6972" lon="5.6121">
        <ele>499.031906</ele>
        <time>2022-04-01T21:44:01.495Z</time>
      </trkpt>
      <trkpt lat="46.69638" lon="5.6121">
        <ele>498.276454</ele>
        <time>2022-04-01T21:44:15.918Z</time>
      </trkpt>
      <trkpt lat="46.69623" lon="5.61198">
        <ele>498.199014</ele>
        <time>2022-04-01T21:44:19.076Z</time>
      </trkpt>
      <trkpt lat="46.69551" lon="5.61102">
        <ele>497.757943</ele>
        <time>2022-04-01T21:44:38.609Z</time>
      </trkpt>
      <trkpt lat="46.69463" lon="5.60989">
        <ele>496.016863</ele>
        <time>2022-04-01T21:44:59.663Z</time>
      </trkpt>
      <trkpt lat="46.69438" lon="5.60916">
        <ele>494.864247</ele>
        <time>2022-04-01T21:45:08.486Z</time>
      </trkpt>
      <trkpt lat="46.69435" lon="5.60905">
        <ele>494.699935</ele>
        <time>2022-04-01T21:45:09.565Z</time>
      </trkpt>
      <trkpt lat="46.69402" lon="5.60871">
        <ele>493.853481</ele>
        <time>2022-04-01T21:45:15.385Z</time>
      </trkpt>
      <trkpt lat="46.69326" lon="5.6085">
        <ele>489.999058</ele>
        <time>2022-04-01T21:45:26.037Z</time>
      </trkpt>
      <trkpt lat="46.69318" lon="5.60841">
        <ele>489.50237</ele>
        <time>2022-04-01T21:45:27.299Z</time>
      </trkpt>
      <trkpt lat="46.69315" lon="5.6083">
        <ele>489.0972</ele>
        <time>2022-04-01T21:45:28.401Z</time>
      </trkpt>
      <trkpt lat="46.6951" lon="5.60654">
        <ele>477.673497</ele>
        <time>2022-04-01T21:45:59.108Z</time>
      </trkpt>
      <trkpt lat="46.69527" lon="5.60624">
        <ele>476.333793</ele>
        <time>2022-04-01T21:46:02.907Z</time>
      </trkpt>
      <trkpt lat="46.69532" lon="5.60582">
        <ele>474.988736</ele>
        <time>2022-04-01T21:46:07.085Z</time>
      </trkpt>
      <trkpt lat="46.69516" lon="5.60486">
        <ele>471.953621</ele>
        <time>2022-04-01T21:46:16.408Z</time>
      </trkpt>
      <trkpt lat="46.69532" lon="5.60369">
        <ele>468.290156</ele>
        <time>2022-04-01T21:46:27.607Z</time>
      </trkpt>
      <trkpt lat="46.69542" lon="5.60332">
        <ele>466.926526</ele>
        <time>2022-04-01T21:46:31.278Z</time>
      </trkpt>
      <trkpt lat="46.69575" lon="5.60263">
        <ele>463.869787</ele>
        <time>2022-04-01T21:46:39.275Z</time>
      </trkpt>
      <trkpt lat="46.69569" lon="5.60185">
        <ele>461.064124</ele>
        <time>2022-04-01T21:46:44.364Z</time>
      </trkpt>
      <trkpt lat="46.69559" lon="5.60058">
        <ele>455.023862</ele>
        <time>2022-04-01T21:46:52.360Z</time>
      </trkpt>
      <trkpt lat="46.69517" lon="5.59958">
        <ele>447.721873</ele>
        <time>2022-04-01T21:46:59.366Z</time>
      </trkpt>
      <trkpt lat="46.69555" lon="5.59969">
        <ele>444.170248</ele>
        <time>2022-04-01T21:47:04.173Z</time>
      </trkpt>
      <trkpt lat="46.6958" lon="5.59959">
        <ele>441.908896</ele>
        <time>2022-04-01T21:47:06.392Z</time>
      </trkpt>
      <trkpt lat="46.69612" lon="5.59944">
        <ele>439.363148</ele>
        <time>2022-04-01T21:47:09.242Z</time>
      </trkpt>
      <trkpt lat="46.69632" lon="5.59957">
        <ele>437.653899</ele>
        <time>2022-04-01T21:47:11.168Z</time>
      </trkpt>
      <trkpt lat="46.69642" lon="5.59963">
        <ele>436.835206</ele>
        <time>2022-04-01T21:47:12.101Z</time>
      </trkpt>
      <trkpt lat="46.69651" lon="5.59953">
        <ele>435.938582</ele>
        <time>2022-04-01T21:47:13.115Z</time>
      </trkpt>
      <trkpt lat="46.69661" lon="5.59951">
        <ele>435.128424</ele>
        <time>2022-04-01T21:47:14.038Z</time>
      </trkpt>
      <trkpt lat="46.6974" lon="5.60044">
        <ele>427.590444</ele>
        <time>2022-04-01T21:47:23.304Z</time>
      </trkpt>
      <trkpt lat="46.69838" lon="5.60113">
        <ele>421.019772</ele>
        <time>2022-04-01T21:47:33.825Z</time>
      </trkpt>
      <trkpt lat="46.6985" lon="5.60109">
        <ele>420.308147</ele>
        <time>2022-04-01T21:47:34.923Z</time>
      </trkpt>
      <trkpt lat="46.69848" lon="5.60092">
        <ele>419.621641</ele>
        <time>2022-04-01T21:47:35.995Z</time>
      </trkpt>
      <trkpt lat="46.69808" lon="5.60039">
        <ele>415.409396</ele>
        <time>2022-04-01T21:47:40.701Z</time>
      </trkpt>
      <trkpt lat="46.69759" lon="5.59942">
        <ele>406.620728</ele>
        <time>2022-04-01T21:47:47.697Z</time>
      </trkpt>
      <trkpt lat="46.69754" lon="5.59925">
        <ele>405.247758</ele>
        <time>2022-04-01T21:47:48.795Z</time>
      </trkpt>
      <trkpt lat="46.69754" lon="5.59887">
        <ele>402.52276</ele>
        <time>2022-04-01T21:47:50.942Z</time>
      </trkpt>
      <trkpt lat="46.69767" lon="5.59862">
        <ele>400.18987</ele>
        <time>2022-04-01T21:47:52.810Z</time>
      </trkpt>
      <trkpt lat="46.69778" lon="5.59838">
        <ele>398.185685</ele>
        <time>2022-04-01T21:47:54.502Z</time>
      </trkpt>
      <trkpt lat="46.6979" lon="5.59794">
        <ele>395.691306</ele>
        <time>2022-04-01T21:47:57.320Z</time>
      </trkpt>
      <trkpt lat="46.6967" lon="5.59706">
        <ele>385.37004</ele>
        <time>2022-04-01T21:48:09.452Z</time>
      </trkpt>
      <trkpt lat="46.69596" lon="5.59594">
        <ele>378.217959</ele>
        <time>2022-04-01T21:48:19.215Z</time>
      </trkpt>
      <trkpt lat="46.69587" lon="5.59585">
        <ele>377.49649</ele>
        <time>2022-04-01T21:48:20.232Z</time>
      </trkpt>
      <trkpt lat="46.69554" lon="5.59575">
        <ele>375.236297</ele>
        <time>2022-04-01T21:48:23.304Z</time>
      </trkpt>
      <trkpt lat="46.69544" lon="5.59563">
        <ele>374.331831</ele>
        <time>2022-04-01T21:48:24.503Z</time>
      </trkpt>
      <trkpt lat="46.69506" lon="5.59479">
        <ele>369.311211</ele>
        <time>2022-04-01T21:48:30.552Z</time>
      </trkpt>
      <trkpt lat="46.695" lon="5.59467">
        <ele>368.563831</ele>
        <time>2022-04-01T21:48:31.374Z</time>
      </trkpt>
      <trkpt lat="46.69452" lon="5.59425">
        <ele>364.254874</ele>
        <time>2022-04-01T21:48:36.361Z</time>
      </trkpt>
      <trkpt lat="46.69447" lon="5.59412">
        <ele>363.437506</ele>
        <time>2022-04-01T21:48:37.276Z</time>
      </trkpt>
      <trkpt lat="46.69438" lon="5.59355">
        <ele>360.395062</ele>
        <time>2022-04-01T21:48:40.794Z</time>
      </trkpt>
      <trkpt lat="46.6943" lon="5.593">
        <ele>358.050557</ele>
        <time>2022-04-01T21:48:44.295Z</time>
      </trkpt>
      <trkpt lat="46.69401" lon="5.59257">
        <ele>356.233898</ele>
        <time>2022-04-01T21:48:48.310Z</time>
      </trkpt>
      <trkpt lat="46.69387" lon="5.59201">
        <ele>354.483399</ele>
        <time>2022-04-01T21:48:52.103Z</time>
      </trkpt>
      <trkpt lat="46.69379" lon="5.59185">
        <ele>353.888687</ele>
        <time>2022-04-01T21:48:53.374Z</time>
      </trkpt>
      <trkpt lat="46.69248" lon="5.59089">
        <ele>349.868326</ele>
        <time>2022-04-01T21:49:08.999Z</time>
      </trkpt>
      <trkpt lat="46.69132" lon="5.59054">
        <ele>347.753105</ele>
        <time>2022-04-01T21:49:25.580Z</time>
      </trkpt>
      <trkpt lat="46.69099" lon="5.5901">
        <ele>346.193141</ele>
        <time>2022-04-01T21:49:30.221Z</time>
      </trkpt>
      <trkpt lat="46.6901" lon="5.58958">
        <ele>342.830849</ele>
        <time>2022-04-01T21:49:39.748Z</time>
      </trkpt>
      <trkpt lat="46.68991" lon="5.58929">
        <ele>341.571291</ele>
        <time>2022-04-01T21:49:42.194Z</time>
      </trkpt>
      <trkpt lat="46.68968" lon="5.58828">
        <ele>336.048375</ele>
        <time>2022-04-01T21:49:48.720Z</time>
      </trkpt>
      <trkpt lat="46.68932" lon="5.58764">
        <ele>331.757951</ele>
        <time>2022-04-01T21:49:53.663Z</time>
      </trkpt>
      <trkpt lat="46.68896" lon="5.58682">
        <ele>327.104907</ele>
        <time>2022-04-01T21:49:59.544Z</time>
      </trkpt>
      <trkpt lat="46.68726" lon="5.58462">
        <ele>315.875736</ele>
        <time>2022-04-01T21:50:20.701Z</time>
      </trkpt>
      <trkpt lat="46.68718" lon="5.58444">
        <ele>315.472208</ele>
        <time>2022-04-01T21:50:22.318Z</time>
      </trkpt>
      <trkpt lat="46.68704" lon="5.58443">
        <ele>315.093228</ele>
        <time>2022-04-01T21:50:23.819Z</time>
      </trkpt>
      <trkpt lat="46.68611" lon="5.58435">
        <ele>313.170961</ele>
        <time>2022-04-01T21:50:35.367Z</time>
      </trkpt>
      <trkpt lat="46.68531" lon="5.58417">
        <ele>314.394932</ele>
        <time>2022-04-01T21:50:53.240Z</time>
      </trkpt>
      <trkpt lat="46.68479" lon="5.58405">
        <ele>315.196139</ele>
        <time>2022-04-01T21:51:06.645Z</time>
      </trkpt>
      <trkpt lat="46.6843" lon="5.58394">
        <ele>315.74527</ele>
        <time>2022-04-01T21:51:17.634Z</time>
      </trkpt>
      <trkpt lat="46.6837" lon="5.58381">
        <ele>315.974699</ele>
        <time>2022-04-01T21:51:29.771Z</time>
      </trkpt>
      <trkpt lat="46.68352" lon="5.58378">
        <ele>316.040373</ele>
        <time>2022-04-01T21:51:32.691Z</time>
      </trkpt>
      <trkpt lat="46.68308" lon="5.58368">
        <ele>316.208422</ele>
        <time>2022-04-01T21:51:39.483Z</time>
      </trkpt>
      <trkpt lat="46.68265" lon="5.58364">
        <ele>316.271793</ele>
        <time>2022-04-01T21:51:44.785Z</time>
      </trkpt>
      <trkpt lat="46.68242" lon="5.5836">
        <ele>315.707108</ele>
        <time>2022-04-01T21:51:47.335Z</time>
      </trkpt>
      <trkpt lat="46.68224" lon="5.58356">
        <ele>315.250763</ele>
        <time>2022-04-01T21:51:49.366Z</time>
      </trkpt>
      <trkpt lat="46.68203" lon="5.58349">
        <ele>314.727032</ele>
        <time>2022-04-01T21:51:51.565Z</time>
      </trkpt>
      <trkpt lat="46.68193" lon="5.58339">
        <ele>314.434364</ele>
        <time>2022-04-01T21:51:52.789Z</time>
      </trkpt>
      <trkpt lat="46.68199" lon="5.58301">
        <ele>313.791196</ele>
        <time>2022-04-01T21:51:55.505Z</time>
      </trkpt>
      <trkpt lat="46.68201" lon="5.5826">
        <ele>313.105801</ele>
        <time>2022-04-01T21:51:58.400Z</time>
      </trkpt>
      <trkpt lat="46.68201" lon="5.58255">
        <ele>313.015422</ele>
        <time>2022-04-01T21:51:58.789Z</time>
      </trkpt>
      <trkpt lat="46.68204" lon="5.58178">
        <ele>311.694089</ele>
        <time>2022-04-01T21:52:04.274Z</time>
      </trkpt>
      <trkpt lat="46.68206" lon="5.58143">
        <ele>311.038301</ele>
        <time>2022-04-01T21:52:06.827Z</time>
      </trkpt>
      <trkpt lat="46.68215" lon="5.58105">
        <ele>310.289271</ele>
        <time>2022-04-01T21:52:09.684Z</time>
      </trkpt>
      <trkpt lat="46.68228" lon="5.58076">
        <ele>309.635083</ele>
        <time>2022-04-01T21:52:12.187Z</time>
      </trkpt>
      <trkpt lat="46.68241" lon="5.58049">
        <ele>309.036946</ele>
        <time>2022-04-01T21:52:14.488Z</time>
      </trkpt>
      <trkpt lat="46.68248" lon="5.58036">
        <ele>308.710517</ele>
        <time>2022-04-01T21:52:15.731Z</time>
      </trkpt>
      <trkpt lat="46.68257" lon="5.58005">
        <ele>308.092932</ele>
        <time>2022-04-01T21:52:18.087Z</time>
      </trkpt>
      <trkpt lat="46.68247" lon="5.57988">
        <ele>307.669554</ele>
        <time>2022-04-01T21:52:19.688Z</time>
      </trkpt>
      <trkpt lat="46.68227" lon="5.57966">
        <ele>306.990646</ele>
        <time>2022-04-01T21:52:22.265Z</time>
      </trkpt>
      <trkpt lat="46.68188" lon="5.5792">
        <ele>305.588295</ele>
        <time>2022-04-01T21:52:27.444Z</time>
      </trkpt>
      <trkpt lat="46.68185" lon="5.57915">
        <ele>305.461967</ele>
        <time>2022-04-01T21:52:27.902Z</time>
      </trkpt>
      <trkpt lat="46.68094" lon="5.57678">
        <ele>300.866839</ele>
        <time>2022-04-01T21:52:47.334Z</time>
      </trkpt>
      <trkpt lat="46.68072" lon="5.57619">
        <ele>300.003837</ele>
        <time>2022-04-01T21:52:52.456Z</time>
      </trkpt>
      <trkpt lat="46.68026" lon="5.57497">
        <ele>298.479203</ele>
        <time>2022-04-01T21:53:03.826Z</time>
      </trkpt>
      <trkpt lat="46.67992" lon="5.57409">
        <ele>297.91497</ele>
        <time>2022-04-01T21:53:12.594Z</time>
      </trkpt>
      <trkpt lat="46.67951" lon="5.57302">
        <ele>297.228338</ele>
        <time>2022-04-01T21:53:23.613Z</time>
      </trkpt>
      <trkpt lat="46.67937" lon="5.57265">
        <ele>296.760541</ele>
        <time>2022-04-01T21:53:27.306Z</time>
      </trkpt>
      <trkpt lat="46.67914" lon="5.57198">
        <ele>295.91307</ele>
        <time>2022-04-01T21:53:33.556Z</time>
      </trkpt>
      <trkpt lat="46.67911" lon="5.57191">
        <ele>295.83092</ele>
        <time>2022-04-01T21:53:34.134Z</time>
      </trkpt>
      <trkpt lat="46.67908" lon="5.57182">
        <ele>295.709567</ele>
        <time>2022-04-01T21:53:34.963Z</time>
      </trkpt>
      <trkpt lat="46.67904" lon="5.57171">
        <ele>295.577976</ele>
        <time>2022-04-01T21:53:35.887Z</time>
      </trkpt>
      <trkpt lat="46.67896" lon="5.5715">
        <ele>295.303559</ele>
        <time>2022-04-01T21:53:37.762Z</time>
      </trkpt>
      <trkpt lat="46.67893" lon="5.5714">
        <ele>295.181943</ele>
        <time>2022-04-01T21:53:38.569Z</time>
      </trkpt>
      <trkpt lat="46.67884" lon="5.57115">
        <ele>294.869071</ele>
        <time>2022-04-01T21:53:40.679Z</time>
      </trkpt>
      <trkpt lat="46.67856" lon="5.57108">
        <ele>294.400542</ele>
        <time>2022-04-01T21:53:43.726Z</time>
      </trkpt>
      <trkpt lat="46.67849" lon="5.57106">
        <ele>294.286155</ele>
        <time>2022-04-01T21:53:44.468Z</time>
      </trkpt>
      <trkpt lat="46.67828" lon="5.57101">
        <ele>293.328967</ele>
        <time>2022-04-01T21:53:46.698Z</time>
      </trkpt>
      <trkpt lat="46.67819" lon="5.57099">
        <ele>292.899965</ele>
        <time>2022-04-01T21:53:47.683Z</time>
      </trkpt>
      <trkpt lat="46.67801" lon="5.57092">
        <ele>292.094642</ele>
        <time>2022-04-01T21:53:49.474Z</time>
      </trkpt>
      <trkpt lat="46.67795" lon="5.57084">
        <ele>291.706773</ele>
        <time>2022-04-01T21:53:50.333Z</time>
      </trkpt>
      <trkpt lat="46.6777" lon="5.57051">
        <ele>290.198002</ele>
        <time>2022-04-01T21:53:53.597Z</time>
      </trkpt>
      <trkpt lat="46.67737" lon="5.57009">
        <ele>288.240024</ele>
        <time>2022-04-01T21:53:57.740Z</time>
      </trkpt>
      <trkpt lat="46.6773" lon="5.57">
        <ele>287.816302</ele>
        <time>2022-04-01T21:53:58.626Z</time>
      </trkpt>
      <trkpt lat="46.67701" lon="5.56963">
        <ele>286.022332</ele>
        <time>2022-04-01T21:54:02.161Z</time>
      </trkpt>
      <trkpt lat="46.67693" lon="5.56953">
        <ele>285.332958</ele>
        <time>2022-04-01T21:54:03.086Z</time>
      </trkpt>
      <trkpt lat="46.67688" lon="5.56946">
        <ele>284.865977</ele>
        <time>2022-04-01T21:54:03.706Z</time>
      </trkpt>
      <trkpt lat="46.67682" lon="5.56927">
        <ele>283.899055</ele>
        <time>2022-04-01T21:54:05.008Z</time>
      </trkpt>
      <trkpt lat="46.67676" lon="5.56908">
        <ele>282.935646</ele>
        <time>2022-04-01T21:54:06.296Z</time>
      </trkpt>
      <trkpt lat="46.6767" lon="5.569">
        <ele>282.409321</ele>
        <time>2022-04-01T21:54:07.004Z</time>
      </trkpt>
      <trkpt lat="46.67668" lon="5.56897">
        <ele>282.177031</ele>
        <time>2022-04-01T21:54:07.311Z</time>
      </trkpt>
      <trkpt lat="46.67652" lon="5.56892">
        <ele>281.143974</ele>
        <time>2022-04-01T21:54:08.697Z</time>
      </trkpt>
      <trkpt lat="46.67632" lon="5.56859">
        <ele>279.121196</ele>
        <time>2022-04-01T21:54:11.403Z</time>
      </trkpt>
      <trkpt lat="46.67627" lon="5.5685">
        <ele>278.531984</ele>
        <time>2022-04-01T21:54:12.198Z</time>
      </trkpt>
      <trkpt lat="46.67582" lon="5.56776">
        <ele>274.067552</ele>
        <time>2022-04-01T21:54:18.308Z</time>
      </trkpt>
      <trkpt lat="46.67564" lon="5.56746">
        <ele>272.912422</ele>
        <time>2022-04-01T21:54:20.795Z</time>
      </trkpt>
      <trkpt lat="46.67556" lon="5.56739">
        <ele>272.510956</ele>
        <time>2022-04-01T21:54:21.661Z</time>
      </trkpt>
      <trkpt lat="46.67541" lon="5.56667">
        <ele>270.310322</ele>
        <time>2022-04-01T21:54:28.594Z</time>
      </trkpt>
      <trkpt lat="46.67524" lon="5.56594">
        <ele>268.036599</ele>
        <time>2022-04-01T21:54:36.157Z</time>
      </trkpt>
      <trkpt lat="46.67488" lon="5.56473">
        <ele>265.579108</ele>
        <time>2022-04-01T21:54:50.488Z</time>
      </trkpt>
      <trkpt lat="46.67474" lon="5.56395">
        <ele>264.649142</ele>
        <time>2022-04-01T21:54:59.586Z</time>
      </trkpt>
      <trkpt lat="46.6746" lon="5.56389">
        <ele>264.418523</ele>
        <time>2022-04-01T21:55:01.836Z</time>
      </trkpt>
      <trkpt lat="46.67457" lon="5.56362">
        <ele>264.100896</ele>
        <time>2022-04-01T21:55:04.052Z</time>
      </trkpt>
      <trkpt lat="46.67459" lon="5.56335">
        <ele>263.786275</ele>
        <time>2022-04-01T21:55:06.186Z</time>
      </trkpt>
      <trkpt lat="46.67461" lon="5.56318">
        <ele>263.587181</ele>
        <time>2022-04-01T21:55:07.575Z</time>
      </trkpt>
      <trkpt lat="46.67463" lon="5.56293">
        <ele>263.365821</ele>
        <time>2022-04-01T21:55:09.578Z</time>
      </trkpt>
      <trkpt lat="46.67467" lon="5.56261">
        <ele>263.144201</ele>
        <time>2022-04-01T21:55:12.203Z</time>
      </trkpt>
      <trkpt lat="46.67468" lon="5.56255">
        <ele>263.102479</ele>
        <time>2022-04-01T21:55:12.705Z</time>
      </trkpt>
      <trkpt lat="46.6747" lon="5.56237">
        <ele>262.977478</ele>
        <time>2022-04-01T21:55:14.186Z</time>
      </trkpt>
      <trkpt lat="46.6747" lon="5.56231">
        <ele>262.939805</ele>
        <time>2022-04-01T21:55:14.630Z</time>
      </trkpt>
      <trkpt lat="46.67476" lon="5.56168">
        <ele>262.501069</ele>
        <time>2022-04-01T21:55:20.074Z</time>
      </trkpt>
      <trkpt lat="46.6747" lon="5.56106">
        <ele>262.071555</ele>
        <time>2022-04-01T21:55:25.331Z</time>
      </trkpt>
      <trkpt lat="46.67464" lon="5.56082">
        <ele>261.895829</ele>
        <time>2022-04-01T21:55:27.523Z</time>
      </trkpt>
      <trkpt lat="46.67462" lon="5.56071">
        <ele>261.818961</ele>
        <time>2022-04-01T21:55:28.479Z</time>
      </trkpt>
      <trkpt lat="46.67449" lon="5.5602">
        <ele>261.569856</ele>
        <time>2022-04-01T21:55:33.335Z</time>
      </trkpt>
      <trkpt lat="46.67442" lon="5.55996">
        <ele>261.486787</ele>
        <time>2022-04-01T21:55:35.789Z</time>
      </trkpt>
      <trkpt lat="46.67441" lon="5.55992">
        <ele>261.47535</ele>
        <time>2022-04-01T21:55:36.138Z</time>
      </trkpt>
      <trkpt lat="46.67439" lon="5.55986">
        <ele>261.453059</ele>
        <time>2022-04-01T21:55:36.807Z</time>
      </trkpt>
      <trkpt lat="46.6743" lon="5.55969">
        <ele>261.384146</ele>
        <time>2022-04-01T21:55:38.831Z</time>
      </trkpt>
      <trkpt lat="46.67423" lon="5.55968">
        <ele>261.354589</ele>
        <time>2022-04-01T21:55:39.681Z</time>
      </trkpt>
      <trkpt lat="46.67419" lon="5.55967">
        <ele>261.334265</ele>
        <time>2022-04-01T21:55:40.301Z</time>
      </trkpt>
      <trkpt lat="46.67403" lon="5.55962">
        <ele>261.261134</ele>
        <time>2022-04-01T21:55:42.482Z</time>
      </trkpt>
      <trkpt lat="46.67393" lon="5.5596">
        <ele>261.215005</ele>
        <time>2022-04-01T21:55:43.871Z</time>
      </trkpt>
      <trkpt lat="46.67352" lon="5.55948">
        <ele>261.023901</ele>
        <time>2022-04-01T21:55:49.701Z</time>
      </trkpt>
      <trkpt lat="46.67336" lon="5.55951">
        <ele>260.950225</ele>
        <time>2022-04-01T21:55:51.978Z</time>
      </trkpt>
      <trkpt lat="46.67315" lon="5.55943">
        <ele>260.852425</ele>
        <time>2022-04-01T21:55:54.855Z</time>
      </trkpt>
      <trkpt lat="46.67306" lon="5.55939">
        <ele>260.794583</ele>
        <time>2022-04-01T21:55:56.138Z</time>
      </trkpt>
      <trkpt lat="46.67305" lon="5.55848">
        <ele>260.403957</ele>
        <time>2022-04-01T21:56:04.051Z</time>
      </trkpt>
      <trkpt lat="46.67304" lon="5.55703">
        <ele>259.788556</ele>
        <time>2022-04-01T21:56:16.654Z</time>
      </trkpt>
      <trkpt lat="46.67303" lon="5.55683">
        <ele>259.716725</ele>
        <time>2022-04-01T21:56:18.596Z</time>
      </trkpt>
      <trkpt lat="46.67303" lon="5.55609">
        <ele>259.56258</ele>
        <time>2022-04-01T21:56:25.746Z</time>
      </trkpt>
      <trkpt lat="46.67305" lon="5.55531">
        <ele>259.400754</ele>
        <time>2022-04-01T21:56:32.904Z</time>
      </trkpt>
      <trkpt lat="46.67307" lon="5.55522">
        <ele>259.3808</ele>
        <time>2022-04-01T21:56:33.834Z</time>
      </trkpt>
      <trkpt lat="46.67314" lon="5.55485">
        <ele>259.300828</ele>
        <time>2022-04-01T21:56:37.353Z</time>
      </trkpt>
      <trkpt lat="46.67317" lon="5.55472">
        <ele>259.272266</ele>
        <time>2022-04-01T21:56:38.684Z</time>
      </trkpt>
      <trkpt lat="46.67312" lon="5.55471">
        <ele>259.257278</ele>
        <time>2022-04-01T21:56:39.420Z</time>
      </trkpt>
      <trkpt lat="46.67307" lon="5.5547">
        <ele>259.244402</ele>
        <time>2022-04-01T21:56:40.060Z</time>
      </trkpt>
      <trkpt lat="46.6726" lon="5.55462">
        <ele>259.210836</ele>
        <time>2022-04-01T21:56:46.998Z</time>
      </trkpt>
      <trkpt lat="46.67188" lon="5.55451">
        <ele>259.273163</ele>
        <time>2022-04-01T21:56:58.070Z</time>
      </trkpt>
      <trkpt lat="46.67193" lon="5.55351">
        <ele>259.332081</ele>
        <time>2022-04-01T21:57:07.744Z</time>
      </trkpt>
      <trkpt lat="46.67203" lon="5.55182">
        <ele>259.340979</ele>
        <time>2022-04-01T21:57:28.836Z</time>
      </trkpt>
      <trkpt lat="46.67177" lon="5.55178">
        <ele>259.340979</ele>
        <time>2022-04-01T21:57:34.140Z</time>
      </trkpt>
      <trkpt lat="46.67144" lon="5.55173">
        <ele>259.340979</ele>
        <time>2022-04-01T21:57:40.869Z</time>
      </trkpt>
      <trkpt lat="46.67141" lon="5.55172">
        <ele>259.340979</ele>
        <time>2022-04-01T21:57:41.414Z</time>
      </trkpt>
      <trkpt lat="46.67138" lon="5.55172">
        <ele>259.340979</ele>
        <time>2022-04-01T21:57:42.092Z</time>
      </trkpt>
      <trkpt lat="46.67074" lon="5.55161">
        <ele>259.340979</ele>
        <time>2022-04-01T21:57:55.455Z</time>
      </trkpt>
      <trkpt lat="46.67054" lon="5.55158">
        <ele>259.340979</ele>
        <time>2022-04-01T21:57:59.540Z</time>
      </trkpt>
    </trkseg>
  </trk>
</gpx>